[[{"header":{"parameterUnit":"m.s-1","parameterCategory":1,"la1":30.6,"la2":29.2853,"lo1":-89.7004,"lo2":-87.6739,"dy":0.0162,"dx":0.0183,"nx":112,"ny":82,"refTime":"2023-06-04T06:00:00:Z","depth":0,"parameterNumber":2,"parameterNumberName":"U-component_of_WINDS"},"data":[0.0,0.0,0.0,0.0,0.0,0.0,0.0,0.0,0.0,0.0,0.0,0.0,0.0,0.0,0.0,0.0,0.0,0.0,0.0,0.0,0.0,0.0,0.0,0.0,0.0,0.0,0.0,0.0,0.0,0.0,0.0,0.0,0.0,0.0,0.0,0.0,0.0,0.0,0.0,0.0,0.0,0.0,0.0,0.0,0.0,0.0,0.0,0.0,0.0,0.0,0.0,0.0,0.0,0.0,0.0,0.0,0.0,0.0,0.0,0.0,0.0,0.0,0.0,0.0,0.0,0.0,0.0,0.0,0.0,0.0,0.0,0.0,0.0,0.0,0.0,0.0,0.0,0.0,0.0,0.0,0.0,0.0,0.0,0.0,0.0,0.0,0.0,0.0,0.0,0.0,0.0,1.5072,1.5567,1.5954,1.6044,1.6032,1.6032,1.6032,0.0,0.0,0.0,0.0,0.0,0.0,0.0,0.0,0.0,0.0,0.0,0.0,0.0,0.0,0.0,0.0,0.0,0.0,0.0,0.0,0.0,0.0,0.0,0.0,0.0,0.0,0.0,0.0,0.0,0.0,0.0,0.0,0.0,0.0,0.0,0.0,0.0,0.0,0.0,0.0,0.0,0.0,0.0,0.0,0.0,0.0,0.0,0.0,0.0,0.0,0.0,0.0,0.0,0.0,0.0,0.0,0.0,0.0,0.0,0.0,0.0,0.0,0.0,0.0,0.0,0.0,0.0,0.0,0.0,0.0,0.0,0.0,0.0,0.0,0.0,0.0,0.0,0.0,0.0,0.0,0.0,0.0,0.0,0.0,0.0,0.0,0.0,0.0,0.0,0.0,0.0,0.0,0.0,0.0,0.0,0.0,0.0,0.0,0.0,0.0,0.0,0.0,0.0,0.0,1.6161,1.6581,1.6736,1.6882,1.7123,1.7183,1.7183,1.7183,0.0,0.0,0.0,0.0,0.0,0.0,0.0,0.0,0.0,0.0,0.0,0.0,0.0,0.0,0.0,0.0,0.0,0.0,0.0,0.0,0.0,0.0,0.0,0.0,0.0,0.0,0.0,0.0,0.0,0.0,0.0,0.0,0.0,0.0,0.0,0.0,0.0,0.0,0.0,0.0,0.0,0.0,0.0,0.0,0.0,0.0,0.0,0.0,0.0,0.0,0.0,0.0,0.0,0.0,0.0,0.0,0.0,0.0,0.0,0.0,0.0,0.0,0.0,0.0,0.0,0.0,0.0,0.0,0.0,0.0,0.0,0.0,0.0,0.0,0.0,0.0,0.0,0.0,0.0,0.0,0.0,0.0,0.0,0.0,0.0,0.0,0.0,0.0,0.0,0.0,0.0,0.0,0.0,0.0,0.0,0.0,0.0,0.0,0.0,0.0,0.0,0.0,0.0,1.5323,1.5941,1.6216,1.6238,1.6439,1.6849,1.6898,1.7057,1.7363,1.661,0.0,0.0,0.0,0.0,0.0,0.0,0.0,0.0,0.0,0.0,0.0,0.0,0.0,0.0,0.0,0.0,0.0,0.0,0.0,0.0,0.0,0.0,0.0,0.0,0.0,0.0,0.0,0.0,0.0,0.0,0.0,0.0,0.0,0.0,0.0,0.0,0.0,0.0,0.0,0.0,0.0,0.0,0.0,0.0,0.0,0.0,0.0,0.0,0.0,0.0,0.0,0.0,0.0,0.0,0.0,0.0,0.0,0.0,0.0,0.0,0.0,0.0,0.0,0.0,0.0,0.0,0.0,0.0,0.0,0.0,0.0,0.0,0.0,0.0,0.0,0.0,0.0,0.0,0.0,0.0,0.0,0.0,0.0,0.0,0.0,0.0,0.0,0.0,0.0,0.0,0.0,0.0,0.0,0.0,0.0,0.0,0.0,0.0,0.0,0.0,0.0,0.0,1.5478,1.5678,1.5837,1.59,1.611,1.6627,1.6689,1.6945,1.7523,1.6996,0.0,0.0,0.0,0.0,0.0,0.0,0.0,0.0,0.0,0.0,0.0,0.0,0.0,0.0,0.0,0.0,0.0,0.0,0.0,0.0,0.0,0.0,0.0,0.0,0.0,0.0,0.0,0.0,0.0,0.0,0.0,0.0,0.0,0.0,0.0,0.0,0.0,0.0,0.0,0.0,0.0,0.0,0.0,0.0,0.0,0.0,0.0,0.0,0.0,0.0,0.0,0.0,0.0,0.0,0.0,0.0,0.0,0.0,0.0,0.0,0.0,0.0,0.0,0.0,0.0,0.0,0.0,0.0,0.0,0.0,0.0,0.0,0.0,0.0,0.0,0.0,0.0,0.0,0.0,0.0,0.0,0.0,0.0,0.0,0.0,0.0,0.0,0.0,0.0,0.0,0.0,0.0,0.0,0.0,0.0,0.0,0.0,0.0,0.0,0.0,0.0,0.0,1.5652,1.5873,1.6626,1.6725,1.6826,1.7103,1.7159,1.7434,1.7989,1.7489,0.0,0.0,0.0,0.0,0.0,0.0,0.0,0.0,0.0,0.0,0.0,0.0,0.0,0.0,0.0,0.0,0.0,0.0,0.0,0.0,0.0,0.0,0.0,0.0,0.0,0.0,0.0,0.0,0.0,0.0,0.0,0.0,0.0,0.0,0.0,0.0,0.0,0.0,0.0,0.0,0.0,0.0,0.0,0.0,0.0,0.0,0.0,0.0,0.0,0.0,0.0,0.0,0.0,0.0,0.0,0.0,0.0,0.0,0.0,0.0,0.0,0.0,0.0,0.0,0.0,0.0,0.0,0.0,0.0,0.0,0.0,0.0,0.0,0.0,0.0,0.0,0.0,0.0,0.0,0.0,0.0,0.0,0.0,0.0,0.0,0.0,0.0,0.0,0.0,0.0,0.0,0.0,0.0,0.0,0.0,0.0,0.0,0.0,0.0,0.0,0.0,0.0,1.5565,1.5749,0.0,1.5768,1.5989,1.6492,1.6595,1.6922,1.7479,0.0,0.0,0.0,0.0,0.0,0.0,0.0,0.0,0.0,0.0,0.0,0.0,0.0,0.0,0.0,0.0,0.0,0.0,0.0,0.0,0.0,0.0,0.0,0.0,0.0,0.0,0.0,0.0,0.0,0.0,0.0,0.0,0.0,0.0,0.0,0.0,0.0,0.0,0.0,0.0,0.0,0.0,0.0,0.0,0.0,0.0,0.0,0.0,0.0,0.0,0.0,0.0,0.0,0.0,0.0,0.0,0.0,0.0,0.0,0.0,0.0,0.0,0.0,0.0,0.0,0.0,0.0,0.0,0.0,0.0,0.0,0.0,0.0,0.0,0.0,0.0,0.0,0.0,0.0,0.0,0.0,0.0,0.0,0.0,0.0,0.0,0.0,0.0,0.0,0.0,0.0,0.0,0.0,0.0,0.0,0.0,0.0,0.0,0.0,0.0,0.0,0.0,1.4991,1.5254,1.5303,0.0,1.497,1.5254,1.572,1.5874,1.6208,1.6821,0.0,0.0,0.0,0.0,0.0,0.0,0.0,0.0,0.0,0.0,0.0,0.0,0.0,0.0,0.0,0.0,0.0,0.0,0.0,0.0,0.0,0.0,0.0,0.0,0.0,0.0,0.0,0.0,0.0,0.0,0.0,0.0,0.0,0.0,0.0,0.0,0.0,0.0,0.0,0.0,0.0,0.0,0.0,0.0,0.0,0.0,0.0,0.0,0.0,0.0,0.0,0.0,0.0,0.0,0.0,0.0,0.0,0.0,0.0,0.0,0.0,0.0,0.0,0.0,0.0,0.0,0.0,0.0,0.0,0.0,0.0,0.0,0.0,0.0,0.0,0.0,0.0,0.0,0.0,0.0,0.0,0.0,0.0,0.0,0.0,0.0,0.0,0.0,0.0,0.0,0.0,0.0,0.0,0.0,0.0,0.0,0.0,0.0,0.0,0.0,0.0,0.0,1.498,1.4684,1.4565,1.4656,1.4715,1.4775,1.497,1.5098,1.5439,0.0,0.0,0.0,0.0,0.0,0.0,0.0,0.0,0.0,0.0,0.0,0.0,0.0,0.0,0.0,0.0,0.0,0.0,0.0,0.0,0.0,0.0,0.0,0.0,0.0,0.0,0.0,0.0,0.0,0.0,0.0,0.0,0.0,0.0,0.0,0.0,0.0,0.0,0.0,0.0,0.0,0.0,0.0,0.0,0.0,0.0,0.0,0.0,0.0,0.0,0.0,0.0,0.0,0.0,0.0,0.0,0.0,0.0,0.0,0.0,0.0,0.0,0.0,0.0,0.0,0.0,0.0,0.0,0.0,0.0,0.0,0.0,0.0,0.0,0.0,0.0,0.0,0.0,0.0,0.0,0.0,0.0,0.0,0.0,0.0,0.0,0.0,0.0,0.0,0.0,0.0,0.0,0.0,0.0,0.0,0.0,0.0,0.0,0.0,0.0,0.0,0.0,0.0,1.498,1.4684,1.4506,1.4565,1.4666,1.4715,1.4775,1.497,1.5147,1.5439,0.0,0.0,0.0,0.0,0.0,0.0,0.0,0.0,0.0,0.0,0.0,0.0,0.0,0.0,0.0,0.0,0.0,0.0,0.0,0.0,0.0,0.0,0.0,0.0,0.0,0.0,0.0,0.0,0.0,0.0,0.0,0.0,0.0,0.0,0.0,0.0,0.0,0.0,0.0,0.0,0.0,0.0,0.0,0.0,0.0,0.0,0.0,0.0,0.0,0.0,0.0,0.0,0.0,0.0,0.0,0.0,0.0,0.0,0.0,0.0,0.0,0.0,0.0,0.0,0.0,0.0,0.0,0.0,0.0,0.0,0.0,0.0,0.0,0.0,0.0,0.0,0.0,0.0,0.0,0.0,0.0,0.0,0.0,0.0,0.0,0.0,0.0,0.0,0.0,0.0,0.0,0.0,0.0,0.0,0.0,0.0,0.0,0.0,0.0,0.0,0.0,0.0,1.4902,1.4684,1.4515,1.4515,1.4556,1.4606,1.4606,1.4784,1.4902,1.5029,0.0,0.0,0.0,0.0,0.0,0.0,0.0,0.0,0.0,0.0,0.0,0.0,0.0,0.0,0.0,0.0,0.0,0.0,0.0,0.0,0.0,0.0,0.0,0.0,0.0,0.0,0.0,0.0,0.0,0.0,0.0,0.0,0.0,0.0,0.0,0.0,0.0,0.0,0.0,0.0,0.0,0.0,0.0,0.0,0.0,0.0,0.0,0.0,0.0,0.0,0.0,0.0,0.0,0.0,0.0,0.0,0.0,0.0,0.0,0.0,0.0,0.0,0.0,0.0,0.0,0.0,0.0,0.0,0.0,0.0,0.0,0.0,0.0,0.0,0.0,0.0,0.0,0.0,0.0,0.0,0.0,0.0,0.0,0.0,0.0,0.0,0.0,0.0,0.0,0.0,0.0,0.0,0.0,0.0,0.0,0.0,0.0,0.0,0.0,0.0,0.0,0.0,1.4818,1.4726,1.4616,1.4616,1.4616,1.4565,1.4496,1.4598,1.4639,1.4579,0.0,0.0,0.0,0.0,0.0,0.0,0.0,0.0,0.0,0.0,0.0,0.0,0.0,0.0,0.0,0.0,0.0,0.0,0.0,0.0,0.0,0.0,0.0,0.0,0.0,0.0,0.0,0.0,0.0,0.0,0.0,0.0,0.0,0.0,0.0,0.0,0.0,0.0,0.0,0.0,0.0,0.0,0.0,0.0,0.0,0.0,0.0,0.0,0.0,0.0,0.0,0.0,0.0,0.0,0.0,0.0,0.0,0.0,0.0,0.0,1.4563,0.0,0.0,0.0,0.0,0.0,0.0,0.0,0.0,0.0,0.0,0.0,0.0,0.0,0.0,0.0,0.0,0.0,0.0,0.0,0.0,0.0,0.0,0.0,0.0,0.0,0.0,0.0,0.0,0.0,0.0,0.0,0.0,0.0,0.0,0.0,0.0,0.0,0.0,0.0,0.0,0.0,1.5817,1.5622,1.5432,1.5432,1.5432,1.5242,1.465,1.4585,1.4375,1.3842,1.3786,0.0,0.0,0.0,0.0,0.0,0.0,0.0,0.0,0.0,0.0,0.0,0.0,0.0,0.0,0.0,0.0,0.0,0.0,0.0,0.0,0.0,0.0,0.0,0.0,0.0,0.0,0.0,0.0,0.0,0.0,0.0,0.0,0.0,0.0,0.0,0.0,0.0,0.0,0.0,0.0,0.0,0.0,0.0,0.0,0.0,0.0,0.0,0.0,0.0,0.0,0.0,0.0,0.0,0.0,0.0,0.0,0.0,0.0,0.0,0.0,1.5008,0.0,0.0,0.0,0.0,0.0,0.0,0.0,0.0,0.0,0.0,0.0,0.0,0.0,0.0,0.0,0.0,0.0,0.0,0.0,0.0,0.0,0.0,0.0,0.0,0.0,0.0,0.0,0.0,0.0,0.0,0.0,0.0,0.0,0.0,0.0,0.0,0.0,0.0,0.0,0.0,1.5908,1.5817,1.5689,1.5689,1.5689,1.5422,1.4689,1.4624,1.4287,1.3545,1.3478,0.0,0.0,0.0,0.0,0.0,0.0,0.0,0.0,0.0,0.0,0.0,0.0,0.0,0.0,0.0,0.0,0.0,0.0,0.0,0.0,0.0,0.0,0.0,0.0,0.0,0.0,0.0,0.0,0.0,0.0,0.0,0.0,0.0,0.0,0.0,0.0,0.0,0.0,0.0,0.0,0.0,0.0,0.0,0.0,0.0,0.0,0.0,0.0,0.0,0.0,0.0,0.0,0.0,1.6709,1.6898,1.6961,1.7502,1.7492,1.7091,1.6196,1.5324,1.4645,0.0,0.0,0.0,0.0,0.0,0.0,0.0,0.0,0.0,0.0,0.0,0.0,0.0,0.0,0.0,0.0,0.0,0.0,0.0,0.0,0.0,0.0,0.0,0.0,0.0,1.5751,1.5547,0.0,0.0,0.0,0.0,0.0,0.0,0.0,0.0,0.0,0.0,0.0,0.0,1.6021,1.59,1.5834,1.5695,1.5704,1.5358,1.4488,1.4422,1.4079,1.3263,1.3323,1.3458,0.0,0.0,0.0,0.0,0.0,0.0,0.0,0.0,0.0,0.0,0.0,0.0,0.0,0.0,0.0,0.0,0.0,0.0,0.0,0.0,0.0,0.0,0.0,0.0,0.0,0.0,0.0,0.0,0.0,0.0,0.0,0.0,1.3231,1.3286,0.0,0.0,0.0,0.0,0.0,0.0,0.0,0.0,0.0,0.0,0.0,0.0,0.0,1.6024,1.6782,1.6145,1.6201,1.6961,1.6329,1.6147,1.6357,1.6519,1.6573,1.649,1.6537,0.0,1.6387,1.651,0.0,0.0,0.0,0.0,0.0,0.0,0.0,0.0,0.0,0.0,0.0,0.0,0.0,0.0,0.0,0.0,0.0,0.0,0.0,0.0,0.0,0.0,1.5233,1.5415,1.5501,1.5657,0.0,1.5994,1.6037,1.5805,1.6081,0.0,0.0,0.0,0.0,0.0,0.0,0.0,1.6961,1.6871,1.6537,1.5826,1.5826,1.518,1.3761,1.3618,1.3331,1.2469,1.2469,1.2832,1.3682,1.3349,0.0,0.0,0.0,0.0,0.0,0.0,0.0,0.0,0.0,0.0,0.0,0.0,0.0,0.0,0.0,0.0,0.0,0.0,0.0,0.0,0.0,0.0,0.0,0.0,0.0,0.0,0.0,0.0,0.0,1.4382,1.459,1.4496,1.4592,1.4482,0.0,0.0,0.0,0.0,0.0,0.0,0.0,0.0,0.0,1.5817,1.5918,1.6234,1.6626,1.6457,1.6568,1.6968,1.6635,1.6511,1.6587,1.6635,1.6769,1.6826,1.6968,1.7044,1.7148,1.7169,1.7044,1.6709,0.0,0.0,0.0,0.0,1.6386,1.6152,1.6447,1.6507,0.0,1.6507,0.0,0.0,0.0,0.0,0.0,0.0,0.0,0.0,0.0,0.0,1.5832,1.5889,1.5936,1.593,1.6055,1.6313,1.6411,0.0,1.6351,1.6701,1.6682,0.0,0.0,0.0,0.0,1.6971,1.701,1.6612,1.6193,1.5833,1.5401,1.4681,1.3608,1.3535,1.3171,1.2378,1.2305,1.2445,1.2879,1.3114,1.3114,0.0,0.0,0.0,0.0,0.0,0.0,0.0,0.0,0.0,0.0,0.0,0.0,0.0,0.0,0.0,0.0,0.0,0.0,0.0,0.0,0.0,0.0,0.0,0.0,0.0,0.0,0.0,0.0,1.5429,1.5723,1.5753,1.5744,1.5463,0.0,0.0,0.0,0.0,0.0,0.0,1.5854,1.6037,1.6147,1.6147,1.656,1.678,1.678,1.7073,1.722,1.722,1.722,1.722,1.722,1.7281,1.7352,1.7483,1.7563,1.7633,1.7796,1.7655,1.7298,1.6977,1.7359,1.7256,1.6885,1.6714,1.6665,1.6665,1.6665,1.6665,1.6665,1.6665,0.0,1.623,1.623,0.0,0.0,0.0,0.0,1.6602,1.6538,1.6465,1.6348,1.6398,1.6307,1.6354,1.6393,1.6647,1.6807,0.0,1.6656,1.7006,1.7121,0.0,0.0,0.0,0.0,1.689,1.6908,1.6044,1.5471,1.5471,1.4824,1.4027,1.3244,1.3171,1.2952,1.2372,1.2305,1.2305,1.2305,1.2879,1.2886,1.2305,0.0,0.0,0.0,0.0,0.0,0.0,0.0,0.0,0.0,0.0,0.0,0.0,0.0,0.0,0.0,0.0,0.0,0.0,0.0,0.0,0.0,0.0,0.0,0.0,0.0,0.0,0.0,0.0,0.0,1.6654,1.609,0.0,0.0,0.0,0.0,1.6075,1.6224,1.6285,1.6285,1.7,1.7403,1.7403,1.7816,1.8036,1.8036,1.8054,1.8064,1.8064,1.8064,1.8064,1.8064,1.8276,1.8341,1.8341,1.8507,1.8663,1.8597,1.7824,1.7531,1.76,1.7272,1.7203,1.7305,1.6885,1.6665,1.6665,1.6665,1.6665,1.6665,1.6665,1.6719,1.6699,1.6699,1.6699,0.0,0.0,1.6538,1.6411,1.6102,1.6147,1.6232,1.6317,1.6485,1.6645,1.683,1.706,1.7017,0.0,1.6859,1.7207,1.7207,0.0,1.7235,1.7235,1.6533,1.6254,1.683,1.5613,1.4673,1.4673,1.4034,1.3244,1.2445,1.2372,1.2372,1.2305,1.2305,1.2305,1.2305,1.2372,1.2372,1.2305,1.2372,0.0,0.0,0.0,0.0,0.0,0.0,0.0,0.0,0.0,0.0,0.0,0.0,0.0,0.0,0.0,0.0,0.0,0.0,0.0,0.0,0.0,0.0,0.0,0.0,0.0,0.0,0.0,0.0,1.6626,1.6747,0.0,1.6178,1.6671,1.7051,1.7104,1.7165,1.7297,1.7477,1.757,1.7715,1.7899,1.8045,1.8128,1.8128,1.8128,1.8128,1.8128,1.8128,1.8128,1.8128,1.8193,1.8193,1.8193,1.8267,1.8276,1.8323,1.8035,1.789,1.797,1.7896,1.7745,1.762,1.7541,1.7559,1.7559,1.7559,1.7559,1.751,1.7236,1.7148,1.7148,1.7148,1.7148,1.7142,1.7263,1.734,1.7426,1.7025,1.7025,1.6986,1.6924,1.6825,1.6793,1.6872,1.6968,1.6922,1.6784,1.7005,1.7166,1.7166,1.7107,1.7038,1.7166,1.6464,1.5974,1.6184,1.4824,1.389,1.389,1.3171,1.2592,1.2298,1.2305,1.2305,1.2305,1.2305,1.2305,1.2305,1.2305,1.2305,1.2305,1.215,1.215,0.0,0.0,0.0,0.0,0.0,0.0,0.0,0.0,0.0,0.0,0.0,0.0,0.0,0.0,0.0,0.0,0.0,0.0,0.0,0.0,0.0,0.0,0.0,0.0,0.0,0.0,1.6439,1.7193,1.7398,1.7385,1.7184,1.7543,1.7823,1.7694,1.7798,1.8006,1.8507,1.8355,1.8397,1.8733,1.8861,1.8935,1.8935,1.8935,1.8935,1.8935,1.8935,1.8935,1.8935,1.8935,1.8935,1.8935,1.8935,1.8861,1.8733,1.8733,1.8563,1.8338,1.8413,1.8328,1.8279,1.8368,1.8437,1.8437,1.8368,1.8158,1.7872,1.7668,1.7243,1.6797,1.7005,1.7035,1.7091,1.721,1.751,1.7735,1.7461,1.747,1.7401,1.7176,1.7038,1.6968,1.6908,1.6908,1.683,1.6551,1.683,1.7107,1.7107,1.6751,1.6691,1.7038,1.5895,1.5188,1.5762,1.425,1.3171,1.3462,1.2813,1.2305,1.2305,1.2305,1.2305,1.2305,1.2305,1.2305,1.2305,1.2305,1.2305,1.2305,1.1848,1.162,1.1694,0.0,0.0,0.0,0.0,0.0,0.0,0.0,0.0,0.0,0.0,0.0,0.0,0.0,0.0,0.0,0.0,0.0,0.0,0.0,0.0,0.0,0.0,0.0,1.634,1.6855,1.7561,1.8484,1.7943,1.7959,1.9093,1.8508,1.7988,1.7803,1.8015,1.8554,1.9343,1.934,1.9531,1.9934,2.0319,2.0521,2.0521,2.0521,2.0521,2.0521,2.0521,2.0521,2.0521,2.0521,2.0521,2.0521,2.0521,2.0301,1.9943,1.9943,1.9485,1.8724,1.8732,1.8922,1.9287,1.9287,1.9287,1.9214,1.9004,1.8397,1.7721,1.8003,1.6973,1.5723,1.6166,1.6272,1.6272,1.6272,1.6848,1.743,1.7204,1.7282,1.7351,1.6996,1.7047,1.7097,1.6908,1.6839,1.6621,1.5903,1.6333,1.683,1.683,1.6263,1.5982,1.6691,1.4895,0.0,1.5542,1.3745,1.2592,1.339,1.2739,1.2305,1.2305,1.2305,1.2305,1.2298,1.2305,1.2305,1.2298,1.2298,1.2305,1.2224,1.1242,1.0634,1.0415,0.0,0.0,0.0,0.0,0.0,0.0,0.0,0.0,0.0,0.0,0.0,0.0,0.0,0.0,0.0,0.0,0.0,0.0,0.0,0.0,0.0,0.0,1.7073,1.6789,1.7121,1.7642,1.8182,1.8027,1.8184,1.8797,1.8579,1.8617,1.9225,1.9606,1.9916,2.0136,2.0347,2.0449,2.0356,2.0457,2.0521,2.0521,2.0521,2.0521,2.0521,2.0521,2.0521,2.0521,2.0521,2.0521,2.0521,2.0521,2.0457,2.0356,2.0356,1.9886,1.9168,1.9012,1.8826,1.8701,1.8784,1.8554,1.8008,1.7327,1.7026,1.7009,1.7064,1.6638,1.6238,1.6362,1.6245,1.6088,1.5955,1.6179,1.6311,1.603,1.6362,1.6678,1.6454,1.6315,1.6184,1.6114,1.5613,1.518,1.4966,1.5108,1.5251,1.5251,1.5037,1.5037,1.518,1.425,0.0,1.4106,1.3025,1.2372,1.2592,1.2445,1.2305,1.2305,1.2305,1.2224,1.2077,1.2231,1.2224,1.2077,1.2077,1.1706,1.0812,1.0051,0.9599,0.0,0.0,0.0,0.0,0.0,0.0,0.0,0.0,0.0,0.0,0.0,0.0,0.0,0.0,0.0,0.0,0.0,0.0,0.0,0.0,0.0,0.0,1.7339,1.7798,1.7899,1.7825,1.7972,1.855,1.8614,1.8757,1.9216,1.9362,1.9598,2.0071,2.0393,2.0688,2.0976,2.0985,2.0973,2.1025,2.1025,2.1025,2.1025,2.1025,2.1025,2.1025,2.1025,2.1025,2.1025,2.1025,2.1025,2.1025,2.1025,2.0924,2.0683,2.0332,1.9806,0.0,0.0,0.0,0.0,0.0,1.8378,1.763,1.6913,1.6472,1.6299,1.6395,1.5872,1.5295,1.5459,1.5396,1.5242,1.5181,1.5481,1.5779,1.5565,1.5802,1.6022,1.5947,1.579,1.5634,1.5634,1.534,1.4891,1.4521,1.4439,0.0,1.4089,1.4079,1.4243,1.453,1.3673,1.3098,1.3462,1.2806,1.2305,1.2305,1.2231,1.2224,1.2298,1.2231,0.0,0.0,0.0,1.2077,1.1855,1.1545,0.0,0.0,0.0,0.8542,0.8394,0.0,0.0,0.0,0.8237,0.8466,0.0,0.0,0.0,0.0,0.0,0.0,0.0,0.0,0.0,0.0,0.0,0.0,0.0,0.0,0.0,0.0,1.7954,1.8504,1.9201,1.877,1.8565,1.9356,1.943,1.9633,2.0186,2.038,2.051,2.0649,2.0659,2.0927,2.1621,0.0,0.0,0.0,0.0,2.1741,2.1741,2.1741,2.1741,2.1741,2.1741,2.1741,2.1741,2.1741,2.1741,2.1741,2.1741,2.1432,2.0911,2.0114,1.9485,1.9187,2.0108,2.0063,1.9408,1.8984,1.8355,1.7568,1.6988,0.0,0.0,1.5928,1.4947,1.3845,1.423,1.4288,1.4288,1.4288,1.4751,1.5374,1.5374,1.5351,1.5397,1.5397,1.5366,1.5335,1.5335,1.5335,1.5034,1.4336,1.418,1.3952,1.3286,1.3362,1.3719,1.4367,1.3278,1.2695,1.3352,1.2843,1.2405,1.2405,0.0,0.0,1.2277,1.2096,1.1929,1.1929,1.1929,1.1855,1.1706,1.0795,1.0276,1.0067,0.847,0.7557,0.733,0.6644,0.6338,0.6338,0.7936,0.8313,0.0,0.0,0.0,0.0,0.0,0.0,0.0,0.0,0.0,0.0,0.0,0.0,0.0,0.0,0.0,1.799,1.8605,1.9127,1.9283,1.9534,1.9815,2.0255,2.008,2.0159,2.0839,2.0666,2.0802,2.1386,2.1502,2.1548,2.1719,2.1621,2.1649,2.1741,2.1741,2.1741,2.1741,2.1741,2.1741,2.1741,0.0,0.0,2.1741,2.1741,2.1741,2.1741,2.1741,2.123,2.0416,2.0236,1.9653,1.8806,1.8401,1.8164,1.7897,1.7139,1.6862,1.6695,1.5943,1.5651,1.5595,1.5462,1.5028,1.4644,1.44,1.431,0.0,1.4158,1.4234,1.44,1.44,1.4621,1.4903,1.4903,1.4769,1.4562,1.4562,1.4038,1.3595,1.3437,1.3437,1.3358,1.3206,1.327,1.3345,1.3416,1.3189,1.3111,1.3267,1.3111,1.3039,1.3039,1.2672,1.2457,1.2457,1.1996,1.1706,1.1558,1.1484,1.1484,1.1484,1.0051,0.9226,0.9003,0.7407,0.6567,0.6567,0.6416,0.6338,0.6338,0.6644,0.6637,0.0,0.0,0.0,0.0,0.0,0.0,0.0,0.0,0.0,0.0,0.0,1.7578,0.0,0.0,1.8715,1.8715,1.9393,1.998,2.0173,2.0446,2.0607,2.0805,2.0494,2.0544,2.1286,2.1207,2.1371,2.2016,2.2043,2.2126,2.2337,2.2346,2.2346,2.2346,2.2346,2.2346,2.2346,2.2346,2.2346,2.2346,2.2135,2.2034,2.2025,2.1823,2.1741,2.1741,2.1741,2.1177,2.0249,1.9247,1.8234,1.7274,1.6861,1.701,1.7349,1.6825,1.6332,1.5958,1.5369,1.5232,1.528,1.5137,1.5008,1.4899,1.473,1.4502,1.4302,1.4302,1.4202,1.4088,1.4088,1.4309,1.4434,1.4434,1.4309,1.4191,1.4191,1.3879,1.3647,1.3647,1.3647,1.3647,1.3484,1.3477,1.3385,1.3094,1.3048,1.2969,1.2889,1.2883,1.2883,1.2883,1.2523,1.2361,1.2518,1.2018,1.1702,1.1626,1.1415,1.1037,1.0663,0.9453,0.8623,0.8093,0.6949,0.6257,0.6099,0.6099,0.6025,0.5948,0.5948,0.5944,0.0,0.0,0.0,0.0,0.0,0.0,0.0,0.0,1.6786,1.7252,1.7649,1.8031,1.8263,1.8944,1.9448,1.9522,2.0154,2.0741,2.1062,2.1172,2.1255,2.1222,2.0905,2.1031,2.1724,2.1924,2.2116,2.2548,2.2456,2.2593,2.2848,2.2857,2.2857,2.2857,2.2857,2.2857,2.2857,2.2857,2.2857,2.2857,2.2612,2.2354,2.2059,2.1744,2.1464,2.1203,2.0942,2.0447,1.9613,1.7777,1.6487,1.5832,1.5832,1.6298,1.7016,1.6742,1.6197,1.5444,1.5211,1.5137,1.5124,1.5064,1.505,1.5037,1.4983,1.4796,1.4603,1.4603,1.4396,1.4168,1.4168,1.4128,1.4088,1.4088,1.4088,1.4088,1.4088,1.4088,1.4088,1.4004,1.3997,1.3913,1.3652,1.3652,1.3497,1.3043,1.2978,1.2891,1.2724,1.2643,1.2643,1.2643,1.2432,1.2302,1.2406,1.2041,1.184,1.184,1.1312,1.0656,0.9975,0.8971,0.8121,0.7426,0.6652,0.6107,0.5943,0.5943,0.5868,0.5717,0.5638,0.5683,1.2635,1.249,1.2701,1.3425,1.3784,1.4148,0.0,0.0,1.5926,1.6749,1.7209,1.7804,1.8943,1.9549,1.9971,2.0328,2.075,2.1062,2.1099,2.1429,2.1589,2.1671,2.1608,2.1744,2.2154,2.2593,2.2747,2.2887,2.2793,2.2811,2.2857,2.2857,2.2857,2.2857,2.2857,2.2857,2.2857,2.2857,2.2857,2.2857,2.2811,2.2294,2.1423,2.138,2.0693,1.9413,1.8279,1.7692,1.7505,1.6386,1.592,1.5832,1.5832,1.5825,1.592,1.5974,1.5873,1.5772,1.5745,1.5732,1.5691,1.5431,1.5351,1.5297,1.5044,1.4943,1.4917,1.4917,1.4703,1.4476,1.4476,1.4282,1.4088,1.4088,1.4088,1.4088,1.4088,1.4088,1.4004,1.3822,1.3737,1.3652,1.3483,1.3398,1.3372,1.3315,1.3302,1.3302,1.3302,1.3302,1.3302,1.3302,1.2914,1.2425,1.2024,1.1896,1.1878,1.1878,1.1032,1.0445,1.0209,0.8585,0.7531,0.7208,0.648,0.5988,0.5988,0.5988,0.5988,0.5988,0.5747,0.5543,1.3098,1.2797,1.2784,0.0,1.3899,1.4209,1.4591,1.5242,1.596,1.6288,1.6805,1.7564,1.8722,1.892,1.9204,0.0,1.9866,1.974,1.974,2.0624,2.1204,2.1235,2.1896,2.2497,2.2619,2.3233,2.3541,2.3167,2.3176,2.3286,2.3639,2.3657,2.3657,2.3657,2.3657,2.3657,2.3657,2.3657,2.3657,2.3648,2.3409,2.2706,2.1607,2.1394,2.0624,1.9398,1.8118,1.7611,1.7501,1.6279,1.5832,1.5832,1.5832,1.5832,1.5832,1.5832,1.5832,1.5832,1.5832,1.5832,1.5805,1.5691,1.5651,1.5625,1.5504,1.5351,1.5217,1.5217,1.5003,1.4776,1.4776,1.4689,1.4596,1.4596,1.4376,1.4163,1.4163,1.3946,1.3652,1.3568,1.3568,1.3483,1.3228,1.3228,1.3137,1.3052,1.3137,1.3137,1.3045,1.2966,1.2966,1.2966,1.2777,1.2583,1.2224,1.2075,1.1904,1.1735,1.0686,0.9872,0.9308,0.8078,0.7098,0.6523,0.6197,0.5951,0.5788,0.5788,0.5788,0.5618,0.5538,0.5482,1.334,1.3086,0.0,1.3467,1.3853,1.408,1.408,1.4874,1.5746,1.599,1.6445,1.7219,1.8277,1.8289,1.849,1.9304,1.9084,1.8827,1.8915,1.9808,2.0533,2.0769,2.2082,2.2521,2.1497,2.254,2.3229,2.3073,2.2966,2.3296,2.4134,2.4152,2.4152,2.4152,2.4152,2.4152,2.4152,2.4152,2.4152,2.4152,2.3555,2.2707,2.1586,2.063,1.9783,1.8973,1.7981,1.7412,1.7312,1.6327,1.5905,1.5832,1.5832,1.5832,1.5832,1.5832,1.5832,1.5832,1.5832,1.5832,1.5832,1.5832,1.5832,1.5832,1.5832,1.5678,1.5518,1.5518,1.5304,1.5084,1.5084,1.5023,1.4963,1.4867,1.4619,1.4285,1.4203,1.3867,1.3627,1.354,1.3477,1.3341,1.3169,1.3022,1.2875,1.2705,1.279,1.2881,1.2705,1.2619,1.2619,1.2619,1.2534,1.2454,1.2283,1.2114,1.1836,1.1321,1.0231,0.9229,0.8313,0.7396,0.6561,0.5893,0.5893,0.5811,0.5729,0.5729,0.5642,0.5469,0.5469,0.5469,1.2864,0.0,1.2876,1.2956,1.3253,1.3546,1.3382,1.399,1.4829,1.5669,1.6104,1.6699,1.8006,1.8182,1.83,1.8724,1.8788,1.8907,1.9146,1.9202,1.9582,2.0536,2.1936,2.157,0.0,1.9755,2.1371,2.2409,2.2248,2.265,2.4152,2.4152,2.4152,2.4152,2.4152,2.4152,2.4152,2.4152,2.4152,2.4152,2.302,2.1996,2.0861,1.838,1.734,1.7224,1.6921,1.6632,1.637,1.6266,1.6086,1.5832,1.5832,1.5832,1.5832,1.5832,1.5832,1.5832,1.5832,1.5832,1.5832,1.5832,1.5832,1.5832,1.5832,1.5818,1.5812,1.5812,1.5605,1.5384,1.5384,1.517,1.4963,1.4681,1.4584,1.4495,1.4237,1.4231,1.4134,1.3954,1.3634,1.3448,1.3109,1.2886,1.2705,1.2705,1.2534,1.2448,1.2705,1.2534,1.2448,1.2448,1.2203,1.2043,1.2037,1.2032,1.1585,1.0692,0.9735,0.8694,0.7562,0.6599,0.5985,0.5722,0.5722,0.5722,0.5722,0.5722,0.5722,0.5722,0.5722,0.5722,1.2619,0.0,1.3007,1.3089,1.3612,1.4051,1.4051,1.4442,1.4898,1.5246,1.548,1.6084,1.7168,1.6912,1.6915,1.7677,1.7225,1.6956,1.7277,1.7865,1.855,1.9119,1.9865,0.0,0.0,0.0,0.0,1.9219,2.0523,2.2148,2.4063,2.4172,2.4208,2.4161,2.4152,2.4152,2.4152,2.4152,2.3845,2.3038,2.1183,2.0158,1.9746,1.8199,1.7442,1.7422,1.7128,1.6941,1.6827,1.6433,1.6213,1.6106,1.5905,1.5832,1.5832,1.5832,1.5832,1.5832,1.5832,1.5832,1.5832,1.5832,1.5832,1.5832,1.5832,1.5832,1.5832,1.5832,1.5758,1.5591,1.549,1.5424,1.5258,1.4984,1.4651,1.4425,1.4247,1.4012,1.3701,1.361,1.3531,1.3464,1.3381,1.3302,1.3153,1.2969,1.2673,1.2363,1.2289,1.2209,1.2118,1.2118,1.2037,1.1957,1.1785,1.1785,1.1343,1.0197,0.924,0.8277,0.7316,0.6349,0.5822,0.5733,0.5733,0.5733,0.5733,0.5733,0.5733,0.5733,0.5733,0.5644,1.2588,1.2909,1.3067,1.3336,1.3722,1.4106,1.4216,1.4635,1.502,1.502,1.5259,1.5731,1.6359,1.6161,1.6015,1.6574,1.6204,1.5843,1.6149,1.681,1.7396,1.7721,1.8033,1.8108,0.0,0.0,0.0,1.8135,1.9089,2.1051,2.4077,2.4197,2.3859,2.3046,2.3827,2.4026,2.3646,2.3546,2.2828,2.1285,1.9842,1.902,1.861,1.7891,1.7582,1.7569,1.7382,1.7248,1.7121,1.674,1.646,1.6253,1.6059,1.5925,1.5832,1.5832,1.5832,1.5832,1.5832,1.5832,1.5832,1.5832,1.5832,1.5832,1.5832,1.5832,1.5832,1.5832,1.5832,1.5737,1.554,1.554,1.5452,1.5077,1.4652,1.4434,1.4333,1.4011,1.3797,1.3797,1.3719,1.3652,1.3561,1.33,1.3144,1.2871,1.2589,1.2348,1.2186,1.2014,1.1871,1.1871,1.1785,1.1699,1.1613,1.1262,1.0559,0.9506,0.8544,0.758,0.6612,0.5997,0.5733,0.5733,0.5733,0.5733,0.5733,0.5733,0.5733,0.5733,0.5644,0.5552,1.2723,1.3064,1.3138,1.3392,1.3655,1.3837,1.3935,1.4472,1.5034,1.5034,1.5444,1.5737,0.0,0.0,1.5737,1.554,1.5642,1.5754,1.5882,1.6056,1.6341,0.0,0.0,0.0,0.0,0.0,0.0,1.8869,0.0,1.9361,2.3589,2.3829,2.2826,2.0814,2.2816,2.3432,2.2426,2.2316,2.1293,1.9228,1.9124,1.861,1.7582,1.7582,1.7582,1.7582,1.7582,1.7428,1.7174,1.7257,1.682,1.6313,1.6286,1.6099,1.5852,1.5838,1.5832,1.5832,1.5832,1.5832,1.5832,1.5832,1.5832,1.5832,1.5832,1.5832,1.5832,1.5832,1.5825,1.573,1.554,1.5445,1.535,1.4783,1.4694,1.4592,1.4394,1.4298,1.4298,1.4298,1.4099,1.383,1.3549,1.3061,1.2631,1.2448,1.2437,1.2433,1.2371,1.1964,1.1738,1.1738,1.1473,1.1381,1.1283,1.0487,0.9519,0.8544,0.7577,0.67,0.5733,0.5733,0.5733,0.5733,0.5733,0.5733,0.5733,0.5733,0.5644,0.5644,0.5468,0.5382,1.2687,1.2948,1.3118,1.3442,1.386,1.4191,1.4358,1.4771,1.5063,1.5063,1.5305,1.554,0.0,0.0,0.0,1.5757,1.5573,0.0,1.5784,1.5625,0.0,0.0,0.0,1.608,1.6004,1.6299,0.0,0.0,1.7035,1.7417,1.7956,1.8054,1.8358,1.917,1.9721,2.0279,2.0955,2.0349,1.9738,1.9228,1.8401,1.7891,1.7582,1.7582,1.7582,1.7582,1.7582,1.7542,1.7455,1.7241,1.7061,1.6881,1.6446,1.6226,1.6132,1.5912,1.5832,1.5832,1.5832,1.5832,1.5832,1.5832,1.5832,1.5832,1.5832,1.5832,1.5832,1.5832,1.5737,1.5547,1.5267,1.5077,1.4783,1.449,1.4394,1.4394,1.4298,1.4298,1.4298,1.4298,1.4058,1.3927,1.3831,1.3486,1.325,1.2958,1.2808,1.2609,1.2263,1.2089,1.1961,1.1961,1.1961,1.1801,1.1628,1.0711,0.9748,0.8552,0.7577,0.67,0.5733,0.5733,0.5733,0.5733,0.5733,0.5733,0.5733,0.5552,0.5463,0.5466,0.5275,0.5132,1.2443,1.291,1.3151,1.3438,1.378,1.4222,1.4434,1.4584,1.471,1.471,1.4978,0.0,0.0,0.0,0.0,0.0,0.0,0.0,1.5105,1.5134,1.534,0.0,1.5996,0.0,1.5891,1.6092,1.6193,0.0,1.6311,1.6368,1.5927,1.5921,1.6466,1.7671,1.8289,1.8933,1.9517,1.9109,1.8603,1.808,1.7687,1.7378,1.7378,1.7589,1.7582,1.7582,0.0,1.7582,1.7569,1.7408,1.7268,1.7108,1.6647,1.6386,1.6239,1.5939,1.5832,1.5832,1.5832,1.5832,1.5832,1.5832,1.5832,1.5832,1.5832,1.573,1.5635,1.5635,1.5547,1.5261,1.4981,1.479,1.4592,1.4394,1.4298,1.4298,1.4298,1.4298,1.4298,1.4112,1.3925,1.3738,1.3539,1.3346,1.3152,1.2958,1.2844,1.2713,1.2476,1.227,1.214,1.214,1.214,1.1807,1.1227,1.0299,0.9245,0.8148,0.7151,0.643,0.5888,0.5888,0.5888,0.5888,0.5799,0.5707,0.5707,0.543,0.5336,0.5336,0.5118,0.4957,1.1918,1.2557,1.2815,1.3129,1.3475,1.3725,1.4141,1.4209,1.4235,1.4235,0.0,1.4411,1.4321,1.4715,1.4896,1.4477,0.0,1.4848,1.4388,1.4727,1.5184,1.5783,1.5916,1.5891,1.5891,1.5891,1.5891,1.5891,1.5873,1.5861,1.5861,1.5861,1.6092,1.6449,1.7694,1.8199,1.808,1.8185,1.7667,1.673,1.6955,1.7173,1.7173,1.7371,1.7477,1.7477,1.7477,0.0,1.7589,1.7582,1.7435,1.7174,1.684,1.6553,1.6293,1.5952,1.5832,1.5832,1.5832,1.5737,1.573,1.5825,1.5737,1.573,1.573,1.5642,1.5452,1.5452,1.5267,1.4987,1.4783,1.4688,1.4592,1.4394,1.4298,1.4298,1.4298,1.4298,1.4202,1.3931,1.3642,1.3443,1.3147,1.2958,1.2764,1.2764,1.2764,1.2764,1.2764,1.2398,1.2145,1.2047,1.2047,1.1662,1.052,0.9579,0.8539,0.7486,0.6552,0.6086,0.6086,0.6086,0.6086,0.6086,0.5805,0.5618,0.5618,0.5424,0.5232,0.5232,0.4959,0.4871,1.0269,1.0612,1.0975,1.182,1.2185,1.2654,1.3451,1.3616,0.0,0.0,1.3822,1.3973,1.3973,1.4016,0.0,1.4875,0.0,0.0,0.0,0.0,1.4767,0.0,0.0,0.0,0.0,0.0,0.0,0.0,0.0,1.5885,1.5885,1.5885,1.5885,1.5998,1.6424,1.6743,1.663,1.6836,1.6942,1.673,1.6736,1.6842,1.6842,1.6836,1.6836,1.6836,1.7166,0.0,1.7279,1.7483,1.7555,1.7455,1.6914,1.6673,1.6567,1.6025,1.5832,1.5832,1.5832,1.5737,1.554,1.5737,1.5737,1.554,1.554,1.5356,1.5178,1.5178,1.4981,1.479,1.4694,1.4496,1.4394,1.4298,1.4298,1.4298,1.4298,1.4298,1.4208,1.3636,1.3539,1.3443,1.3147,1.2958,1.2764,1.2764,1.2764,1.2764,1.2764,1.2689,1.2544,1.2057,1.2057,1.1399,0.988,0.9104,0.8284,0.7218,0.6461,0.6086,0.6086,0.59,0.5808,0.5808,0.5519,0.5329,0.5329,0.5135,0.4946,0.4948,0.4839,0.4781,0.9749,1.0083,1.0428,1.0875,1.1126,1.166,1.258,0.0,0.0,0.0,1.3377,1.3454,1.3273,0.0,0.0,0.0,0.0,0.0,0.0,0.0,0.0,0.0,0.0,0.0,0.0,0.0,0.0,0.0,0.0,1.5891,1.5891,1.5891,1.5891,1.5891,1.5998,1.6105,1.6105,1.6205,1.6311,1.6311,1.6418,1.653,1.653,1.663,1.673,1.673,1.6849,0.0,1.6955,1.7054,1.716,1.7114,1.669,1.6436,1.6253,1.5934,1.5684,1.5458,1.5642,1.5452,1.5267,1.5363,1.5363,1.5356,1.5445,1.5261,1.4885,1.4885,1.4688,1.4394,1.3806,1.3607,1.3318,1.2829,1.2732,1.3022,1.41,1.3811,1.3227,1.284,1.3044,1.305,1.2257,1.2462,1.2764,1.2764,1.2764,1.2565,1.2063,1.1868,1.1775,1.1975,1.198,1.1146,0.919,0.8694,0.7882,0.6363,0.5974,0.5879,0.5879,0.5684,0.5686,0.5686,0.5394,0.5296,0.5198,0.4999,0.4803,0.4803,0.4753,0.4773,0.9131,0.9433,0.9647,0.9826,1.003,1.0515,1.161,1.1693,0.0,0.0,1.2918,1.28,1.2542,0.0,0.0,0.0,0.0,0.0,0.0,0.0,0.0,0.0,0.0,0.0,0.0,0.0,0.0,0.0,0.0,0.0,1.5891,1.5891,1.5891,1.5891,1.5891,1.5891,1.5891,1.5891,1.5891,1.5891,1.6111,1.6217,1.6217,1.6418,1.6518,1.6518,1.663,0.0,0.0,1.673,1.673,1.6704,1.6425,1.6151,1.5878,1.5802,1.5519,1.5178,1.5356,1.5267,1.4987,1.5083,1.5083,1.5077,1.5261,1.4873,1.4298,1.4298,1.4004,1.3414,1.2635,1.2339,1.2145,1.1365,1.117,1.1658,1.3221,1.2732,1.1955,1.1658,1.2058,1.2063,1.1077,1.157,1.2073,1.2073,1.2073,1.177,1.0877,1.0578,1.0583,1.1086,1.1184,1.0293,0.8117,0.7918,0.7226,0.5636,0.5536,0.5636,0.5636,0.5536,0.5536,0.5536,0.5238,0.514,0.514,0.4937,0.4834,0.4834,0.4834,0.4834,0.7278,0.7411,0.7598,0.848,0.8668,0.9121,1.0639,0.0,0.0,1.2134,1.2322,1.2258,1.1999,1.2204,0.0,0.0,0.0,1.3537,0.0,0.0,0.0,0.0,0.0,0.0,0.0,0.0,0.0,0.0,0.0,0.0,1.5891,1.5891,1.5891,1.5891,1.5891,1.5891,1.5891,1.5891,1.5891,1.5891,1.5891,1.5891,1.5891,1.5998,1.5992,1.5998,1.6217,0.0,0.0,1.663,1.673,1.6704,1.6425,1.6151,1.5871,1.5598,1.5325,1.5083,1.5083,1.4981,1.479,1.4987,1.4981,1.479,1.479,1.3902,1.2926,1.2926,1.2242,1.1463,1.1365,1.1365,1.1268,1.1268,1.117,1.117,1.117,1.1072,1.0779,1.0293,1.0194,1.0194,0.9805,0.9805,0.9903,0.9903,0.9903,0.9801,0.9395,0.9395,0.9103,0.8418,0.8319,0.7822,0.6339,0.6437,0.6237,0.534,0.5436,0.5636,0.5636,0.5338,0.524,0.524,0.4937,0.4834,0.4834,0.4834,0.4834,0.4834,0.4834,0.4834,0.7021,0.7075,0.7228,0.7577,0.7665,0.8078,0.97,0.0,0.9843,1.1647,1.1607,1.1439,1.184,1.2137,1.2343,1.2451,1.2961,0.0,0.0,0.0,0.0,0.0,0.0,0.0,0.0,0.0,0.0,0.0,0.0,0.0,1.5891,1.5891,1.5891,1.5891,1.5891,1.5891,1.5891,1.5891,1.5891,1.5891,1.5891,1.5891,1.5891,1.5891,1.5891,1.5891,1.5998,0.0,0.0,1.6205,1.6205,1.6193,1.6088,1.5786,1.5392,1.5482,1.5158,1.4688,1.479,1.4688,1.4496,1.4592,1.4592,1.449,1.4688,1.3806,1.2727,1.2727,1.195,1.1072,1.0391,0.9805,0.941,1.0096,0.9608,0.941,1.0779,1.0194,0.9312,0.9304,0.9505,0.9509,0.8814,0.9209,0.9608,0.9608,0.9608,0.9308,0.8319,0.8113,0.7518,0.6434,0.7329,0.7428,0.6142,0.6142,0.5839,0.5037,0.5035,0.5135,0.5135,0.5037,0.4937,0.4937,0.4834,0.4834,0.4834,0.4834,0.4834,0.4834,0.4834,0.4834,0.6875,0.6936,0.7021,0.7065,0.7044,0.7249,0.0,0.0,0.8826,1.0798,1.0778,1.0644,1.1522,1.1962,1.2198,1.2198,1.294,1.3513,1.3513,0.0,0.0,0.0,0.0,0.0,0.0,0.0,0.0,0.0,0.0,0.0,1.5891,1.5891,1.5891,1.5891,1.5891,1.5891,1.5891,1.5891,1.5891,1.5891,1.5891,1.5891,1.5891,1.5891,1.5891,1.5891,1.5891,0.0,0.0,1.5891,1.5891,1.5885,1.5807,1.5499,1.5095,1.5212,1.4887,1.4298,1.4496,1.449,1.4298,1.4298,1.4298,1.4298,1.41,1.3221,1.2145,1.1853,1.1072,1.0096,0.9312,0.8531,0.8237,0.892,0.8333,0.8038,0.9805,0.9015,0.8031,0.8219,0.8418,0.8418,0.7624,0.812,0.8616,0.8616,0.8616,0.8219,0.7129,0.6828,0.6331,0.5238,0.6232,0.6631,0.5739,0.5639,0.5438,0.4834,0.4834,0.4834,0.4834,0.4834,0.4834,0.4834,0.4834,0.4834,0.4834,0.4834,0.4834,0.4834,0.4834,0.4734,0.6661,0.6705,0.6742,0.6895,0.6817,0.6742,0.0,0.7522,0.848,0.935,0.9545,0.9825,1.0893,1.1564,1.1926,1.1926,1.2819,1.3513,1.3513,0.0,0.0,0.0,0.0,0.0,0.0,0.0,0.0,0.0,0.0,0.0,1.5891,1.5891,1.5891,1.5891,1.5891,1.5891,1.5891,1.5891,1.5891,1.5891,1.5891,1.5891,1.5891,1.5891,1.5891,0.0,0.0,0.0,0.0,1.5891,1.5891,1.5861,1.5602,1.5342,1.5077,1.4817,1.4539,1.4298,1.4298,1.4298,1.4298,1.4298,1.4298,1.41,1.3022,1.2047,1.0974,0.9899,0.8821,0.8038,0.8041,0.8038,0.8038,0.8041,0.7842,0.7646,0.7646,0.7244,0.6845,0.6845,0.6639,0.6434,0.6437,0.6437,0.6434,0.6434,0.6434,0.6237,0.5737,0.5636,0.5434,0.4834,0.4834,0.4834,0.4834,0.4834,0.4834,0.4834,0.4834,0.4834,0.4834,0.4834,0.4834,0.4834,0.4834,0.4834,0.4834,0.4834,0.4834,0.4834,0.4834,0.4535,0.6559,0.662,0.6712,0.6759,0.6736,0.685,0.7275,0.7185,0.7395,0.8676,0.8975,0.9226,1.0137,1.1169,1.192,1.192,1.2819,1.3513,0.0,0.0,0.0,0.0,0.0,0.0,0.0,0.0,0.0,0.0,0.0,0.0,1.5891,1.5891,1.5891,1.5891,1.5891,1.5891,1.5891,1.5891,1.5891,1.5891,1.5891,1.5891,1.5891,1.5891,1.5891,0.0,0.0,0.0,0.0,1.5891,1.5891,1.5861,1.5602,1.5342,1.5077,1.4817,1.4539,1.4298,1.4298,1.4298,1.4298,1.4298,1.4298,1.4004,1.2247,1.1463,1.0779,0.9019,0.8233,0.8038,0.8038,0.8038,0.7939,0.7743,0.754,0.7341,0.7341,0.6939,0.6539,0.6742,0.6539,0.6437,0.6437,0.6437,0.6437,0.6437,0.6239,0.6039,0.5636,0.5438,0.5238,0.4834,0.4834,0.4834,0.4834,0.4834,0.4834,0.4834,0.4834,0.4834,0.4834,0.4834,0.4834,0.4834,0.4834,0.4834,0.4834,0.4834,0.4634,0.4234,0.4234,0.3729,0.0,0.6461,0.6549,0.66,0.6573,0.0,0.0,0.6824,0.6756,0.7961,0.847,0.8932,0.9771,1.1013,1.192,1.192,1.2819,0.0,0.0,0.0,0.0,0.0,0.0,0.0,0.0,0.0,0.0,0.0,0.0,0.0,1.5891,1.5891,1.5891,1.5891,1.5891,1.5891,1.5891,1.5891,1.5891,1.5891,1.5891,1.5891,1.5891,1.5891,1.5891,0.0,0.0,0.0,0.0,1.5891,1.5891,1.5855,1.5493,1.5252,1.5065,1.4696,1.4449,1.4298,1.4298,1.4298,1.4202,1.3806,1.3125,1.2247,1.0974,1.0293,0.9706,0.8333,0.8038,0.8038,0.8038,0.8038,0.7942,0.7646,0.7441,0.7138,0.7039,0.6736,0.6437,0.6639,0.6539,0.6437,0.6437,0.6437,0.6437,0.6437,0.6139,0.5939,0.5636,0.5338,0.514,0.4834,0.4834,0.4834,0.4834,0.4834,0.4834,0.4834,0.4834,0.4834,0.4834,0.4834,0.4834,0.4834,0.4834,0.4834,0.4834,0.4634,0.4334,0.4033,0.363,0.2924,0.0,0.6338,0.6291,0.0,0.0,0.0,0.6427,0.6356,0.0,0.7253,0.8093,0.8937,0.9711,1.0947,1.1932,1.1968,1.2843,0.0,0.0,0.0,0.0,0.0,0.0,0.0,0.0,0.0,0.0,0.0,0.0,0.0,1.5891,1.5891,1.5891,1.5891,1.5891,1.5891,1.5891,1.5891,1.5891,1.5891,1.5891,1.5891,1.5891,1.5891,1.5891,0.0,0.0,0.0,0.0,1.5891,1.5891,1.5837,1.5312,1.5107,1.504,1.4497,1.4298,1.4298,1.4298,1.4292,1.4004,1.2926,1.1268,0.9608,0.9608,0.8825,0.8038,0.8038,0.8038,0.8038,0.8038,0.7939,0.7942,0.7646,0.7341,0.7138,0.6842,0.6539,0.6437,0.6437,0.6437,0.6437,0.6437,0.6437,0.6437,0.6437,0.6139,0.5839,0.5636,0.5338,0.5037,0.4834,0.4834,0.4834,0.4834,0.4834,0.4834,0.4834,0.4834,0.4834,0.4834,0.4834,0.4834,0.4834,0.4834,0.4734,0.4734,0.4234,0.3932,0.3831,0.2823,0.1916,0.6338,0.0,0.6271,0.6302,0.6285,0.6271,0.0,0.6285,0.6338,0.6567,0.0,0.8823,0.9218,1.0739,1.2053,1.2457,1.3079,0.0,0.0,0.0,0.0,0.0,0.0,0.0,0.0,0.0,0.0,0.0,0.0,1.5891,1.5891,1.5891,1.5891,1.5891,1.5891,1.5891,1.5891,1.5891,1.5891,1.5891,1.5891,1.5891,1.5891,1.5891,1.5891,0.0,0.0,0.0,1.5891,1.5891,1.5891,1.5837,1.5312,1.5107,1.504,1.4497,1.4298,1.4298,1.4298,1.3806,1.2926,1.1853,1.0681,0.9608,0.9608,0.8825,0.8038,0.8038,0.8038,0.8038,0.8038,0.7842,0.7643,0.7341,0.7042,0.6842,0.6539,0.6437,0.6437,0.6437,0.6437,0.6437,0.6437,0.6437,0.6437,0.6437,0.6037,0.5636,0.5636,0.5236,0.4834,0.4834,0.4834,0.4834,0.4834,0.4834,0.4834,0.4834,0.4834,0.4834,0.4834,0.4834,0.4834,0.4834,0.4834,0.4634,0.4234,0.4033,0.353,0.2724,0.1916,0.1211,0.6338,0.6338,0.6338,0.6338,0.6338,0.6338,0.6338,0.0,0.0,0.0,0.0,0.8951,0.9066,1.039,0.0,0.0,0.0,0.0,0.0,0.0,0.0,0.0,0.0,0.0,0.0,0.0,0.0,0.0,0.0,1.5684,1.5464,1.5464,1.5464,1.5464,1.5464,1.5571,1.5891,1.5891,1.5891,1.5891,1.5891,1.5891,1.5891,1.5891,1.5891,0.0,0.0,0.0,1.5891,1.5891,1.5891,1.5837,1.5312,1.5107,1.504,1.4497,1.4298,1.4298,1.4298,1.3318,1.1853,1.0779,0.9702,0.8821,0.8821,0.8432,0.8038,0.8038,0.8038,0.8038,0.8038,0.7842,0.7543,0.7238,0.7042,0.6742,0.6437,0.6437,0.6437,0.6437,0.6437,0.6437,0.6437,0.6437,0.6437,0.6437,0.5937,0.5636,0.5636,0.5135,0.4834,0.4834,0.4834,0.4834,0.4834,0.4834,0.4834,0.4834,0.4834,0.4834,0.4834,0.4834,0.4834,0.4834,0.4834,0.4533,0.4033,0.3732,0.3025,0.1815,0.111,0.0304,0.6254,0.6261,0.6261,0.6261,0.6338,0.6338,0.6338,0.0,0.0,0.0,0.0,0.0,0.0,0.0,0.0,0.0,0.0,0.0,0.0,0.0,0.0,0.0,0.0,0.0,0.0,0.0,0.0,0.0,0.0,1.5261,1.5041,1.5041,1.4928,1.4713,1.4713,1.4922,1.5232,1.5565,1.5785,1.5891,1.5672,1.5565,1.5672,1.5452,1.5345,1.5345,0.0,0.0,1.5559,1.5779,1.5891,1.5837,1.51,1.4898,1.4731,1.4101,1.3806,1.3806,1.3613,1.2441,1.0783,0.9702,0.8726,0.8038,0.8038,0.8038,0.8038,0.8038,0.8038,0.8038,0.7939,0.7743,0.7444,0.7238,0.6942,0.6642,0.6437,0.6437,0.6437,0.6437,0.6437,0.6437,0.6437,0.6437,0.6437,0.6437,0.5937,0.5636,0.5636,0.5135,0.4834,0.4834,0.4834,0.4834,0.4834,0.4834,0.4834,0.4834,0.4834,0.4834,0.4834,0.4834,0.4834,0.4834,0.4734,0.4435,0.3833,0.3229,0.222,0.1109,0.0304,-0.0716,0.6227,0.6103,0.6022,0.6257,0.6338,0.6338,0.6338,0.0,0.0,0.0,0.0,0.0,0.0,0.0,0.0,0.0,0.0,0.0,0.0,0.0,0.0,0.0,0.0,0.0,0.0,0.0,0.0,0.0,0.0,1.5041,1.5041,1.5041,1.46,1.3619,1.3511,1.3063,1.2172,1.4153,1.5256,1.5589,1.4493,1.4164,1.4379,1.3181,1.2635,1.263,0.0,1.403,1.4137,1.5345,1.5891,1.5731,1.4263,1.376,1.3598,1.2216,1.1658,1.156,1.0685,1.0096,0.9706,0.8627,0.8137,0.8038,0.8038,0.8038,0.8038,0.8038,0.8038,0.7939,0.7743,0.7441,0.7238,0.6942,0.6639,0.6437,0.6437,0.6437,0.6437,0.6437,0.6437,0.6437,0.6437,0.6437,0.6437,0.6437,0.5937,0.5636,0.5636,0.5135,0.4834,0.4834,0.4834,0.4834,0.4834,0.4834,0.4834,0.4834,0.4834,0.4834,0.4834,0.4834,0.4834,0.4834,0.4334,0.3833,0.3331,0.2117,0.1211,0.0505,-0.1025,-0.1862,0.6217,0.618,0.6099,0.6099,0.6099,0.6099,0.0,0.0,0.0,0.0,0.0,0.0,0.0,0.0,0.0,0.0,0.0,0.0,0.0,0.0,0.0,0.0,0.0,0.0,0.0,0.0,0.0,0.0,0.0,0.0,1.4617,1.4617,1.4067,1.2852,1.2852,1.2304,1.1097,1.2087,1.2847,1.3383,1.2729,1.262,1.2733,1.2077,1.1751,1.1746,0.0,1.2502,1.2611,1.3259,1.348,1.3439,1.2685,1.2309,1.204,1.1227,1.0974,1.0881,0.9899,0.9509,0.9217,0.8333,0.7942,0.7842,0.7939,0.7942,0.7842,0.7942,0.7942,0.7743,0.7646,0.7244,0.6942,0.6842,0.6639,0.6437,0.6437,0.6437,0.6437,0.6437,0.6437,0.6437,0.6437,0.6437,0.6437,0.6437,0.5937,0.5636,0.5636,0.5135,0.4834,0.4834,0.4834,0.4834,0.4834,0.4834,0.4834,0.4834,0.4834,0.4834,0.4834,0.4834,0.4834,0.4834,0.4234,0.3528,0.2519,0.1629,0.0409,-0.0922,-0.1774,-0.2432,0.621,0.6261,0.618,0.5941,0.5941,0.0,0.0,0.0,0.0,0.0,0.0,0.0,0.0,0.0,0.0,0.0,0.0,0.0,0.0,0.0,0.0,0.0,0.0,0.0,0.0,0.0,0.0,0.0,0.0,0.0,1.3748,1.3532,1.2866,1.1651,1.1542,1.0996,0.9904,0.9904,1.0445,1.1415,1.1088,1.1088,1.1088,1.0761,1.0542,1.0651,1.0866,1.0975,1.0975,1.1411,1.1494,1.1423,1.1094,1.0591,1.0067,0.9995,0.9993,0.9895,0.9209,0.8916,0.8623,0.8035,0.7643,0.7543,0.7739,0.7743,0.7646,0.7739,0.7643,0.7543,0.7543,0.7144,0.6745,0.6742,0.6539,0.6437,0.6437,0.6437,0.6437,0.6437,0.6437,0.6437,0.6437,0.6437,0.6437,0.6437,0.6037,0.5636,0.5636,0.5236,0.4834,0.4834,0.4834,0.4834,0.4834,0.4834,0.4834,0.4834,0.4834,0.4834,0.4834,0.4834,0.4634,0.4431,0.3828,0.2928,0.1622,0.072,-0.0519,-0.2088,-0.2338,-0.2914,0.6179,0.6099,0.5941,0.5941,0.6099,0.0,0.5867,0.5984,0.0,0.7403,0.0,0.0,0.0,0.0,0.0,0.0,0.0,0.0,0.0,0.0,0.0,0.0,0.0,0.0,0.0,0.0,0.0,0.0,0.0,0.0,1.2417,1.1546,1.0453,0.914,0.914,0.8589,0.7485,0.7485,0.8692,1.1105,1.0014,0.9688,0.9904,0.8484,0.7937,0.7934,0.9016,0.9449,0.9559,1.0975,1.1419,1.1248,0.9991,0.8706,0.7459,0.7441,0.7434,0.7434,0.7434,0.7335,0.7335,0.7238,0.7238,0.7238,0.7238,0.7441,0.7547,0.7338,0.7238,0.7238,0.7238,0.7042,0.6742,0.6537,0.6437,0.6437,0.6437,0.6437,0.6437,0.6437,0.6437,0.6437,0.6437,0.6437,0.6437,0.6437,0.6139,0.5839,0.5636,0.5338,0.5037,0.4834,0.4834,0.4834,0.4834,0.4834,0.4834,0.4834,0.4834,0.4834,0.4834,0.4834,0.4331,0.3324,0.2517,0.1625,0.0414,-0.1139,-0.1988,-0.2234,-0.303,-0.3492,0.6179,0.6099,0.5864,0.5712,0.6397,0.0,0.0,0.6286,0.7108,0.807,0.7918,0.0,0.0,0.0,0.0,0.0,0.0,0.0,0.0,0.0,0.0,0.0,0.0,0.0,0.0,0.0,0.0,0.0,0.0,0.0,1.1324,1.0887,1.0123,0.892,0.892,0.8371,0.7265,0.7154,0.7706,0.8692,0.8257,0.8039,0.8146,0.7598,0.7379,0.7379,0.7814,0.8029,0.8029,0.8575,0.8712,0.8562,0.7906,0.7397,0.6942,0.6942,0.6942,0.6942,0.7138,0.7138,0.6942,0.7138,0.7039,0.6942,0.7138,0.7141,0.7144,0.7138,0.6936,0.6736,0.6939,0.6739,0.6539,0.6437,0.6437,0.6437,0.6437,0.6437,0.6437,0.6437,0.6437,0.6437,0.6437,0.6437,0.6437,0.6437,0.6037,0.5737,0.5636,0.5236,0.4937,0.4834,0.4834,0.4834,0.4834,0.4834,0.4834,0.4834,0.4834,0.4531,0.3827,0.3827,0.3341,0.2253,0.1332,0.0517,-0.0421,-0.1599,-0.2474,-0.3032,-0.3415,-0.3553,0.6023,0.6022,0.5786,0.5556,0.0,0.0,0.5731,0.6482,0.7432,0.7741,0.0,0.0,0.0,0.0,0.0,0.0,0.0,0.0,0.0,0.0,0.0,0.0,0.0,0.0,0.0,0.0,0.0,0.0,0.0,0.0,0.0,0.9794,0.9247,0.8371,0.8367,0.8039,0.7154,0.7154,0.7154,0.7154,0.7154,0.7154,0.7154,0.7154,0.7154,0.7154,0.7154,0.7154,0.7152,0.7116,0.701,0.685,0.6641,0.6614,0.6642,0.6642,0.6642,0.6739,0.6839,0.6839,0.6739,0.6839,0.6839,0.6739,0.6939,0.6839,0.6842,0.6939,0.6736,0.6534,0.6639,0.6539,0.6437,0.6437,0.6437,0.6437,0.6437,0.6437,0.6437,0.6437,0.6437,0.6437,0.6437,0.6437,0.6437,0.6437,0.6037,0.5737,0.5636,0.5236,0.4935,0.4834,0.4834,0.4834,0.4834,0.4834,0.4645,0.4266,0.4268,0.3962,0.3252,0.2845,0.2151,0.0939,0.0313,-0.0527,-0.1608,-0.2282,-0.296,-0.3526,-0.3568,-0.3587,0.5864,0.5789,0.5559,0.0,0.0,0.0,0.5702,0.6551,0.7297,0.5974,0.0,0.0,0.0,0.0,0.0,0.0,0.0,0.0,0.0,0.0,0.0,0.0,0.0,0.0,0.0,0.0,0.0,0.0,0.0,0.0,0.0,0.7817,0.7154,0.7154,0.7154,0.7154,0.7154,0.7154,0.7154,0.7154,0.7154,0.7154,0.7154,0.7154,0.7154,0.7154,0.7154,0.7154,0.7146,0.7029,0.6839,0.6605,0.6483,0.6437,0.6437,0.6437,0.6437,0.6437,0.6437,0.6437,0.6437,0.6437,0.6437,0.6437,0.6437,0.6539,0.6742,0.6437,0.6634,0.6731,0.6434,0.6437,0.6437,0.6437,0.6437,0.6437,0.6437,0.6437,0.6437,0.6437,0.6437,0.6437,0.6437,0.6437,0.6437,0.6437,0.6139,0.5939,0.5636,0.5338,0.514,0.4834,0.4836,0.4834,0.4834,0.4736,0.4367,0.3207,0.3211,0.3211,0.3211,0.2174,0.094,-0.0532,-0.0744,-0.161,-0.3066,-0.339,-0.3529,-0.3587,-0.3587,-0.3587,0.6699,0.6247,0.0,0.0,0.0,0.0,0.0,0.7905,0.0,0.0,0.0,0.0,0.0,0.0,0.0,0.0,0.0,0.0,0.0,0.0,0.0,0.0,0.0,0.0,0.0,0.0,0.0,0.0,0.0,0.0,0.0,0.7376,0.7154,0.7154,0.7154,0.7154,0.7154,0.7154,0.7154,0.7154,0.7154,0.7154,0.7154,0.7154,0.7154,0.7154,0.7154,0.7154,0.7138,0.694,0.6763,0.6605,0.6483,0.6437,0.6437,0.6437,0.6437,0.6437,0.6437,0.6437,0.6437,0.6437,0.6437,0.6437,0.6437,0.6437,0.6537,0.6437,0.6437,0.6534,0.6434,0.6437,0.6437,0.6437,0.6437,0.6437,0.6437,0.6437,0.6437,0.6437,0.6437,0.6437,0.6437,0.6437,0.6437,0.6437,0.6037,0.5536,0.5135,0.4935,0.4935,0.4834,0.4892,0.4621,0.3698,0.3742,0.3252,0.2109,0.1266,0.0844,0.0844,0.0528,-0.0213,-0.141,-0.1844,-0.2298,-0.2785,-0.3339,-0.357,-0.3587,-0.3587,-0.3587,0.6395,0.0,0.0,0.0,0.0,0.0,0.0,0.0,0.0,0.0,0.0,0.0,0.0,0.0,0.0,0.0,0.0,0.0,0.0,0.0,0.0,0.0,0.0,0.0,0.0,0.0,0.0,0.0,0.0,0.0,0.0,0.7154,0.7154,0.7154,0.7154,0.7154,0.7154,0.7154,0.7154,0.7154,0.7154,0.7154,0.7154,0.7154,0.7154,0.7152,0.7105,0.7059,0.6999,0.6809,0.6657,0.654,0.6467,0.6437,0.6437,0.6437,0.6437,0.6437,0.6437,0.6437,0.6437,0.6437,0.6437,0.6437,0.6437,0.6437,0.6437,0.6437,0.6437,0.6437,0.6437,0.6437,0.6437,0.6437,0.6437,0.6437,0.6437,0.6437,0.6437,0.6437,0.6437,0.6437,0.6437,0.6437,0.6334,0.6234,0.5737,0.5256,0.4904,0.4489,0.4187,0.4219,0.3846,0.3347,0.2616,0.2537,0.2133,0.0967,0.0215,-0.0324,-0.0761,-0.0756,-0.1194,-0.1988,-0.2432,-0.2666,-0.2805,-0.3363,-0.3587,-0.3587,-0.3587,-0.3587,0.5628,0.0,0.0,0.0,0.0,0.0,0.0,0.0,0.0,0.0,0.0,0.0,0.0,0.0,0.0,0.0,0.0,0.0,0.0,0.0,0.0,0.0,0.0,0.0,0.0,0.0,0.0,0.0,0.0,0.0,0.0,0.7154,0.7154,0.7154,0.7154,0.7149,0.7138,0.7138,0.7133,0.7122,0.7122,0.7232,0.7235,0.7143,0.7149,0.7133,0.7018,0.6899,0.6777,0.6665,0.6548,0.6437,0.6437,0.6437,0.6437,0.6437,0.6437,0.6437,0.6437,0.6437,0.6437,0.6437,0.6437,0.6437,0.6437,0.6437,0.6437,0.6437,0.6439,0.6442,0.6442,0.6442,0.6442,0.6442,0.6439,0.6437,0.6437,0.6437,0.6337,0.6137,0.6134,0.6234,0.6237,0.6337,0.6242,0.5856,0.5356,0.4997,0.4702,0.3751,0.3029,0.308,0.2129,0.1492,0.1385,0.1387,0.0861,-0.0219,-0.0219,-0.0772,-0.1794,-0.1768,-0.1877,-0.2131,-0.2469,-0.2805,-0.3026,-0.3362,-0.3587,-0.3587,-0.3587,-0.3587,0.0,0.7995,0.0,0.0,0.0,0.0,0.0,0.0,0.0,0.0,0.0,0.0,0.0,0.0,0.0,0.0,0.0,0.0,0.0,0.0,0.0,0.0,0.0,0.0,0.0,0.0,0.0,0.0,0.0,0.0,0.7154,0.7154,0.7154,0.7154,0.7154,0.7111,0.7021,0.7021,0.6972,0.0,0.6987,0.7096,0.7211,0.7183,0.7105,0.7016,0.6893,0.6774,0.6657,0.663,0.6548,0.6437,0.6437,0.6437,0.6437,0.6437,0.6437,0.6437,0.6437,0.6437,0.6437,0.6437,0.6437,0.6437,0.6437,0.6437,0.6437,0.6437,0.6361,0.639,0.639,0.639,0.639,0.639,0.6361,0.6437,0.6437,0.6437,0.5937,0.4239,0.4327,0.4722,0.4748,0.5541,0.5686,0.4292,0.4068,0.3543,0.2431,0.201,0.1905,0.1912,0.1722,0.1303,0.0326,0.033,-0.0222,-0.1338,-0.145,-0.1564,-0.1795,-0.1789,-0.1789,-0.1907,-0.2132,-0.2468,-0.2806,-0.3027,-0.3362,-0.3587,-0.3587,-0.3587,0.0,0.0,0.0,0.0,0.0,0.0,0.0,0.0,0.0,0.0,0.0,0.0,0.0,0.0,0.0,0.0,0.0,0.0,0.0,0.0,0.0,0.0,0.0,0.0,0.0,0.0,0.0,0.0,0.0,0.6986,0.7094,0.6986,0.6986,0.6986,0.6986,0.6956,0.6896,0.6896,0.6864,0.6801,0.6804,0.6909,0.6915,0.7039,0.6953,0.6891,0.6768,0.6679,0.6616,0.6556,0.6494,0.6437,0.6437,0.6437,0.6437,0.6437,0.6437,0.6437,0.6437,0.6437,0.6437,0.6437,0.6437,0.6437,0.6437,0.6437,0.6437,0.6437,0.6353,0.6372,0.6372,0.6372,0.6377,0.6398,0.5874,0.555,0.6266,0.5553,0.4845,0.476,0.5054,0.5347,0.5349,0.4933,0.4198,0.3026,0.2712,0.2385,0.1635,0.108,0.0754,0.0763,0.033,-0.0221,-0.0885,-0.0893,-0.1121,-0.1795,-0.1795,-0.1795,-0.1795,-0.1795,-0.1795,-0.1795,-0.202,-0.2356,-0.2693,-0.2914,-0.325,-0.3587,-0.3587,-0.3587,0.0,0.0,0.0,0.0,0.0,0.0,0.0,0.0,0.0,0.0,0.0,0.0,0.0,0.0,0.0,0.0,0.0,0.0,0.0,0.0,0.0,0.0,0.0,0.0,0.0,0.0,0.0,0.0,0.0,0.6801,0.6801,0.6801,0.6801,0.6801,0.6801,0.6793,0.6771,0.6666,0.6653,0.6738,0.6738,0.6738,0.6634,0.6738,0.6752,0.6763,0.6641,0.6589,0.6581,0.6478,0.6437,0.6437,0.6437,0.6437,0.6437,0.6437,0.6437,0.6437,0.6437,0.6439,0.6439,0.6439,0.6442,0.6442,0.6437,0.6437,0.6337,0.5937,0.5839,0.5839,0.5839,0.6142,0.6356,0.5982,0.5224,0.4941,0.6103,0.4453,0.3136,0.4968,0.5226,0.5261,0.5539,0.4101,0.2721,0.1663,0.1344,0.1234,0.1121,0.022,-0.0329,-0.0336,-0.1234,-0.1795,-0.1795,-0.1795,-0.1795,-0.1795,-0.1795,-0.1795,-0.1795,-0.1795,-0.1795,-0.1795,-0.202,-0.2244,-0.2581,-0.2803,-0.3138,-0.3475,-0.3475,-0.3475,0.0,0.0,0.0,0.0,0.0,0.0,0.0,0.0,0.0,0.0,0.0,0.0,0.0,0.0,0.0,0.0,0.0,0.0,0.0,0.0,0.0,0.0,0.0,0.0,0.0,0.0,0.0,0.0,0.6804,0.6801,0.6479,0.6587,0.6695,0.6801,0.6801,0.6752,0.6643,0.6643,0.6589,0.6486,0.6486,0.6486,0.6486,0.6486,0.6543,0.6638,0.6513,0.6461,0.6458,0.6442,0.6437,0.6437,0.6437,0.6437,0.6437,0.6437,0.6437,0.6437,0.6437,0.6448,0.6358,0.6358,0.6364,0.6366,0.6442,0.6437,0.6037,0.4138,0.3638,0.3638,0.3638,0.4962,0.5884,0.405,0.489,0.612,0.634,0.3224,0.0505,0.0808,0.0425,0.0553,0.188,0.2212,0.1776,0.0336,0.0224,-0.0224,-0.1234,-0.1454,-0.1565,-0.157,-0.1683,-0.1795,-0.1795,-0.1795,-0.1795,-0.1795,-0.1795,-0.1795,-0.1795,-0.1795,-0.1795,-0.1795,-0.1795,-0.202,-0.2244,-0.2356,-0.2468,-0.2806,-0.2806,-0.2917,0.0,0.0,0.0,0.0,0.0,0.0,0.0,0.0,0.0,0.0,0.0,0.0,0.0,0.0,0.0,0.0,0.0,0.0,0.0,0.0,0.0,0.0,0.0,0.0,0.0,0.0,0.0,0.0,0.6597,0.6597,0.639,0.6492,0.6597,0.6597,0.6597,0.657,0.6518,0.6516,0.6488,0.6437,0.6437,0.6437,0.6437,0.6437,0.6467,0.6513,0.6461,0.6437,0.6437,0.6448,0.6445,0.6437,0.6353,0.6356,0.6353,0.6356,0.6358,0.6358,0.6358,0.6364,0.6168,0.5044,0.464,0.4653,0.461,0.5487,0.6157,0.5226,0.328,0.1395,0.1395,0.2146,0.2899,0.3114,0.4845,0.6369,0.6381,0.4939,0.2899,0.0429,-0.0769,-0.1234,-0.0449,-0.0224,-0.0336,-0.1009,-0.1009,-0.1234,-0.1683,-0.1795,-0.1795,-0.1795,-0.1795,-0.1795,-0.1795,-0.1795,-0.1795,-0.1795,-0.1795,-0.1795,-0.1795,-0.1795,-0.1795,-0.1795,-0.1795,-0.1908,-0.2244,-0.2244,-0.2356,-0.2693,-0.2693,-0.2805,0.0,0.0,0.0,0.0,0.0,0.0,0.0,0.0,0.0,0.0,0.0,0.0,0.0,0.0,0.0,0.0,0.0,0.0,0.0,0.0,0.0,0.0,0.0,0.0,0.0,0.0,0.0,0.0,0.6437,0.6437,0.6437,0.6437,0.6437,0.6437,0.6437,0.6437,0.6437,0.6439,0.6445,0.6448,0.6448,0.6448,0.6448,0.6448,0.6448,0.6448,0.6445,0.6445,0.6448,0.6361,0.6052,0.5634,0.6163,0.6065,0.555,0.5557,0.556,0.556,0.556,0.5967,0.6178,0.4568,0.3249,0.2343,0.2392,0.3497,0.4734,0.4762,0.2423,-0.0,-0.0,-0.0,0.0449,0.202,0.3594,0.4723,0.4723,0.4723,0.382,0.0673,-0.0673,-0.1458,-0.1795,-0.1795,-0.1795,-0.1795,-0.1795,-0.1795,-0.1795,-0.1795,-0.1795,-0.1795,-0.1795,-0.1795,-0.1795,-0.1795,-0.1795,-0.1795,-0.1795,-0.1795,-0.1795,-0.1795,-0.1795,-0.1795,-0.1795,-0.1907,-0.2132,-0.2132,-0.2244,-0.2469,-0.2581,-0.2581,0.0,0.0,0.0,0.0,0.0,0.0,0.0,0.0,0.0,0.0,0.0,0.0,0.0,0.0,0.0,0.0,0.0,0.0,0.0,0.0,0.0,0.0,0.0,0.0,0.0,0.0,0.0,0.0,0.6437,0.6437,0.6437,0.6437,0.6437,0.6437,0.6437,0.6437,0.6437,0.6353,0.6366,0.6374,0.6374,0.6374,0.6374,0.6374,0.6374,0.6374,0.6366,0.6366,0.6374,0.6374,0.5251,0.3527,0.556,0.5151,0.3325,0.3325,0.3325,0.3325,0.3325,0.4748,0.6406,0.6313,0.3527,0.0208,0.0209,0.0213,0.0326,0.0334,0.0224,-0.0,-0.0,-0.0,-0.0,0.0112,0.0224,0.0336,0.0336,0.0336,0.0224,-0.0,-0.0,-0.0449,-0.157,-0.1795,-0.1795,-0.1795,-0.1795,-0.1795,-0.1795,-0.1795,-0.1795,-0.1795,-0.1795,-0.1795,-0.1795,-0.1795,-0.1795,-0.1795,-0.1795,-0.1795,-0.1795,-0.1795,-0.1795,-0.1795,-0.1795,-0.1795,-0.1795,-0.1795,-0.1795,-0.1907,-0.2132,-0.2244,0.0,0.0,0.0,0.0,0.0,0.0,0.0,0.0,0.0,0.0,0.0,0.0,0.0,0.0,0.0,0.0,0.0,0.0,0.0,0.0,0.0,0.0,0.0,0.0,0.0,0.0,0.0,0.0,0.0,0.6437,0.6437,0.6437,0.6437,0.6437,0.6437,0.6442,0.6353,0.5039,0.4336,0.4338,0.4338,0.4338,0.4338,0.4338,0.5052,0.6385,0.6382,0.5663,0.4438,0.5871,0.5155,0.3123,0.2521,0.3534,0.4954,0.2119,0.111,0.111,0.111,0.1628,0.2265,0.228,0.1256,-0.0,-0.0,-0.0,-0.0,-0.0,-0.0,-0.0,-0.0,-0.0,-0.0,-0.0,-0.0,-0.0,-0.0,-0.0,-0.0,-0.0,-0.0,-0.0224,-0.1121,-0.157,-0.1795,-0.1795,-0.1795,-0.1795,-0.1795,-0.1795,-0.1795,-0.1795,-0.1795,-0.1795,-0.1795,-0.1795,-0.1795,-0.1795,-0.1795,-0.1795,-0.1795,-0.202,-0.202,-0.202,-0.2244,-0.2132,-0.1795,-0.1795,-0.1907,-0.202,-0.2132,-0.2356,1.0513,0.0,0.0,0.0,0.0,0.0,0.0,0.0,0.0,0.0,0.0,0.0,0.0,0.0,0.0,0.0,0.0,0.0,0.0,0.0,0.0,0.0,0.0,0.0,0.0,0.0,0.0,0.0,0.0,0.0,0.6437,0.6437,0.6439,0.6445,0.6448,0.6356,0.6372,0.4949,0.353,0.2116,0.2116,0.1915,0.1612,0.2723,0.3534,0.3944,0.3841,0.313,0.2218,0.3638,0.3433,0.2017,0.0606,0.1717,0.3944,0.101,-0.0,-0.0,-0.0,-0.0,-0.0,-0.0,-0.0,-0.0,-0.0,-0.0,-0.0,-0.0,-0.0,-0.0,-0.0,-0.0,-0.0,-0.0,-0.0,-0.0,-0.0,-0.0,-0.0,-0.0,-0.0,-0.0224,-0.0785,-0.1346,-0.1795,-0.1795,-0.1795,-0.1795,-0.1795,-0.1795,-0.1795,-0.1795,-0.1795,-0.1795,-0.1795,-0.1795,-0.1795,-0.1795,-0.1795,-0.1795,-0.1795,-0.202,-0.2244,-0.2244,-0.2581,-0.2469,-0.2132,-0.2132,-0.2244,-0.2356,-0.2468,-0.2692,0.0,0.0,0.0,0.0,0.0,0.0,0.0,0.0,0.0,0.0,0.0,0.0,0.0,0.0,0.0,0.0,0.0,0.0,0.0,0.0,0.0,0.0,0.0,0.0,0.0,0.0,0.0,0.0,0.6437,0.6437,0.6437,0.6437,0.6345,0.6261,0.6372,0.638,0.639,0.6287,0.4147,-0.0,-0.0,-0.0606,-0.1516,0.1617,0.1617,-0.0808,-0.1415,-0.101,-0.0,-0.0,-0.0,-0.0,-0.0,-0.0,-0.0,-0.0,-0.0,-0.0,-0.0,-0.0,-0.0,-0.0,-0.0,-0.0,-0.0,-0.0,-0.0,-0.0,-0.0,-0.0,-0.0,-0.0,-0.0,-0.0,-0.0,-0.0,-0.0,-0.0,-0.0,-0.0,-0.0,-0.0224,-0.0785,-0.1458,-0.1795,-0.1795,-0.1795,-0.1795,-0.1795,-0.1795,-0.1795,-0.1795,-0.1795,-0.1795,-0.1795,-0.1795,-0.1795,-0.1795,-0.1795,-0.1795,-0.1795,-0.2132,-0.2244,-0.2244,-0.2581,-0.2693,-0.2693,-0.2693,-0.2693,-0.2693,-0.3027,-0.325,1.0519,0.0,0.0,0.0,0.0,0.0,0.0,0.0,0.0,0.0,0.0,0.0,0.0,0.0,0.0,0.0,0.0,0.0,0.0,0.0,0.0,0.0,0.0,0.0,0.0,0.0,0.0,0.0,0.6437,0.6437,0.6437,0.6448,0.5646,0.4131,0.5564,0.6388,0.639,0.3335,0.1212,-0.0,-0.0808,-0.1314,-0.1617,-0.0707,-0.0505,-0.0808,-0.1415,-0.1415,-0.1111,-0.0707,-0.0303,-0.0,-0.0,-0.0,-0.0,-0.0,-0.0,-0.0,-0.0,-0.0524,-0.1169,-0.0326,-0.0,-0.0,-0.0,-0.0,-0.0,-0.0,-0.0,-0.0,-0.0,-0.0,-0.0,-0.0,-0.0,-0.0,-0.0,-0.0,-0.0224,-0.1121,-0.1346,-0.1346,-0.157,-0.1683,-0.1795,-0.1795,-0.1795,-0.1795,-0.1795,-0.1795,-0.1795,-0.1795,-0.1795,-0.1795,-0.1795,-0.202,-0.2132,-0.2132,-0.2356,-0.2469,-0.2469,-0.2691,-0.2802,-0.2802,-0.3139,-0.3365,-0.3365,-0.2918,-0.2806,-0.3027,-0.3363,-0.3475,1.0588,1.0663,0.0,0.0,0.0,0.0,1.0513,1.0486,0.0,0.0,0.0,0.0,0.0,0.0,0.0,0.0,0.0,0.0,0.0,0.0,0.0,0.0,0.0,0.0,0.0,0.6252,0.629,0.629,0.629,0.6314,0.627,0.6391,0.5817,0.4543,0.4043,0.374,0.374,0.1212,-0.0,-0.0,-0.1111,-0.1617,-0.1617,-0.1617,-0.1415,-0.1111,-0.1415,-0.1617,-0.1617,-0.1313,-0.0909,-0.0606,-0.0202,-0.0,-0.0,-0.0,-0.0,-0.0101,-0.0625,-0.0846,-0.0964,-0.0768,-0.0445,-0.0,-0.0,-0.0,-0.0112,-0.0561,-0.0785,-0.0673,-0.0449,-0.0336,-0.0336,-0.0336,-0.0336,-0.0336,-0.0,-0.0224,-0.0673,-0.157,-0.1795,-0.1795,-0.1795,-0.1795,-0.1795,-0.1795,-0.1795,-0.1795,-0.1795,-0.1795,-0.1795,-0.1795,-0.1795,-0.1795,-0.1795,-0.1908,-0.2132,-0.2244,-0.2357,-0.2581,-0.2693,-0.2915,-0.3361,-0.3807,-0.4143,-0.4369,-0.4369,-0.3475,-0.3141,-0.3362,-0.3475,-0.3587,1.0588,1.0663,1.0812,0.0,0.0,0.0,1.0519,1.0368,1.0209,0.0,0.0,0.0,0.0,0.0,0.0,0.0,0.0,0.0,0.0,0.0,0.0,0.0,0.0,0.0,0.6067,0.6078,0.6086,0.6086,0.6086,0.6042,0.5861,0.6182,0.6147,0.5754,0.2014,-0.0,-0.0,-0.0,-0.0101,-0.0202,-0.1111,-0.1617,-0.1617,-0.1617,-0.1617,-0.1617,-0.1617,-0.1617,-0.1617,-0.1617,-0.1617,-0.1516,-0.0505,-0.0101,-0.0101,-0.0202,-0.0101,-0.0203,-0.137,-0.1067,-0.0322,-0.1331,-0.1009,-0.0224,-0.0,-0.0,-0.0224,-0.1346,-0.1683,-0.1683,-0.1121,-0.1009,-0.1009,-0.1009,-0.1009,-0.0897,-0.0336,-0.0561,-0.1121,-0.1683,-0.1795,-0.1795,-0.1795,-0.1795,-0.1795,-0.1795,-0.1795,-0.1795,-0.1795,-0.1795,-0.1795,-0.1795,-0.1795,-0.1795,-0.1795,-0.1907,-0.202,-0.2244,-0.2356,-0.2468,-0.2806,-0.3139,-0.3807,-0.492,-0.5258,-0.5371,-0.5371,-0.4145,-0.3587,-0.3587,-0.3587,-0.3587,0.0,0.0,0.0,0.0,0.0,0.0,1.0812,1.0588,1.038,0.0,0.0,0.0,0.0,0.0,0.0,0.0,0.0,0.0,0.0,0.0,0.0,0.0,0.0,0.0,0.5937,0.6029,0.6086,0.6086,0.6189,0.5436,0.3825,0.5475,0.485,0.1381,0.0395,-0.0,-0.0,-0.0,-0.0404,-0.1313,-0.1516,-0.1617,-0.1617,-0.1617,-0.1617,-0.1617,-0.1617,-0.1617,-0.1617,-0.1617,-0.1617,-0.1516,-0.0909,-0.0606,-0.0707,-0.1111,-0.101,-0.0711,-0.0948,-0.1173,-0.1286,-0.1109,-0.1234,-0.1234,-0.0336,-0.0,-0.0,-0.0336,-0.1009,-0.1795,-0.1683,-0.157,-0.157,-0.157,-0.157,-0.157,-0.1458,-0.1121,-0.1121,-0.1683,-0.1795,-0.1795,-0.1795,-0.1795,-0.1795,-0.1795,-0.1795,-0.1795,-0.1795,-0.1795,-0.1795,-0.1795,-0.1795,-0.1795,-0.1795,-0.2244,-0.2581,-0.2581,-0.3029,-0.3363,-0.3475,-0.4367,-0.5037,-0.5258,-0.5371,-0.5371,-0.5371,-0.4145,-0.3587,-0.3587,-0.3587,-0.3587,0.0,0.0,0.0,1.0663,0.0,0.0,0.0,1.0663,1.0443,0.0,0.0,0.0,0.0,0.0,0.0,0.0,0.0,0.0,0.0,0.0,0.0,0.0,0.0,0.0,0.5817,0.5874,0.5912,0.5918,0.5926,0.5491,0.4508,0.3665,0.2181,0.0097,-0.0,-0.0,-0.0,-0.0498,-0.1101,-0.1617,-0.1617,-0.1617,-0.1617,-0.1617,-0.1617,-0.1617,-0.1617,-0.1617,-0.1617,-0.1617,-0.1617,-0.1617,-0.1314,-0.101,-0.0909,-0.1415,-0.1415,-0.1219,-0.1264,-0.1492,-0.1716,-0.1442,-0.157,-0.1683,-0.0673,-0.0673,-0.0785,-0.0561,-0.1121,-0.1795,-0.1795,-0.1795,-0.1795,-0.1795,-0.1795,-0.1795,-0.1795,-0.157,-0.1458,-0.1795,-0.1795,-0.1795,-0.1795,-0.1795,-0.1795,-0.1795,-0.1795,-0.1795,-0.1795,-0.1795,-0.1795,-0.1795,-0.1795,-0.1795,-0.1795,-0.2132,-0.2356,-0.2469,-0.3473,-0.4142,-0.4254,-0.559,-0.6255,-0.6255,-0.6811,-0.6818,-0.6267,-0.5592,-0.5033,-0.448,-0.448,-0.448,0.0,0.0,0.0,0.0,0.0,1.0887,0.0,0.0,0.0,1.0062,0.0,0.0,0.0,0.0,0.0,0.0,0.0,0.0,0.0,0.0,0.0,0.0,0.0,0.0,0.0,0.5722,0.5738,0.5657,0.5668,0.5716,0.5721,0.2116,-0.0,-0.0,-0.0,-0.0,-0.0,-0.1078,-0.1583,-0.1407,-0.1513,-0.1617,-0.1617,-0.1617,-0.1617,-0.1617,-0.1617,-0.1617,-0.1617,-0.1617,-0.1617,-0.1617,-0.1617,-0.1314,-0.101,-0.1415,-0.1617,-0.1624,-0.1677,-0.1701,-0.1823,-0.1769,-0.179,-0.1683,-0.1121,-0.1121,-0.1346,-0.1121,-0.1458,-0.1795,-0.1795,-0.1795,-0.1795,-0.1795,-0.1795,-0.1795,-0.1795,-0.1795,-0.1795,-0.1795,-0.1795,-0.1795,-0.1795,-0.1795,-0.1795,-0.1795,-0.1795,-0.1795,-0.1795,-0.1795,-0.1795,-0.1795,-0.1795,-0.1795,-0.1795,-0.2019,-0.2354,-0.2578,-0.4027,-0.5029,-0.5363,-0.6695,-0.7584,-0.7802,-0.8475,-0.8374,-0.7496,-0.7479,-0.6808,-0.5701,-0.5481,-0.5483,0.0,0.0,0.0,0.0,1.0962,0.0,0.0,0.0,1.0288,0.9528,0.0,0.8246,0.6802,0.0,0.0,0.0,0.0,0.0,0.0,0.0,0.0,0.0,0.0,0.0,0.0,0.5588,0.5657,0.5657,0.5673,0.5689,0.5703,0.2074,-0.0,-0.0,-0.0,-0.0,-0.0,-0.1071,-0.1377,-0.0887,-0.1403,-0.1617,-0.1617,-0.1617,-0.1617,-0.1617,-0.1617,-0.1617,-0.1617,-0.1617,-0.1617,-0.1617,-0.1617,-0.1516,-0.1516,-0.1617,-0.1617,-0.1622,-0.1655,-0.1684,-0.171,-0.1744,-0.1773,-0.1683,-0.1121,-0.0561,-0.0449,-0.1458,-0.1795,-0.1795,-0.1795,-0.1795,-0.1795,-0.1795,-0.1795,-0.1795,-0.1795,-0.1795,-0.1795,-0.1795,-0.1795,-0.1795,-0.1795,-0.1795,-0.1795,-0.1795,-0.1795,-0.1795,-0.1795,-0.1795,-0.1795,-0.1795,-0.1795,-0.1795,-0.1795,-0.3025,-0.3917,-0.4249,-0.5586,-0.6589,-0.6805,-0.8029,-0.9251,-1.0249,-0.9364,-0.8809,-0.8702,-0.8699,-0.8026,-0.6906,-0.5922,-0.5924,0.0,0.0,0.0,0.0,0.0,0.0,1.0962,0.0,0.9679,0.0,0.0,0.0,0.0,0.0,0.0,0.0,0.5056,0.0,0.0,0.0,0.0,0.0,0.0,0.0,0.0,0.0,0.0,0.0,0.5124,0.4714,0.2516,0.0899,-0.0,-0.0,-0.0546,-0.0826,-0.0843,-0.0945,-0.1152,-0.1277,-0.1485,-0.16,-0.1617,-0.1617,-0.1617,-0.1617,-0.1617,-0.1617,-0.1617,-0.1617,-0.1617,-0.1617,-0.1617,-0.1617,-0.1617,-0.1617,-0.1617,-0.1621,-0.1652,-0.1681,-0.1712,-0.1761,-0.1785,-0.1795,-0.1458,-0.1234,-0.1121,-0.1683,-0.1795,-0.1795,-0.1795,-0.1795,-0.1795,-0.1795,-0.1795,-0.1795,-0.1795,-0.1795,-0.1795,-0.1795,-0.1795,-0.1795,-0.1795,-0.1795,-0.1795,-0.1795,-0.1795,-0.1795,-0.1795,-0.1795,-0.213,-0.3022,-0.2911,-0.3246,-0.4027,-0.4697,-0.5142,-0.5252,-0.6805,-0.8137,-0.9137,-0.9695,-0.9805,-0.9695,-0.9805,-0.9592,-0.8944,-0.9592,-0.9691,-0.9127,-0.8029,-0.77,1.0576,0.0,0.0,0.0,0.0,0.0,0.0,0.0,0.0,0.0,0.0,0.0,0.0,0.0,0.5018,0.5018,0.0,0.5018,0.0,0.0,0.0,0.0,0.0,0.0,0.0,0.0,0.0,0.0,0.0,0.2894,0.0178,-0.0269,-0.0359,-0.0359,-0.0897,-0.1265,-0.1376,-0.1107,-0.1127,-0.1547,-0.1564,-0.1583,-0.1605,-0.1613,-0.1617,-0.1617,-0.1617,-0.1617,-0.1617,-0.1617,-0.1617,-0.1617,-0.1617,-0.1617,-0.1617,-0.1617,-0.1617,-0.162,-0.1642,-0.1674,-0.1714,-0.1775,-0.1795,-0.1795,-0.1795,-0.1795,-0.1795,-0.1795,-0.1795,-0.1795,-0.1795,-0.1795,-0.1795,-0.1795,-0.1795,-0.1795,-0.1795,-0.1795,-0.1795,-0.1795,-0.1795,-0.1795,-0.1795,-0.1795,-0.1795,-0.1795,-0.213,-0.2242,-0.2242,-0.2576,-0.3245,-0.4357,-0.4247,-0.4583,-0.5699,-0.6033,-0.6366,-0.6811,-0.8251,-0.9578,-1.0692,-1.0692,-1.0249,-0.9364,-1.0249,-1.026,-0.9389,-1.026,-1.0692,-1.0692,-0.9464,-0.9023,0.0,0.0,0.0,1.0881,0.0,0.0,0.0,0.0,0.8152,0.0,0.0,0.0,0.0,0.5018,0.5018,0.5018,0.5018,0.0,0.0,0.0,0.0,0.0,0.0,0.0,0.0,0.0,0.0,0.0,0.0,0.0,-0.0,-0.0888,-0.1345,-0.1345,-0.0987,-0.0897,-0.1437,-0.1466,-0.1482,-0.1484,-0.1543,-0.1572,-0.1574,-0.1604,-0.1617,-0.1617,-0.1617,-0.1617,-0.1617,-0.1617,-0.1617,-0.1617,-0.1617,-0.1617,-0.1617,-0.1617,-0.1617,-0.1617,-0.1618,-0.1656,-0.1714,-0.1775,-0.1795,-0.1795,-0.1795,-0.1795,-0.1795,-0.1795,-0.1795,-0.1795,-0.1795,-0.1795,-0.1795,-0.1795,-0.1795,-0.1795,-0.1795,-0.1795,-0.1795,-0.1795,-0.1795,-0.1795,-0.1795,-0.1795,-0.1795,-0.1795,-0.28,-0.358,-0.358,-0.4582,-0.5361,-0.5699,-0.5475,-0.5472,-0.581,-0.6594,-0.7817,-0.9592,-1.0253,-1.0692,-1.0692,-1.0692,-1.0692,-1.0692,-1.0692,-1.0692,-1.0692,-1.0692,-1.0692,-1.0692,-0.9439,-0.9552,0.0,0.0,0.799,0.9669,0.0,0.0,0.0,0.0,0.0,0.0,0.0,0.0,0.0,0.5018,0.5018,0.5018,0.5018,0.5018,0.0,0.0,0.0,0.0,0.0,0.0,0.0,0.0,0.0,0.0,0.0,0.0,0.0,-0.0876,-0.1416,-0.1435,-0.1256,-0.1256,-0.1436,-0.1445,-0.1461,-0.1481,-0.1502,-0.1532,-0.1572,-0.1582,-0.1598,-0.1617,-0.1617,-0.1617,-0.1617,-0.1617,-0.1617,-0.1617,-0.1617,-0.1617,-0.1617,-0.1617,-0.1617,-0.162,-0.164,-0.1672,-0.1711,-0.1752,-0.1778,-0.1795,-0.1795,-0.1795,-0.1795,-0.1795,-0.1795,-0.1795,-0.1795,-0.1795,-0.1795,-0.1795,-0.1795,-0.1795,-0.1795,-0.1795,-0.1795,-0.1795,-0.1795,-0.1795,-0.1795,-0.1795,-0.1795,-0.1795,-0.28,-0.358,-0.358,-0.4806,-0.6033,-0.6924,-0.7033,-0.7362,-0.8149,-0.8595,-0.9368,-1.0363,-1.0582,-1.0692,-1.0692,-1.0692,-1.0692,-1.0692,-1.0692,-1.0692,-1.0692,-1.0692,-1.0692,-1.0692,-1.0237,-1.0347,0.7387,0.7003,0.0,0.8609,0.8003,0.0,0.8385,0.0,0.0,0.0,0.0,0.0,0.0,0.0,0.5018,0.5018,0.5018,0.5018,0.0,0.5018,0.0,0.0,0.0,0.0,0.0,0.0,0.0,0.0,0.0,0.0,0.0,0.0,-0.1226,-0.142,-0.143,-0.1436,-0.1436,-0.1436,-0.1445,-0.1465,-0.1476,-0.1501,-0.154,-0.1562,-0.1582,-0.1601,-0.1612,-0.1617,-0.1617,-0.1617,-0.1617,-0.1617,-0.1617,-0.1617,-0.1617,-0.1617,-0.1617,-0.1621,-0.1652,-0.1681,-0.1709,-0.174,-0.177,-0.1795,-0.1795,-0.1795,-0.1797,-0.1808,-0.1804,-0.1797,-0.1808,-0.1803,-0.1795,-0.1795,-0.1795,-0.1795,-0.1795,-0.1795,-0.1795,-0.1795,-0.1795,-0.1795,-0.1795,-0.1795,-0.1795,-0.1795,-0.3246,-0.4249,-0.4249,-0.581,-0.726,-0.8149,-0.826,-0.8595,-0.9379,-0.9596,-1.0033,-1.0582,-1.0692,-1.0692,-1.0692,-1.0692,-1.0692,-1.0692,-1.0692,-1.0692,-1.0692,-1.0692,-1.0692,-1.0692,-1.0692,-1.0692]},{"header":{"parameterUnit":"m.s-1","parameterCategory":1,"la1":30.6,"la2":29.2853,"lo1":-89.7004,"lo2":-87.6739,"dy":0.0162,"dx":0.0183,"nx":112,"ny":82,"refTime":"2023-06-04T06:00:00:Z","depth":0,"parameterNumber":3,"parameterNumberName":"V-component_of_WINDS"},"data":[0.0,0.0,0.0,0.0,0.0,0.0,0.0,0.0,0.0,0.0,0.0,0.0,0.0,0.0,0.0,0.0,0.0,0.0,0.0,0.0,0.0,0.0,0.0,0.0,0.0,0.0,0.0,0.0,0.0,0.0,0.0,0.0,0.0,0.0,0.0,0.0,0.0,0.0,0.0,0.0,0.0,0.0,0.0,0.0,0.0,0.0,0.0,0.0,0.0,0.0,0.0,0.0,0.0,0.0,0.0,0.0,0.0,0.0,0.0,0.0,0.0,0.0,0.0,0.0,0.0,0.0,0.0,0.0,0.0,0.0,0.0,0.0,0.0,0.0,0.0,0.0,0.0,0.0,0.0,0.0,0.0,0.0,0.0,0.0,0.0,0.0,0.0,0.0,0.0,0.0,0.0,-2.1229,-2.0942,-2.0698,-2.0628,-2.0613,-2.0613,-2.0613,0.0,0.0,0.0,0.0,0.0,0.0,0.0,0.0,0.0,0.0,0.0,0.0,0.0,0.0,0.0,0.0,0.0,0.0,0.0,0.0,0.0,0.0,0.0,0.0,0.0,0.0,0.0,0.0,0.0,0.0,0.0,0.0,0.0,0.0,0.0,0.0,0.0,0.0,0.0,0.0,0.0,0.0,0.0,0.0,0.0,0.0,0.0,0.0,0.0,0.0,0.0,0.0,0.0,0.0,0.0,0.0,0.0,0.0,0.0,0.0,0.0,0.0,0.0,0.0,0.0,0.0,0.0,0.0,0.0,0.0,0.0,0.0,0.0,0.0,0.0,0.0,0.0,0.0,0.0,0.0,0.0,0.0,0.0,0.0,0.0,0.0,0.0,0.0,0.0,0.0,0.0,0.0,0.0,0.0,0.0,0.0,0.0,0.0,0.0,0.0,0.0,0.0,0.0,0.0,-2.1741,-2.2305,-2.2311,-2.2201,-2.2015,-2.1993,-2.1993,-2.1993,0.0,0.0,0.0,0.0,0.0,0.0,0.0,0.0,0.0,0.0,0.0,0.0,0.0,0.0,0.0,0.0,0.0,0.0,0.0,0.0,0.0,0.0,0.0,0.0,0.0,0.0,0.0,0.0,0.0,0.0,0.0,0.0,0.0,0.0,0.0,0.0,0.0,0.0,0.0,0.0,0.0,0.0,0.0,0.0,0.0,0.0,0.0,0.0,0.0,0.0,0.0,0.0,0.0,0.0,0.0,0.0,0.0,0.0,0.0,0.0,0.0,0.0,0.0,0.0,0.0,0.0,0.0,0.0,0.0,0.0,0.0,0.0,0.0,0.0,0.0,0.0,0.0,0.0,0.0,0.0,0.0,0.0,0.0,0.0,0.0,0.0,0.0,0.0,0.0,0.0,0.0,0.0,0.0,0.0,0.0,0.0,0.0,0.0,0.0,0.0,0.0,0.0,0.0,-2.2718,-2.2767,-2.3051,-2.3083,-2.2941,-2.2666,-2.2629,-2.2534,-2.2324,-2.1942,0.0,0.0,0.0,0.0,0.0,0.0,0.0,0.0,0.0,0.0,0.0,0.0,0.0,0.0,0.0,0.0,0.0,0.0,0.0,0.0,0.0,0.0,0.0,0.0,0.0,0.0,0.0,0.0,0.0,0.0,0.0,0.0,0.0,0.0,0.0,0.0,0.0,0.0,0.0,0.0,0.0,0.0,0.0,0.0,0.0,0.0,0.0,0.0,0.0,0.0,0.0,0.0,0.0,0.0,0.0,0.0,0.0,0.0,0.0,0.0,0.0,0.0,0.0,0.0,0.0,0.0,0.0,0.0,0.0,0.0,0.0,0.0,0.0,0.0,0.0,0.0,0.0,0.0,0.0,0.0,0.0,0.0,0.0,0.0,0.0,0.0,0.0,0.0,0.0,0.0,0.0,0.0,0.0,0.0,0.0,0.0,0.0,0.0,0.0,0.0,0.0,0.0,-2.3949,-2.3912,-2.4041,-2.4023,-2.3883,-2.3526,-2.3506,-2.3322,-2.294,-2.3285,0.0,0.0,0.0,0.0,0.0,0.0,0.0,0.0,0.0,0.0,0.0,0.0,0.0,0.0,0.0,0.0,0.0,0.0,0.0,0.0,0.0,0.0,0.0,0.0,0.0,0.0,0.0,0.0,0.0,0.0,0.0,0.0,0.0,0.0,0.0,0.0,0.0,0.0,0.0,0.0,0.0,0.0,0.0,0.0,0.0,0.0,0.0,0.0,0.0,0.0,0.0,0.0,0.0,0.0,0.0,0.0,0.0,0.0,0.0,0.0,0.0,0.0,0.0,0.0,0.0,0.0,0.0,0.0,0.0,0.0,0.0,0.0,0.0,0.0,0.0,0.0,0.0,0.0,0.0,0.0,0.0,0.0,0.0,0.0,0.0,0.0,0.0,0.0,0.0,0.0,0.0,0.0,0.0,0.0,0.0,0.0,0.0,0.0,0.0,0.0,0.0,0.0,-2.4927,-2.5157,-2.5602,-2.5631,-2.5542,-2.5357,-2.5319,-2.5131,-2.476,-2.5093,0.0,0.0,0.0,0.0,0.0,0.0,0.0,0.0,0.0,0.0,0.0,0.0,0.0,0.0,0.0,0.0,0.0,0.0,0.0,0.0,0.0,0.0,0.0,0.0,0.0,0.0,0.0,0.0,0.0,0.0,0.0,0.0,0.0,0.0,0.0,0.0,0.0,0.0,0.0,0.0,0.0,0.0,0.0,0.0,0.0,0.0,0.0,0.0,0.0,0.0,0.0,0.0,0.0,0.0,0.0,0.0,0.0,0.0,0.0,0.0,0.0,0.0,0.0,0.0,0.0,0.0,0.0,0.0,0.0,0.0,0.0,0.0,0.0,0.0,0.0,0.0,0.0,0.0,0.0,0.0,0.0,0.0,0.0,0.0,0.0,0.0,0.0,0.0,0.0,0.0,0.0,0.0,0.0,0.0,0.0,0.0,0.0,0.0,0.0,0.0,0.0,0.0,-2.6034,-2.6082,0.0,-2.6504,-2.6349,-2.6013,-2.5924,-2.5689,-2.5313,0.0,0.0,0.0,0.0,0.0,0.0,0.0,0.0,0.0,0.0,0.0,0.0,0.0,0.0,0.0,0.0,0.0,0.0,0.0,0.0,0.0,0.0,0.0,0.0,0.0,0.0,0.0,0.0,0.0,0.0,0.0,0.0,0.0,0.0,0.0,0.0,0.0,0.0,0.0,0.0,0.0,0.0,0.0,0.0,0.0,0.0,0.0,0.0,0.0,0.0,0.0,0.0,0.0,0.0,0.0,0.0,0.0,0.0,0.0,0.0,0.0,0.0,0.0,0.0,0.0,0.0,0.0,0.0,0.0,0.0,0.0,0.0,0.0,0.0,0.0,0.0,0.0,0.0,0.0,0.0,0.0,0.0,0.0,0.0,0.0,0.0,0.0,0.0,0.0,0.0,0.0,0.0,0.0,0.0,0.0,0.0,0.0,0.0,0.0,0.0,0.0,0.0,-2.6906,-2.6825,-2.6775,0.0,-2.7007,-2.6825,-2.6555,-2.6418,-2.6191,-2.5779,0.0,0.0,0.0,0.0,0.0,0.0,0.0,0.0,0.0,0.0,0.0,0.0,0.0,0.0,0.0,0.0,0.0,0.0,0.0,0.0,0.0,0.0,0.0,0.0,0.0,0.0,0.0,0.0,0.0,0.0,0.0,0.0,0.0,0.0,0.0,0.0,0.0,0.0,0.0,0.0,0.0,0.0,0.0,0.0,0.0,0.0,0.0,0.0,0.0,0.0,0.0,0.0,0.0,0.0,0.0,0.0,0.0,0.0,0.0,0.0,0.0,0.0,0.0,0.0,0.0,0.0,0.0,0.0,0.0,0.0,0.0,0.0,0.0,0.0,0.0,0.0,0.0,0.0,0.0,0.0,0.0,0.0,0.0,0.0,0.0,0.0,0.0,0.0,0.0,0.0,0.0,0.0,0.0,0.0,0.0,0.0,0.0,0.0,0.0,0.0,0.0,0.0,-2.7024,-2.7186,-2.725,-2.7135,-2.7103,-2.707,-2.7007,-2.6959,-2.6742,0.0,0.0,0.0,0.0,0.0,0.0,0.0,0.0,0.0,0.0,0.0,0.0,0.0,0.0,0.0,0.0,0.0,0.0,0.0,0.0,0.0,0.0,0.0,0.0,0.0,0.0,0.0,0.0,0.0,0.0,0.0,0.0,0.0,0.0,0.0,0.0,0.0,0.0,0.0,0.0,0.0,0.0,0.0,0.0,0.0,0.0,0.0,0.0,0.0,0.0,0.0,0.0,0.0,0.0,0.0,0.0,0.0,0.0,0.0,0.0,0.0,0.0,0.0,0.0,0.0,0.0,0.0,0.0,0.0,0.0,0.0,0.0,0.0,0.0,0.0,0.0,0.0,0.0,0.0,0.0,0.0,0.0,0.0,0.0,0.0,0.0,0.0,0.0,0.0,0.0,0.0,0.0,0.0,0.0,0.0,0.0,0.0,0.0,0.0,0.0,0.0,0.0,0.0,-2.7024,-2.7186,-2.7282,-2.725,-2.7152,-2.7103,-2.707,-2.7007,-2.6909,-2.6742,0.0,0.0,0.0,0.0,0.0,0.0,0.0,0.0,0.0,0.0,0.0,0.0,0.0,0.0,0.0,0.0,0.0,0.0,0.0,0.0,0.0,0.0,0.0,0.0,0.0,0.0,0.0,0.0,0.0,0.0,0.0,0.0,0.0,0.0,0.0,0.0,0.0,0.0,0.0,0.0,0.0,0.0,0.0,0.0,0.0,0.0,0.0,0.0,0.0,0.0,0.0,0.0,0.0,0.0,0.0,0.0,0.0,0.0,0.0,0.0,0.0,0.0,0.0,0.0,0.0,0.0,0.0,0.0,0.0,0.0,0.0,0.0,0.0,0.0,0.0,0.0,0.0,0.0,0.0,0.0,0.0,0.0,0.0,0.0,0.0,0.0,0.0,0.0,0.0,0.0,0.0,0.0,0.0,0.0,0.0,0.0,0.0,0.0,0.0,0.0,0.0,0.0,-2.7023,-2.7186,-2.7299,-2.7299,-2.7233,-2.7184,-2.7184,-2.7087,-2.7023,-2.6975,0.0,0.0,0.0,0.0,0.0,0.0,0.0,0.0,0.0,0.0,0.0,0.0,0.0,0.0,0.0,0.0,0.0,0.0,0.0,0.0,0.0,0.0,0.0,0.0,0.0,0.0,0.0,0.0,0.0,0.0,0.0,0.0,0.0,0.0,0.0,0.0,0.0,0.0,0.0,0.0,0.0,0.0,0.0,0.0,0.0,0.0,0.0,0.0,0.0,0.0,0.0,0.0,0.0,0.0,0.0,0.0,0.0,0.0,0.0,0.0,0.0,0.0,0.0,0.0,0.0,0.0,0.0,0.0,0.0,0.0,0.0,0.0,0.0,0.0,0.0,0.0,0.0,0.0,0.0,0.0,0.0,0.0,0.0,0.0,0.0,0.0,0.0,0.0,0.0,0.0,0.0,0.0,0.0,0.0,0.0,0.0,0.0,0.0,0.0,0.0,0.0,0.0,-2.7291,-2.7407,-2.7489,-2.7489,-2.7489,-2.7538,-2.7552,-2.7454,-2.7388,-2.742,0.0,0.0,0.0,0.0,0.0,0.0,0.0,0.0,0.0,0.0,0.0,0.0,0.0,0.0,0.0,0.0,0.0,0.0,0.0,0.0,0.0,0.0,0.0,0.0,0.0,0.0,0.0,0.0,0.0,0.0,0.0,0.0,0.0,0.0,0.0,0.0,0.0,0.0,0.0,0.0,0.0,0.0,0.0,0.0,0.0,0.0,0.0,0.0,0.0,0.0,0.0,0.0,0.0,0.0,0.0,0.0,0.0,0.0,0.0,0.0,-2.3534,0.0,0.0,0.0,0.0,0.0,0.0,0.0,0.0,0.0,0.0,0.0,0.0,0.0,0.0,0.0,0.0,0.0,0.0,0.0,0.0,0.0,0.0,0.0,0.0,0.0,0.0,0.0,0.0,0.0,0.0,0.0,0.0,0.0,0.0,0.0,0.0,0.0,0.0,0.0,0.0,0.0,-2.8682,-2.8922,-2.9023,-2.9023,-2.9023,-2.9124,-2.9382,-2.9414,-2.9474,-2.9685,-2.9733,0.0,0.0,0.0,0.0,0.0,0.0,0.0,0.0,0.0,0.0,0.0,0.0,0.0,0.0,0.0,0.0,0.0,0.0,0.0,0.0,0.0,0.0,0.0,0.0,0.0,0.0,0.0,0.0,0.0,0.0,0.0,0.0,0.0,0.0,0.0,0.0,0.0,0.0,0.0,0.0,0.0,0.0,0.0,0.0,0.0,0.0,0.0,0.0,0.0,0.0,0.0,0.0,0.0,0.0,0.0,0.0,0.0,0.0,0.0,0.0,-2.3901,0.0,0.0,0.0,0.0,0.0,0.0,0.0,0.0,0.0,0.0,0.0,0.0,0.0,0.0,0.0,0.0,0.0,0.0,0.0,0.0,0.0,0.0,0.0,0.0,0.0,0.0,0.0,0.0,0.0,0.0,0.0,0.0,0.0,0.0,0.0,0.0,0.0,0.0,0.0,0.0,-2.93,-2.9438,-2.9506,-2.9506,-2.9506,-2.9625,-2.9951,-2.9983,-3.0123,-3.0422,-3.0451,0.0,0.0,0.0,0.0,0.0,0.0,0.0,0.0,0.0,0.0,0.0,0.0,0.0,0.0,0.0,0.0,0.0,0.0,0.0,0.0,0.0,0.0,0.0,0.0,0.0,0.0,0.0,0.0,0.0,0.0,0.0,0.0,0.0,0.0,0.0,0.0,0.0,0.0,0.0,0.0,0.0,0.0,0.0,0.0,0.0,0.0,0.0,0.0,0.0,0.0,0.0,0.0,0.0,-2.8941,-2.8831,-2.8794,-2.8422,-2.8405,-2.8444,-2.5669,-2.4763,-2.5238,0.0,0.0,0.0,0.0,0.0,0.0,0.0,0.0,0.0,0.0,0.0,0.0,0.0,0.0,0.0,0.0,0.0,0.0,0.0,0.0,0.0,0.0,0.0,0.0,0.0,-2.6741,-2.6928,0.0,0.0,0.0,0.0,0.0,0.0,0.0,0.0,0.0,0.0,0.0,0.0,-2.9816,-2.9903,-2.9938,-2.9989,-3.0006,-3.0141,-3.0547,-3.0578,-3.0716,-3.1056,-3.1009,-3.0951,0.0,0.0,0.0,0.0,0.0,0.0,0.0,0.0,0.0,0.0,0.0,0.0,0.0,0.0,0.0,0.0,0.0,0.0,0.0,0.0,0.0,0.0,0.0,0.0,0.0,0.0,0.0,0.0,0.0,0.0,0.0,0.0,-2.4885,-2.4988,0.0,0.0,0.0,0.0,0.0,0.0,0.0,0.0,0.0,0.0,0.0,0.0,0.0,-2.9058,-2.8491,-2.9125,-2.9228,-2.8794,-2.9157,-2.928,-2.9208,-2.9049,-2.8996,-2.8999,-2.8499,0.0,-2.8383,-2.8311,0.0,0.0,0.0,0.0,0.0,0.0,0.0,0.0,0.0,0.0,0.0,0.0,0.0,0.0,0.0,0.0,0.0,0.0,0.0,0.0,0.0,0.0,-2.7062,-2.781,-2.7964,-2.8101,0.0,-2.8269,-2.7637,-2.7793,-2.8422,0.0,0.0,0.0,0.0,0.0,0.0,0.0,-3.1239,-3.1399,-3.1598,-3.1917,-3.1917,-3.2186,-3.2817,-3.2877,-3.2995,-3.3351,-3.3351,-3.3213,-3.2829,-3.2227,0.0,0.0,0.0,0.0,0.0,0.0,0.0,0.0,0.0,0.0,0.0,0.0,0.0,0.0,0.0,0.0,0.0,0.0,0.0,0.0,0.0,0.0,0.0,0.0,0.0,0.0,0.0,0.0,0.0,-2.5164,-2.527,-2.5885,-2.6324,-2.6673,0.0,0.0,0.0,0.0,0.0,0.0,0.0,0.0,0.0,-2.9438,-2.9937,-3.0056,-2.9841,-3.0468,-3.0675,-3.0455,-3.0638,-3.0728,-3.0709,-3.0638,-3.0565,-3.0512,-3.0455,-3.0435,-3.0309,-2.9147,-2.879,-2.8941,0.0,0.0,0.0,0.0,-2.7818,-2.7977,-2.7782,-2.7746,0.0,-2.7746,0.0,0.0,0.0,0.0,0.0,0.0,0.0,0.0,0.0,0.0,-2.8271,-2.8664,-2.875,-2.8887,-2.9264,-2.9278,-2.9155,0.0,-2.9346,-2.9822,-2.9787,0.0,0.0,0.0,0.0,-3.1256,-3.1657,-3.1912,-3.2126,-3.2283,-3.247,-3.2781,-3.3262,-3.3291,-3.3437,-3.378,-3.3807,-3.3734,-3.355,-3.3081,-3.2871,0.0,0.0,0.0,0.0,0.0,0.0,0.0,0.0,0.0,0.0,0.0,0.0,0.0,0.0,0.0,0.0,0.0,0.0,0.0,0.0,0.0,0.0,0.0,0.0,0.0,0.0,0.0,0.0,-2.5933,-2.6167,-2.7147,-2.7828,-2.8185,0.0,0.0,0.0,0.0,0.0,0.0,-2.9817,-3.0162,-3.0368,-3.0368,-3.1145,-3.1558,-3.1558,-3.211,-3.2386,-3.2386,-3.2386,-3.2386,-3.2386,-3.2331,-3.2294,-3.22,-3.2179,-3.2141,-3.1939,-2.9972,-2.9366,-2.9553,-2.9034,-2.9005,-2.9245,-2.9096,-2.9011,-2.9011,-2.9011,-2.9011,-2.9011,-2.9011,0.0,-2.8112,-2.8112,0.0,0.0,0.0,0.0,-2.9047,-2.9083,-2.9102,-2.9191,-2.9431,-2.9571,-2.9657,-2.9881,-3.0343,-3.0478,0.0,-3.0204,-3.068,-3.0571,0.0,0.0,0.0,0.0,-3.1765,-3.18,-3.2179,-3.2437,-3.2437,-3.2716,-3.3045,-3.3408,-3.3437,-3.3522,-3.3762,-3.3807,-3.3807,-3.3807,-3.355,-3.3569,-3.3807,0.0,0.0,0.0,0.0,0.0,0.0,0.0,0.0,0.0,0.0,0.0,0.0,0.0,0.0,0.0,0.0,0.0,0.0,0.0,0.0,0.0,0.0,0.0,0.0,0.0,0.0,0.0,0.0,0.0,-2.8702,-2.9178,0.0,0.0,0.0,0.0,-2.9453,-3.0195,-3.0627,-3.0627,-3.1972,-3.2731,-3.2731,-3.3507,-3.3921,-3.3921,-3.3955,-3.3973,-3.3973,-3.3973,-3.3973,-3.3973,-3.3837,-3.3779,-3.3779,-3.3733,-3.3669,-3.355,-3.1991,-3.1304,-3.1108,-3.0374,-3.0099,-2.9973,-2.9245,-2.9011,-2.9011,-2.9011,-2.9011,-2.9011,-2.9011,-2.8958,-2.8924,-2.8924,-2.8924,0.0,0.0,-2.9083,-2.9155,-2.935,-2.928,-2.9434,-3.0367,-3.052,-3.0656,-3.1487,-3.1585,-3.1342,0.0,-3.105,-3.1528,-3.1528,0.0,-3.1579,-3.1579,-3.193,-3.2073,-3.1819,-3.2369,-3.2763,-3.2763,-3.3063,-3.3408,-3.3734,-3.3762,-3.3762,-3.3807,-3.3807,-3.3807,-3.3807,-3.3762,-3.3762,-3.3807,-3.3762,0.0,0.0,0.0,0.0,0.0,0.0,0.0,0.0,0.0,0.0,0.0,0.0,0.0,0.0,0.0,0.0,0.0,0.0,0.0,0.0,0.0,0.0,0.0,0.0,0.0,0.0,0.0,0.0,-2.8943,-2.9751,0.0,-2.9642,-3.0864,-3.1568,-3.1339,-3.2283,-3.2876,-3.2869,-3.3394,-3.3671,-3.3662,-3.3938,-3.4093,-3.4093,-3.4093,-3.4093,-3.4093,-3.4093,-3.4093,-3.4093,-3.4037,-3.4037,-3.4037,-3.3997,-3.4014,-3.3922,-3.339,-3.2779,-3.2088,-3.1793,-3.1363,-3.0828,-3.0535,-3.0412,-3.0412,-3.0412,-3.0412,-3.0328,-2.9854,-2.9702,-2.9702,-2.9702,-2.9702,-2.9841,-3.0357,-3.0493,-3.0489,-3.0714,-3.0714,-3.0802,-3.117,-3.1313,-3.1418,-3.1731,-3.1746,-3.166,-3.1401,-3.1482,-3.1617,-3.1617,-3.1671,-3.1709,-3.1617,-3.1966,-3.2214,-3.2109,-3.2716,-3.3124,-3.3124,-3.3437,-3.368,-3.3788,-3.3807,-3.3807,-3.3807,-3.3807,-3.3807,-3.3807,-3.3807,-3.3807,-3.3807,-3.3842,-3.3842,0.0,0.0,0.0,0.0,0.0,0.0,0.0,0.0,0.0,0.0,0.0,0.0,0.0,0.0,0.0,0.0,0.0,0.0,0.0,0.0,0.0,0.0,0.0,0.0,0.0,0.0,-2.9811,-3.0082,-3.0908,-3.1363,-3.1162,-3.2479,-3.3171,-3.293,-3.3649,-3.4224,-3.4444,-3.4703,-3.4967,-3.5232,-3.5473,-3.5611,-3.5611,-3.5611,-3.5611,-3.5611,-3.5611,-3.5611,-3.5611,-3.5611,-3.5611,-3.5611,-3.5611,-3.5473,-3.5232,-3.5232,-3.4547,-3.3425,-3.3048,-3.2559,-3.1981,-3.1975,-3.1935,-3.1935,-3.1975,-3.2094,-3.2076,-3.1227,-3.1107,-3.1261,-3.0837,-3.0731,-3.0834,-3.137,-3.1428,-3.1346,-3.15,-3.1517,-3.1555,-3.1634,-3.1709,-3.1746,-3.18,-3.18,-3.1819,-3.1965,-3.1819,-3.1671,-3.1671,-3.1839,-3.1893,-3.1709,-3.2231,-3.257,-3.2318,-3.297,-3.3437,-3.3321,-3.3597,-3.3807,-3.3807,-3.3807,-3.3807,-3.3807,-3.3807,-3.3807,-3.3807,-3.3807,-3.3807,-3.3807,-3.3928,-3.3986,-3.3961,0.0,0.0,0.0,0.0,0.0,0.0,0.0,0.0,0.0,0.0,0.0,0.0,0.0,0.0,0.0,0.0,0.0,0.0,0.0,0.0,0.0,0.0,0.0,-3.0731,-3.0407,-3.0726,-3.2178,-3.2706,-3.3076,-3.3405,-3.3911,-3.4189,-3.4198,-3.4241,-3.453,-3.5257,-3.5993,-3.6732,-3.7491,-3.8215,-3.8594,-3.8594,-3.8594,-3.8594,-3.8594,-3.8594,-3.8594,-3.8594,-3.8594,-3.8594,-3.8594,-3.8594,-3.818,-3.7508,-3.7508,-3.6646,-3.5214,-3.4144,-3.3615,-3.3406,-3.3406,-3.3406,-3.3448,-3.359,-3.3882,-3.4042,-3.2985,-3.3132,-3.3527,-3.2424,-3.2108,-3.2108,-3.2108,-3.1854,-3.1606,-3.1685,-3.1665,-3.1627,-3.1797,-3.1726,-3.1654,-3.18,-3.1837,-3.1929,-3.2249,-3.2055,-3.1819,-3.1819,-3.2091,-3.2232,-3.1893,-3.2684,0.0,-3.2403,-3.3184,-3.368,-3.335,-3.3625,-3.3807,-3.3807,-3.3807,-3.3807,-3.3788,-3.3807,-3.3807,-3.3788,-3.3788,-3.3807,-3.3815,-3.4093,-3.4246,-3.4334,0.0,0.0,0.0,0.0,0.0,0.0,0.0,0.0,0.0,0.0,0.0,0.0,0.0,0.0,0.0,0.0,0.0,0.0,0.0,0.0,0.0,0.0,-3.211,-3.1576,-3.1863,-3.2492,-3.3488,-3.3727,-3.4019,-3.4621,-3.5313,-3.5954,-3.654,-3.7068,-3.7456,-3.7671,-3.7868,-3.8057,-3.8284,-3.8474,-3.8594,-3.8594,-3.8594,-3.8594,-3.8594,-3.8594,-3.8594,-3.8594,-3.8594,-3.8594,-3.8594,-3.8594,-3.8474,-3.8284,-3.8284,-3.82,-3.7823,-3.557,-3.4316,-3.3738,-3.3714,-3.3819,-3.4047,-3.4376,-3.4526,-3.4491,-3.4224,-3.4303,-3.4429,-3.4111,-3.4058,-3.4111,-3.4217,-3.4111,-3.4005,-3.4182,-3.3547,-3.291,-3.3001,-3.2546,-3.2109,-3.2144,-3.2369,-3.2553,-3.2651,-3.2586,-3.2519,-3.2519,-3.2619,-3.2619,-3.2553,-3.297,0.0,-3.3032,-3.3494,-3.3762,-3.368,-3.3734,-3.3807,-3.3807,-3.3807,-3.3815,-3.3868,-3.3834,-3.3815,-3.3868,-3.3868,-3.3998,-3.4293,-3.4483,-3.4612,0.0,0.0,0.0,0.0,0.0,0.0,0.0,0.0,0.0,0.0,0.0,0.0,0.0,0.0,0.0,0.0,0.0,0.0,0.0,0.0,0.0,0.0,-3.261,-3.3473,-3.3662,-3.3524,-3.38,-3.4887,-3.5007,-3.5462,-3.6523,-3.6997,-3.7447,-3.7948,-3.8353,-3.8705,-3.9038,-3.9055,-3.9239,-3.9543,-3.9543,-3.9543,-3.9543,-3.9543,-3.9543,-3.9543,-3.9543,-3.9543,-3.9543,-3.9543,-3.9543,-3.9543,-3.9543,-3.9353,-3.9105,-3.9267,-3.9294,0.0,0.0,0.0,0.0,0.0,-3.5682,-3.5948,-3.586,-3.5936,-3.5972,-3.5563,-3.565,-3.5816,-3.5341,-3.5198,-3.5265,-3.5334,-3.5182,-3.5028,-3.5166,-3.4674,-3.4164,-3.4199,-3.3863,-3.3526,-3.3526,-3.3661,-3.3841,-3.4002,-3.4015,0.0,-3.4225,-3.3574,-3.2952,-3.2827,-3.3214,-3.3465,-3.3321,-3.3578,-3.3807,-3.3807,-3.3834,-3.3815,-3.3788,-3.3834,0.0,0.0,0.0,-3.3868,-3.3947,-3.4012,0.0,0.0,0.0,-3.4908,-3.4963,0.0,0.0,0.0,-3.4981,-3.4926,0.0,0.0,0.0,0.0,0.0,0.0,0.0,0.0,0.0,0.0,0.0,0.0,0.0,0.0,0.0,0.0,-3.3766,-3.48,-3.6111,-3.5301,-3.51,-3.6404,-3.6542,-3.712,-3.8572,-3.8735,-3.8777,-3.8836,-3.8853,-3.9152,-3.9821,0.0,0.0,0.0,0.0,-4.0888,-4.0888,-4.0888,-4.0888,-4.0888,-4.0888,-4.0888,-4.0888,-4.0888,-4.0888,-4.0888,-4.0888,-4.0521,-3.9956,-4.0342,-4.0172,-3.9557,-3.8833,-3.8747,-3.8926,-3.8286,-3.8267,-3.8549,-3.7932,0.0,0.0,-3.7075,-3.7229,-3.7528,-3.6357,-3.6041,-3.6041,-3.6041,-3.5833,-3.557,-3.557,-3.5516,-3.5411,-3.5411,-3.5339,-3.5267,-3.5267,-3.5267,-3.5418,-3.5706,-3.5768,-3.5879,-3.6256,-3.4809,-3.3533,-3.3239,-3.3709,-3.3954,-3.368,-3.3899,-3.4082,-3.4082,0.0,0.0,-3.3962,-3.3923,-3.3921,-3.3921,-3.3921,-3.3947,-3.3998,-3.4237,-3.4416,-3.4539,-3.4945,-3.5174,-3.5242,-3.5417,-3.5493,-3.5493,-3.507,-3.4963,0.0,0.0,0.0,0.0,0.0,0.0,0.0,0.0,0.0,0.0,0.0,0.0,0.0,0.0,0.0,-3.3835,-3.499,-3.5973,-3.6266,-3.7128,-3.7863,-3.8094,-3.8165,-3.852,-3.9399,-3.9489,-3.9749,-4.0435,-4.044,-4.0526,-4.0634,-4.0664,-4.0716,-4.0888,-4.0888,-4.0888,-4.0888,-4.0888,-4.0888,-4.0888,0.0,0.0,-4.0888,-4.0888,-4.0888,-4.0888,-4.0888,-4.1001,-4.1173,-4.1262,-4.1435,-4.1505,-4.0144,-3.9629,-3.9729,-3.9892,-3.9967,-4.0059,-4.0217,-4.0247,-4.0102,-3.9252,-3.9148,-3.9168,-3.8259,-3.8021,0.0,-3.812,-3.8071,-3.8008,-3.8008,-3.7358,-3.6656,-3.6656,-3.61,-3.5593,-3.5593,-3.5866,-3.612,-3.6179,-3.6179,-3.6208,-3.6285,-3.597,-3.5692,-3.5645,-3.575,-3.5779,-3.5721,-3.5779,-3.5826,-3.5826,-3.5294,-3.4935,-3.4935,-3.4352,-3.3998,-3.4049,-3.4074,-3.4074,-3.4074,-3.4483,-3.4733,-3.4812,-3.5226,-3.5432,-3.5432,-3.5479,-3.5493,-3.5493,-3.5417,-3.5379,0.0,0.0,0.0,0.0,0.0,0.0,0.0,0.0,0.0,0.0,0.0,-3.3059,0.0,0.0,-3.5197,-3.5197,-3.6473,-3.7577,-3.7939,-3.8656,-3.9168,-3.9129,-3.916,-3.9465,-4.0245,-4.0308,-4.0619,-4.1405,-4.1457,-4.1612,-4.2009,-4.2026,-4.2026,-4.2026,-4.2026,-4.2026,-4.2026,-4.2026,-4.2026,-4.2026,-4.163,-4.144,-4.1423,-4.1043,-4.0888,-4.0888,-4.0888,-4.1117,-4.1516,-4.199,-4.244,-4.2755,-4.1995,-4.1577,-4.1373,-4.1125,-4.1197,-4.1302,-4.1107,-4.1013,-4.087,-4.0485,-4.0408,-4.0386,-3.9928,-3.9575,-3.9294,-3.9294,-3.9019,-3.8707,-3.8707,-3.8272,-3.7849,-3.7849,-3.752,-3.721,-3.721,-3.7369,-3.7496,-3.7496,-3.7496,-3.7496,-3.7555,-3.7537,-3.7279,-3.647,-3.6342,-3.637,-3.6398,-3.638,-3.638,-3.638,-3.6113,-3.59,-3.5846,-3.5151,-3.4722,-3.4747,-3.4365,-3.4221,-3.434,-3.4672,-3.4908,-3.5054,-3.5339,-3.5488,-3.5495,-3.5495,-3.5528,-3.5541,-3.5541,-3.5522,0.0,0.0,0.0,0.0,0.0,0.0,0.0,0.0,-3.2591,-3.3142,-3.3904,-3.4454,-3.453,-3.5628,-3.6577,-3.6715,-3.7905,-3.9008,-3.9612,-3.9819,-3.9974,-4.0124,-4.0158,-4.04,-4.1073,-4.1233,-4.1595,-4.2184,-4.2233,-4.2492,-4.3197,-4.3214,-4.3214,-4.3214,-4.3214,-4.3214,-4.3214,-4.3214,-4.3214,-4.3214,-4.2526,-4.2265,-4.2375,-4.1769,-4.1452,-4.1389,-4.1324,-4.1463,-4.1821,-4.2655,-4.3232,-4.3497,-4.3497,-4.3304,-4.2922,-4.2232,-4.2193,-4.2433,-4.1791,-4.1589,-4.1552,-4.1387,-4.135,-4.1313,-4.1167,-4.0653,-4.012,-4.012,-3.9551,-3.8927,-3.8927,-3.8817,-3.8707,-3.8707,-3.8707,-3.8707,-3.8707,-3.8707,-3.8707,-3.8738,-3.8719,-3.875,-3.8822,-3.8822,-3.8379,-3.709,-3.6905,-3.6915,-3.6953,-3.698,-3.698,-3.698,-3.6887,-3.6766,-3.6545,-3.5988,-3.5644,-3.5644,-3.5076,-3.4853,-3.5074,-3.5324,-3.5529,-3.5701,-3.5893,-3.6009,-3.5997,-3.5997,-3.6029,-3.6093,-3.6105,-3.5881,-3.3351,-3.3405,-3.3305,-3.302,-3.3485,-3.3947,0.0,0.0,-3.4746,-3.4531,-3.5089,-3.571,-3.6004,-3.6766,-3.756,-3.8232,-3.9026,-3.9612,-3.9681,-4.0302,-4.1034,-4.1631,-4.173,-4.1769,-4.1885,-4.2492,-4.3007,-4.3044,-4.3093,-4.3128,-4.3214,-4.3214,-4.3214,-4.3214,-4.3214,-4.3214,-4.3214,-4.3214,-4.3214,-4.3214,-4.3128,-4.3287,-4.3682,-4.3594,-4.3384,-4.3095,-4.2803,-4.2711,-4.2788,-4.325,-4.3444,-4.3497,-4.3497,-4.3479,-4.3444,-4.33,-4.3316,-4.3332,-4.3259,-4.3222,-4.3112,-4.2396,-4.2176,-4.2029,-4.1332,-4.1056,-4.0983,-4.0983,-4.0396,-3.9772,-3.9772,-3.9239,-3.8707,-3.8707,-3.8707,-3.8707,-3.8707,-3.8707,-3.8738,-3.8762,-3.8792,-3.8822,-3.8881,-3.891,-3.8836,-3.867,-3.8633,-3.8633,-3.8633,-3.8633,-3.8633,-3.8633,-3.8044,-3.7404,-3.6734,-3.6612,-3.6556,-3.6556,-3.6657,-3.6727,-3.6814,-3.7186,-3.7433,-3.7517,-3.7709,-3.781,-3.781,-3.781,-3.781,-3.781,-3.7887,-3.7088,-3.3465,-3.4,-3.4421,0.0,-3.4619,-3.5168,-3.5011,-3.5477,-3.5846,-3.5741,-3.6664,-3.7453,-3.7347,-3.8579,-3.9592,0.0,-4.0508,-4.1155,-4.1155,-4.1593,-4.2068,-4.2358,-4.3206,-4.3447,-4.2765,-4.3013,-4.3357,-4.3801,-4.3819,-4.4026,-4.4458,-4.4492,-4.4492,-4.4492,-4.4492,-4.4492,-4.4492,-4.4492,-4.4492,-4.4475,-4.4027,-4.4086,-4.4548,-4.4109,-4.3978,-4.4085,-4.374,-4.3588,-4.359,-4.3541,-4.3497,-4.3497,-4.3497,-4.3497,-4.3497,-4.3497,-4.3497,-4.3497,-4.3497,-4.3497,-4.3424,-4.3112,-4.3002,-4.2928,-4.2598,-4.2176,-4.1809,-4.1809,-4.1222,-4.0598,-4.0598,-4.0359,-4.0102,-4.0102,-3.9766,-3.9448,-3.9448,-3.9111,-3.8822,-3.8851,-3.8851,-3.8881,-3.8968,-3.8968,-3.8979,-3.9007,-3.8979,-3.8979,-3.8989,-3.9036,-3.9036,-3.9036,-3.8748,-3.8442,-3.8189,-3.7724,-3.7471,-3.7504,-3.7268,-3.7168,-3.7334,-3.7599,-3.7836,-3.7959,-3.8053,-3.8112,-3.8157,-3.8157,-3.8157,-3.8163,-3.8194,-3.7808,-3.4084,-3.4767,0.0,-3.5082,-3.5624,-3.6206,-3.6206,-3.6816,-3.7322,-3.7218,-3.8277,-3.9133,-3.8974,-4.0131,-4.1047,-4.093,-4.1635,-4.2287,-4.2483,-4.2721,-4.3049,-4.3543,-4.4533,-4.4925,-4.432,-4.4237,-4.4386,-4.4798,-4.4831,-4.499,-4.5389,-4.5423,-4.5423,-4.5423,-4.5423,-4.5423,-4.5423,-4.5423,-4.5423,-4.5423,-4.5009,-4.505,-4.5511,-4.5009,-4.4961,-4.5245,-4.4787,-4.4487,-4.4233,-4.396,-4.3699,-4.3497,-4.3497,-4.3497,-4.3497,-4.3497,-4.3497,-4.3497,-4.3497,-4.3497,-4.3497,-4.3497,-4.3497,-4.3497,-4.3497,-4.3075,-4.2635,-4.2635,-4.2047,-4.1442,-4.1442,-4.1277,-4.1111,-4.1126,-4.0717,-4.0338,-4.0388,-3.9988,-3.9575,-3.9605,-3.942,-3.9301,-3.9359,-3.9202,-3.9045,-3.9101,-3.9073,-3.9064,-3.9101,-3.9129,-3.9129,-3.9129,-3.9156,-3.9202,-3.9256,-3.8715,-3.8413,-3.8527,-3.8184,-3.8077,-3.8288,-3.8495,-3.8686,-3.8852,-3.8852,-3.8884,-3.8916,-3.8916,-3.8909,-3.8914,-3.8914,-3.8914,-3.6076,0.0,-3.6362,-3.6333,-3.6912,-3.747,-3.7529,-3.8701,-3.9662,-3.9275,-3.9858,-4.0564,-4.0921,-4.1078,-4.1346,-4.2055,-4.2198,-4.2465,-4.3257,-4.3382,-4.3982,-4.5588,-4.5734,-4.5994,0.0,-4.6823,-4.6624,-4.62,-4.6125,-4.593,-4.5423,-4.5423,-4.5423,-4.5423,-4.5423,-4.5423,-4.5423,-4.5423,-4.5423,-4.5423,-4.592,-4.6376,-4.6855,-4.6961,-4.7001,-4.7002,-4.6177,-4.5388,-4.4673,-4.469,-4.4195,-4.3497,-4.3497,-4.3497,-4.3497,-4.3497,-4.3497,-4.3497,-4.3497,-4.3497,-4.3497,-4.3497,-4.3497,-4.3497,-4.3497,-4.3461,-4.3442,-4.3442,-4.2873,-4.2268,-4.2268,-4.168,-4.1111,-4.1172,-4.1185,-4.1217,-4.1348,-4.1329,-4.1342,-4.1403,-4.0748,-4.0193,-4.0346,-3.9658,-3.9101,-3.9101,-3.9156,-3.9183,-3.9101,-3.9156,-3.9183,-3.9183,-3.9301,-3.9391,-3.9373,-3.9354,-3.9427,-3.9557,-3.9783,-4.0043,-4.0312,-4.0521,-4.0655,-4.0713,-4.0713,-4.0713,-4.0713,-4.0713,-4.0713,-4.0713,-4.0713,-4.0713,-3.639,0.0,-3.7247,-3.7219,-3.8173,-3.9136,-3.9136,-3.995,-4.0657,-4.0507,-4.1129,-4.163,-4.1448,-4.2122,-4.2668,-4.2675,-4.2902,-4.3323,-4.4142,-4.4497,-4.5062,-4.6158,-4.6798,0.0,0.0,0.0,0.0,-4.6687,-4.6641,-4.6434,-4.5979,-4.5943,-4.5769,-4.5441,-4.5423,-4.5423,-4.5423,-4.5423,-4.5563,-4.5955,-4.6753,-4.7204,-4.7378,-4.7722,-4.7921,-4.7865,-4.7058,-4.6544,-4.6232,-4.5149,-4.4544,-4.425,-4.3699,-4.3497,-4.3497,-4.3497,-4.3497,-4.3497,-4.3497,-4.3497,-4.3497,-4.3497,-4.3497,-4.3497,-4.3497,-4.3497,-4.3497,-4.3497,-4.3296,-4.3128,-4.3143,-4.2959,-4.2791,-4.2908,-4.2548,-4.2192,-4.2273,-4.1878,-4.1549,-4.1579,-4.1338,-4.1134,-4.1181,-4.094,-4.0783,-4.0821,-3.9891,-3.921,-3.9275,-3.932,-3.9328,-3.9328,-3.9373,-3.9418,-3.9469,-3.9469,-3.9558,-3.9788,-4.0021,-4.0232,-4.0457,-4.066,-4.0778,-4.079,-4.079,-4.079,-4.079,-4.079,-4.079,-4.079,-4.079,-4.0803,-3.735,-3.7757,-3.8219,-3.8456,-3.9294,-4.0111,-4.0425,-4.1043,-4.1548,-4.1548,-4.2209,-4.264,-4.234,-4.2938,-4.341,-4.3178,-4.3339,-4.3826,-4.4671,-4.526,-4.5916,-4.6775,-4.7597,-4.8111,0.0,0.0,0.0,-4.7244,-4.7246,-4.7005,-4.6499,-4.6481,-4.6326,-4.5972,-4.5771,-4.5667,-4.5667,-4.5718,-4.6038,-4.6707,-4.7317,-4.7674,-4.7856,-4.8172,-4.8306,-4.8269,-4.7755,-4.7388,-4.704,-4.5993,-4.5223,-4.4654,-4.4121,-4.3754,-4.3497,-4.3497,-4.3497,-4.3497,-4.3497,-4.3497,-4.3497,-4.3497,-4.3497,-4.3497,-4.3497,-4.3497,-4.3497,-4.3497,-4.3497,-4.3532,-4.3582,-4.3582,-4.3634,-4.3786,-4.3476,-4.3138,-4.315,-4.2804,-4.2463,-4.2463,-4.2222,-4.2017,-4.2047,-4.1864,-4.1688,-4.1773,-4.0858,-4.0074,-3.9858,-3.9605,-3.9444,-3.9444,-3.9469,-3.9495,-3.952,-3.9602,-3.9754,-3.9979,-4.0196,-4.0408,-4.0598,-4.0733,-4.079,-4.079,-4.079,-4.079,-4.079,-4.079,-4.079,-4.079,-4.0803,-4.0796,-3.8869,-3.9044,-3.9266,-4.0026,-4.0226,-4.0473,-4.1348,-4.2031,-4.2456,-4.2456,-4.3015,-4.3532,0.0,0.0,-4.3532,-4.3582,-4.3566,-4.3879,-4.4849,-4.5657,-4.6468,0.0,0.0,0.0,0.0,0.0,0.0,-4.7902,0.0,-4.7621,-4.7055,-4.7021,-4.7061,-4.7025,-4.6523,-4.6237,-4.6235,-4.6266,-4.6724,-4.7591,-4.7632,-4.7856,-4.8306,-4.8306,-4.8306,-4.8306,-4.8306,-4.7884,-4.7186,-4.7094,-4.6214,-4.4819,-4.4745,-4.4232,-4.3552,-4.3516,-4.3497,-4.3497,-4.3497,-4.3497,-4.3497,-4.3497,-4.3497,-4.3497,-4.3497,-4.3497,-4.3497,-4.3497,-4.3479,-4.3513,-4.3582,-4.3615,-4.3649,-4.3865,-4.3915,-4.3929,-4.3974,-4.4005,-4.4005,-4.4005,-4.3392,-4.2883,-4.2973,-4.2389,-4.1968,-4.2023,-4.1986,-4.164,-4.0782,-4.0068,-3.9626,-3.9626,-3.9683,-3.969,-3.9677,-3.9834,-4.0036,-4.0196,-4.0389,-4.0583,-4.079,-4.079,-4.079,-4.079,-4.079,-4.079,-4.079,-4.079,-4.0803,-4.0803,-4.0846,-4.0878,-3.9045,-3.9556,-4.0076,-4.0174,-4.1126,-4.2106,-4.2297,-4.2899,-4.3439,-4.3439,-4.352,-4.3582,0.0,0.0,0.0,-4.3587,-4.3674,0.0,-4.4884,-4.5703,0.0,0.0,0.0,-4.8765,-4.8892,-4.8713,0.0,0.0,-4.844,-4.8179,-4.7709,-4.7652,-4.7514,-4.715,-4.7029,-4.6918,-4.6791,-4.708,-4.736,-4.7591,-4.7937,-4.8172,-4.8306,-4.8306,-4.8306,-4.8306,-4.8306,-4.8196,-4.7957,-4.737,-4.6874,-4.6379,-4.5186,-4.458,-4.4323,-4.3718,-4.3497,-4.3497,-4.3497,-4.3497,-4.3497,-4.3497,-4.3497,-4.3497,-4.3497,-4.3497,-4.3497,-4.3497,-4.3532,-4.36,-4.3719,-4.3786,-4.3865,-4.3942,-4.3974,-4.3974,-4.4005,-4.4005,-4.4005,-4.4005,-4.3918,-4.3837,-4.3867,-4.377,-4.3679,-4.3746,-4.324,-4.2566,-4.1732,-4.1477,-4.1372,-4.1372,-4.1372,-4.1154,-4.0553,-4.0684,-4.0604,-4.0234,-4.0389,-4.0583,-4.079,-4.079,-4.079,-4.079,-4.079,-4.079,-4.079,-4.0796,-4.0808,-4.0827,-4.1463,-4.1795,-3.9165,-3.9733,-4.0476,-4.0752,-4.179,-4.2817,-4.3138,-4.3272,-4.3333,-4.3333,-4.289,0.0,0.0,0.0,0.0,0.0,0.0,0.0,-4.4498,-4.556,-4.652,0.0,-4.8155,0.0,-4.8909,-4.8802,-4.8748,0.0,-4.875,-4.8566,-4.8301,-4.8282,-4.8161,-4.7899,-4.7645,-4.7456,-4.7409,-4.7596,-4.7838,-4.8038,-4.8267,-4.8401,-4.8401,-4.8324,-4.8306,-4.8306,0.0,-4.8306,-4.8269,-4.7829,-4.7443,-4.7003,-4.5736,-4.5021,-4.4617,-4.3791,-4.3497,-4.3497,-4.3497,-4.3497,-4.3497,-4.3497,-4.3497,-4.3497,-4.3497,-4.3513,-4.3548,-4.3548,-4.36,-4.3701,-4.3818,-4.3883,-4.3929,-4.3974,-4.4005,-4.4005,-4.4005,-4.4005,-4.4005,-4.4085,-4.4165,-4.4244,-4.4285,-4.4344,-4.4401,-4.4458,-4.4065,-4.3615,-4.3154,-4.2441,-4.1991,-4.1991,-4.1991,-4.1863,-4.1537,-4.1696,-4.1702,-4.1433,-4.1617,-4.1774,-4.1893,-4.1893,-4.1893,-4.1893,-4.1925,-4.1938,-4.1938,-4.1955,-4.1947,-4.1947,-4.2446,-4.2682,-3.9287,-3.9825,-4.0645,-4.1324,-4.2095,-4.2876,-4.3522,-4.3089,-4.2545,-4.2545,0.0,-4.1267,-4.1298,-4.1843,-4.2359,-4.2649,0.0,-4.374,-4.3955,-4.5324,-4.6387,-4.6496,-4.7914,-4.8909,-4.8909,-4.8909,-4.8909,-4.8909,-4.8853,-4.8816,-4.8816,-4.8816,-4.8802,-4.8806,-4.8286,-4.8035,-4.8038,-4.7999,-4.8212,-4.8587,-4.855,-4.8494,-4.8494,-4.8382,-4.8344,-4.8344,-4.8344,0.0,-4.8324,-4.8306,-4.7902,-4.7186,-4.6269,-4.548,-4.4764,-4.3828,-4.3497,-4.3497,-4.3497,-4.3532,-4.3513,-4.3479,-4.3532,-4.3513,-4.3513,-4.3566,-4.3634,-4.3634,-4.3719,-4.3837,-4.3865,-4.3897,-4.3929,-4.3974,-4.4005,-4.4005,-4.4005,-4.4005,-4.4036,-4.4184,-4.4274,-4.4314,-4.4383,-4.4458,-4.4515,-4.4515,-4.4515,-4.4515,-4.4515,-4.3238,-4.2355,-4.2363,-4.2363,-4.241,-4.2587,-4.2768,-4.2928,-4.3006,-4.3197,-4.3305,-4.3305,-4.3305,-4.3305,-4.3305,-4.3363,-4.3407,-4.3407,-4.3393,-4.3397,-4.3397,-4.3527,-4.3596,-3.9709,-4.0306,-4.0957,-4.0884,-4.1469,-4.2043,-4.2021,-4.1906,0.0,0.0,-4.1612,-4.1459,-4.1459,-4.1588,0.0,-4.2595,0.0,0.0,0.0,0.0,-4.648,0.0,0.0,0.0,0.0,0.0,0.0,0.0,0.0,-4.889,-4.889,-4.889,-4.889,-4.8874,-4.8732,-4.8624,-4.8642,-4.855,-4.8514,-4.8587,-4.8605,-4.8569,-4.8569,-4.855,-4.855,-4.855,-4.8476,0.0,-4.8457,-4.8363,-4.8233,-4.7957,-4.6471,-4.581,-4.5516,-4.403,-4.3497,-4.3497,-4.3497,-4.3532,-4.3582,-4.3532,-4.3532,-4.3582,-4.3582,-4.3667,-4.3771,-4.3771,-4.3818,-4.3883,-4.3915,-4.3961,-4.3974,-4.4005,-4.4005,-4.4005,-4.4005,-4.4005,-4.4055,-4.4255,-4.4285,-4.4314,-4.4383,-4.4458,-4.4515,-4.4515,-4.4515,-4.4515,-4.4515,-4.4252,-4.411,-4.4226,-4.4226,-4.4077,-4.3662,-4.377,-4.3635,-4.3131,-4.3231,-4.3305,-4.3305,-4.335,-4.3382,-4.3382,-4.3381,-4.3404,-4.3404,-4.3388,-4.341,-4.343,-4.4189,-4.4549,-3.984,-4.0442,-4.106,-4.0944,-4.1523,-4.2046,-4.18,0.0,0.0,0.0,-4.0566,-4.0211,-4.0251,0.0,0.0,0.0,0.0,0.0,0.0,0.0,0.0,0.0,0.0,0.0,0.0,0.0,0.0,0.0,0.0,-4.8909,-4.8909,-4.8909,-4.8909,-4.8909,-4.8874,-4.8839,-4.8839,-4.8785,-4.875,-4.875,-4.8714,-4.8697,-4.8697,-4.8642,-4.8587,-4.8587,-4.8587,0.0,-4.855,-4.8495,-4.8458,-4.8329,-4.7132,-4.6414,-4.5898,-4.4685,-4.3986,-4.3652,-4.3566,-4.3634,-4.3719,-4.3686,-4.3686,-4.3667,-4.3615,-4.3701,-4.3851,-4.3851,-4.3897,-4.3974,-4.4121,-4.4162,-4.425,-4.4374,-4.4402,-4.4318,-4.4048,-4.414,-4.4298,-4.4412,-4.4393,-4.4411,-4.4576,-4.456,-4.4515,-4.4515,-4.4515,-4.4551,-4.4629,-4.4681,-4.4726,-4.4693,-4.4712,-4.4706,-4.467,-4.4729,-4.4701,-4.4568,-4.4621,-4.4654,-4.4654,-4.4679,-4.4698,-4.4698,-4.4735,-4.4746,-4.4758,-4.4741,-4.4762,-4.4762,-4.522,-4.5414,-3.9946,-4.0458,-4.0969,-4.0927,-4.138,-4.1783,-4.1512,-4.0778,0.0,0.0,-3.9175,-3.8535,-3.8599,0.0,0.0,0.0,0.0,0.0,0.0,0.0,0.0,0.0,0.0,0.0,0.0,0.0,0.0,0.0,0.0,0.0,-4.8909,-4.8909,-4.8909,-4.8909,-4.8909,-4.8909,-4.8909,-4.8909,-4.8909,-4.8909,-4.8857,-4.8822,-4.8822,-4.8714,-4.866,-4.866,-4.8642,0.0,0.0,-4.8587,-4.8587,-4.8513,-4.7701,-4.6906,-4.6112,-4.525,-4.4438,-4.3771,-4.3667,-4.3719,-4.3837,-4.3804,-4.3804,-4.3786,-4.3701,-4.3814,-4.4005,-4.4005,-4.4079,-4.4221,-4.443,-4.4493,-4.4546,-4.4751,-4.48,-4.4676,-4.4279,-4.4402,-4.4617,-4.4676,-4.461,-4.4629,-4.4843,-4.4739,-4.4667,-4.4667,-4.4667,-4.4707,-4.4872,-4.4924,-4.4943,-4.4881,-4.4857,-4.503,-4.5453,-4.5488,-4.5623,-4.5905,-4.5917,-4.5905,-4.5905,-4.5917,-4.5917,-4.5917,-4.5972,-4.6003,-4.6003,-4.6005,-4.5997,-4.5997,-4.5997,-4.5997,-4.0246,-4.0479,-4.0504,-4.0329,-4.0349,-4.0309,-4.0056,0.0,0.0,-3.8484,-3.7644,-3.6904,-3.6928,-3.7559,0.0,0.0,0.0,-4.1973,0.0,0.0,0.0,0.0,0.0,0.0,0.0,0.0,0.0,0.0,0.0,0.0,-4.8909,-4.8909,-4.8909,-4.8909,-4.8909,-4.8909,-4.8909,-4.8909,-4.8909,-4.8909,-4.8909,-4.8909,-4.8909,-4.8874,-4.8855,-4.8874,-4.8822,0.0,0.0,-4.8642,-4.8587,-4.8513,-4.7701,-4.6906,-4.6094,-4.53,-4.4506,-4.3804,-4.3804,-4.3818,-4.3883,-4.3837,-4.3818,-4.3883,-4.3883,-4.4091,-4.4346,-4.4346,-4.4519,-4.4726,-4.4751,-4.4751,-4.4776,-4.4776,-4.48,-4.48,-4.48,-4.4825,-4.4896,-4.503,-4.5052,-4.5052,-4.5159,-4.5159,-4.5137,-4.5137,-4.5137,-4.514,-4.5166,-4.5166,-4.5246,-4.5418,-4.5436,-4.5524,-4.5833,-4.58,-4.5827,-4.598,-4.5929,-4.5905,-4.5905,-4.596,-4.5991,-4.5991,-4.6005,-4.5997,-4.5997,-4.5997,-4.5997,-4.5997,-4.5997,-4.5997,-3.9815,-4.0123,-4.0473,-4.0389,-4.0372,-4.0152,-3.9269,0.0,-3.8407,-3.7511,-3.7094,-3.6839,-3.6712,-3.7355,-3.7986,-3.8321,-4.0188,0.0,0.0,0.0,0.0,0.0,0.0,0.0,0.0,0.0,0.0,0.0,0.0,0.0,-4.8909,-4.8909,-4.8909,-4.8909,-4.8909,-4.8909,-4.8909,-4.8909,-4.8909,-4.8909,-4.8909,-4.8909,-4.8909,-4.8909,-4.8909,-4.8909,-4.8874,0.0,0.0,-4.8785,-4.8785,-4.8748,-4.8433,-4.7525,-4.6338,-4.5938,-4.4975,-4.3897,-4.3883,-4.3897,-4.3961,-4.3929,-4.3929,-4.3942,-4.3897,-4.4121,-4.4383,-4.4383,-4.4599,-4.4825,-4.5007,-4.5159,-4.5243,-4.5074,-4.5201,-4.5243,-4.4896,-4.5052,-4.5263,-4.5225,-4.5203,-4.5222,-4.5343,-4.5264,-4.5201,-4.5201,-4.5201,-4.5244,-4.5436,-4.5433,-4.5536,-4.578,-4.5626,-4.561,-4.588,-4.588,-4.5899,-4.5994,-4.5975,-4.5964,-4.5964,-4.5994,-4.6005,-4.6005,-4.5997,-4.5997,-4.5997,-4.5997,-4.5997,-4.5997,-4.5997,-4.5997,-3.8988,-3.9335,-3.9815,-4.0065,-3.995,-3.9596,0.0,0.0,-3.7852,-3.6747,-3.6386,-3.6222,-3.5994,-3.6816,-3.7541,-3.7541,-3.9825,-4.159,-4.159,0.0,0.0,0.0,0.0,0.0,0.0,0.0,0.0,0.0,0.0,0.0,-4.8909,-4.8909,-4.8909,-4.8909,-4.8909,-4.8909,-4.8909,-4.8909,-4.8909,-4.8909,-4.8909,-4.8909,-4.8909,-4.8909,-4.8909,-4.8909,-4.8909,0.0,0.0,-4.8909,-4.8909,-4.889,-4.8649,-4.7701,-4.6457,-4.6131,-4.5148,-4.4005,-4.3961,-4.3942,-4.4005,-4.4005,-4.4005,-4.4005,-4.4048,-4.4279,-4.4546,-4.4624,-4.4825,-4.5074,-4.5263,-4.5476,-4.555,-4.5362,-4.5513,-4.5586,-4.5159,-4.5323,-4.5547,-4.5454,-4.5418,-4.5418,-4.5558,-4.5472,-4.5381,-4.5381,-4.5381,-4.5454,-4.5658,-4.5684,-4.5775,-4.5972,-4.5789,-4.5733,-4.5912,-4.5925,-4.5949,-4.5997,-4.5997,-4.5997,-4.5997,-4.5997,-4.5997,-4.5997,-4.5997,-4.5997,-4.5997,-4.5997,-4.5997,-4.5997,-4.5997,-4.6007,-3.7777,-3.8027,-3.8238,-3.9104,-3.8661,-3.8238,0.0,-3.7814,-3.6368,-3.6154,-3.5315,-3.4548,-3.4288,-3.559,-3.6705,-3.6705,-3.9454,-4.159,-4.159,0.0,0.0,0.0,0.0,0.0,0.0,0.0,0.0,0.0,0.0,0.0,-4.8909,-4.8909,-4.8909,-4.8909,-4.8909,-4.8909,-4.8909,-4.8909,-4.8909,-4.8909,-4.8909,-4.8909,-4.8909,-4.8909,-4.8909,0.0,0.0,0.0,0.0,-4.8909,-4.8909,-4.8816,-4.8017,-4.7218,-4.6401,-4.5602,-4.4748,-4.4005,-4.4005,-4.4005,-4.4005,-4.4005,-4.4005,-4.4048,-4.4318,-4.4572,-4.4849,-4.5118,-4.5381,-4.5586,-4.5605,-4.5586,-4.5586,-4.5605,-4.564,-4.5693,-4.5693,-4.5738,-4.58,-4.58,-4.5791,-4.578,-4.58,-4.58,-4.578,-4.578,-4.578,-4.5827,-4.5893,-4.5905,-4.591,-4.5997,-4.5997,-4.5997,-4.5997,-4.5997,-4.5997,-4.5997,-4.5997,-4.5997,-4.5997,-4.5997,-4.5997,-4.5997,-4.5997,-4.5997,-4.5997,-4.5997,-4.5997,-4.5997,-4.5997,-4.6047,-3.7199,-3.7546,-3.8065,-3.8334,-3.82,-3.7882,-3.7424,-3.6964,-3.6345,-3.5458,-3.502,-3.4733,-3.4498,-3.5696,-3.6686,-3.6686,-3.9454,-4.159,0.0,0.0,0.0,0.0,0.0,0.0,0.0,0.0,0.0,0.0,0.0,0.0,-4.8909,-4.8909,-4.8909,-4.8909,-4.8909,-4.8909,-4.8909,-4.8909,-4.8909,-4.8909,-4.8909,-4.8909,-4.8909,-4.8909,-4.8909,0.0,0.0,0.0,0.0,-4.8909,-4.8909,-4.8816,-4.8017,-4.7218,-4.6401,-4.5602,-4.4748,-4.4005,-4.4005,-4.4005,-4.4005,-4.4005,-4.4005,-4.4079,-4.4538,-4.4726,-4.4896,-4.5342,-4.5531,-4.5586,-4.5586,-4.5586,-4.5603,-4.5657,-4.5671,-4.5703,-4.5703,-4.5746,-4.5805,-4.5795,-4.5805,-4.58,-4.58,-4.58,-4.58,-4.58,-4.5847,-4.5874,-4.5905,-4.5949,-4.5972,-4.5997,-4.5997,-4.5997,-4.5997,-4.5997,-4.5997,-4.5997,-4.5997,-4.5997,-4.5997,-4.5997,-4.5997,-4.5997,-4.5997,-4.5997,-4.5997,-4.5997,-4.6017,-4.6075,-4.6075,-4.6099,0.0,-3.6642,-3.7142,-3.743,-3.7276,0.0,0.0,-3.6377,-3.6012,-3.5185,-3.4945,-3.485,-3.4645,-3.5744,-3.6686,-3.6686,-3.9454,0.0,0.0,0.0,0.0,0.0,0.0,0.0,0.0,0.0,0.0,0.0,0.0,0.0,-4.8909,-4.8909,-4.8909,-4.8909,-4.8909,-4.8909,-4.8909,-4.8909,-4.8909,-4.8909,-4.8909,-4.8909,-4.8909,-4.8909,-4.8909,0.0,0.0,0.0,0.0,-4.8909,-4.8909,-4.8797,-4.7683,-4.694,-4.6364,-4.5231,-4.4469,-4.4005,-4.4005,-4.4005,-4.4036,-4.4121,-4.4308,-4.4538,-4.4849,-4.503,-4.518,-4.5513,-4.5586,-4.5586,-4.5586,-4.5586,-4.5622,-4.5693,-4.5687,-4.5715,-4.5731,-4.5757,-4.58,-4.5791,-4.5805,-4.58,-4.58,-4.58,-4.58,-4.58,-4.586,-4.5887,-4.5905,-4.596,-4.6003,-4.5997,-4.5997,-4.5997,-4.5997,-4.5997,-4.5997,-4.5997,-4.5997,-4.5997,-4.5997,-4.5997,-4.5997,-4.5997,-4.5997,-4.5997,-4.5997,-4.6017,-4.6066,-4.6093,-4.6127,-4.6157,0.0,-3.5493,-3.568,0.0,0.0,0.0,-3.6449,-3.6045,0.0,-3.5258,-3.5054,-3.4869,-3.4722,-3.5805,-3.6723,-3.6835,-3.9528,0.0,0.0,0.0,0.0,0.0,0.0,0.0,0.0,0.0,0.0,0.0,0.0,0.0,-4.8909,-4.8909,-4.8909,-4.8909,-4.8909,-4.8909,-4.8909,-4.8909,-4.8909,-4.8909,-4.8909,-4.8909,-4.8909,-4.8909,-4.8909,0.0,0.0,0.0,0.0,-4.8909,-4.8909,-4.8742,-4.7125,-4.6494,-4.629,-4.4618,-4.4005,-4.4005,-4.4005,-4.3986,-4.4079,-4.4346,-4.4776,-4.5201,-4.5201,-4.54,-4.5586,-4.5586,-4.5586,-4.5586,-4.5586,-4.5603,-4.5622,-4.5693,-4.5703,-4.5715,-4.5781,-4.5805,-4.58,-4.58,-4.58,-4.58,-4.58,-4.58,-4.58,-4.58,-4.586,-4.5899,-4.5905,-4.596,-4.5994,-4.5997,-4.5997,-4.5997,-4.5997,-4.5997,-4.5997,-4.5997,-4.5997,-4.5997,-4.5997,-4.5997,-4.5997,-4.5997,-4.5997,-4.6007,-4.6007,-4.6075,-4.6102,-4.6111,-4.6164,-4.6191,-3.5493,0.0,-3.5565,-3.5738,-3.5641,-3.5565,0.0,-3.5641,-3.5493,-3.5432,0.0,-3.5059,-3.5644,-3.6255,-3.7095,-3.8339,-4.0253,0.0,0.0,0.0,0.0,0.0,0.0,0.0,0.0,0.0,0.0,0.0,0.0,-4.8909,-4.8909,-4.8909,-4.8909,-4.8909,-4.8909,-4.8909,-4.8909,-4.8909,-4.8909,-4.8909,-4.8909,-4.8909,-4.8909,-4.8909,-4.8909,0.0,0.0,0.0,-4.8909,-4.8909,-4.8909,-4.8742,-4.7125,-4.6494,-4.629,-4.4618,-4.4005,-4.4005,-4.4005,-4.4121,-4.4346,-4.4624,-4.4919,-4.5201,-4.5201,-4.54,-4.5586,-4.5586,-4.5586,-4.5586,-4.5586,-4.564,-4.5673,-4.5703,-4.575,-4.5781,-4.5805,-4.58,-4.58,-4.58,-4.58,-4.58,-4.58,-4.58,-4.58,-4.58,-4.5854,-4.5905,-4.5905,-4.5953,-4.5997,-4.5997,-4.5997,-4.5997,-4.5997,-4.5997,-4.5997,-4.5997,-4.5997,-4.5997,-4.5997,-4.5997,-4.5997,-4.5997,-4.5997,-4.6017,-4.6075,-4.6093,-4.6135,-4.6189,-4.6191,-4.6234,-3.5493,-3.5493,-3.5493,-3.5493,-3.5493,-3.5493,-3.5493,0.0,0.0,0.0,0.0,-3.5571,-3.6025,-3.7149,0.0,0.0,0.0,0.0,0.0,0.0,0.0,0.0,0.0,0.0,0.0,0.0,0.0,0.0,0.0,-4.8996,-4.9046,-4.9046,-4.9046,-4.9046,-4.9046,-4.9012,-4.8909,-4.8909,-4.8909,-4.8909,-4.8909,-4.8909,-4.8909,-4.8909,-4.8909,0.0,0.0,0.0,-4.8909,-4.8909,-4.8909,-4.8742,-4.7125,-4.6494,-4.629,-4.4618,-4.4005,-4.4005,-4.4005,-4.425,-4.4624,-4.4896,-4.5161,-4.5381,-4.5381,-4.5495,-4.5586,-4.5586,-4.5586,-4.5586,-4.5586,-4.564,-4.569,-4.57,-4.575,-4.5795,-4.58,-4.58,-4.58,-4.58,-4.58,-4.58,-4.58,-4.58,-4.58,-4.58,-4.5867,-4.5905,-4.5905,-4.5964,-4.5997,-4.5997,-4.5997,-4.5997,-4.5997,-4.5997,-4.5997,-4.5997,-4.5997,-4.5997,-4.5997,-4.5997,-4.5997,-4.5997,-4.5997,-4.6027,-4.6093,-4.6138,-4.6151,-4.6195,-4.6237,-4.6464,-3.5468,-3.5507,-3.5507,-3.5507,-3.5493,-3.5493,-3.5493,0.0,0.0,0.0,0.0,0.0,0.0,0.0,0.0,0.0,0.0,0.0,0.0,0.0,0.0,0.0,0.0,0.0,0.0,0.0,0.0,0.0,0.0,-4.915,-4.9197,-4.9197,-4.9211,-4.9276,-4.9276,-4.9193,-4.9057,-4.8993,-4.8943,-4.8909,-4.8959,-4.8993,-4.8959,-4.9008,-4.9042,-4.9042,0.0,0.0,-4.8974,-4.8925,-4.8909,-4.8742,-4.7173,-4.6541,-4.6368,-4.4724,-4.4121,-4.4121,-4.4181,-4.4484,-4.4915,-4.5161,-4.5419,-4.5586,-4.5586,-4.5586,-4.5586,-4.5586,-4.5586,-4.5586,-4.5603,-4.5657,-4.5706,-4.57,-4.5765,-4.581,-4.58,-4.58,-4.58,-4.58,-4.58,-4.58,-4.58,-4.58,-4.58,-4.58,-4.5867,-4.5905,-4.5905,-4.5964,-4.5997,-4.5997,-4.5997,-4.5997,-4.5997,-4.5997,-4.5997,-4.5997,-4.5997,-4.5997,-4.5997,-4.5997,-4.5997,-4.5997,-4.6007,-4.6056,-4.613,-4.6176,-4.6216,-4.6217,-4.6405,-4.685,-3.5315,-3.5515,-3.5509,-3.5488,-3.5493,-3.5493,-3.5493,0.0,0.0,0.0,0.0,0.0,0.0,0.0,0.0,0.0,0.0,0.0,0.0,0.0,0.0,0.0,0.0,0.0,0.0,0.0,0.0,0.0,0.0,-4.9197,-4.9197,-4.9197,-4.9289,-4.9529,-4.9558,-4.9618,-4.9743,-4.9358,-4.9131,-4.9068,-4.9321,-4.9396,-4.9334,-4.9627,-4.9749,-4.973,0.0,-4.9333,-4.9302,-4.9042,-4.8909,-4.8776,-4.7392,-4.6829,-4.6652,-4.5195,-4.4676,-4.4701,-4.4938,-4.5074,-4.518,-4.5438,-4.5568,-4.5586,-4.5586,-4.5586,-4.5586,-4.5586,-4.5586,-4.5603,-4.5657,-4.5687,-4.57,-4.5765,-4.5791,-4.58,-4.58,-4.58,-4.58,-4.58,-4.58,-4.58,-4.58,-4.58,-4.58,-4.58,-4.5867,-4.5905,-4.5905,-4.5964,-4.5997,-4.5997,-4.5997,-4.5997,-4.5997,-4.5997,-4.5997,-4.5997,-4.5997,-4.5997,-4.5997,-4.5997,-4.5997,-4.5997,-4.6066,-4.613,-4.6189,-4.6182,-4.6234,-4.6306,-4.6981,-4.7385,-3.5257,-3.5501,-3.5495,-3.5495,-3.5495,-3.5495,0.0,0.0,0.0,0.0,0.0,0.0,0.0,0.0,0.0,0.0,0.0,0.0,0.0,0.0,0.0,0.0,0.0,0.0,0.0,0.0,0.0,0.0,0.0,0.0,-4.9345,-4.9345,-4.9464,-4.9693,-4.9693,-4.9811,-5.0054,-4.9865,-4.9674,-4.9512,-4.9664,-4.9692,-4.9683,-4.9827,-4.9905,-4.9886,0.0,-4.9681,-4.9654,-4.9485,-4.9445,-4.9294,-4.7758,-4.717,-4.6978,-4.545,-4.4849,-4.4891,-4.5118,-4.5222,-4.5302,-4.5513,-4.5622,-4.564,-4.5603,-4.5622,-4.564,-4.5622,-4.5622,-4.5657,-4.5693,-4.5738,-4.5765,-4.5781,-4.5791,-4.58,-4.58,-4.58,-4.58,-4.58,-4.58,-4.58,-4.58,-4.58,-4.58,-4.58,-4.5867,-4.5905,-4.5905,-4.5964,-4.5997,-4.5997,-4.5997,-4.5997,-4.5997,-4.5997,-4.5997,-4.5997,-4.5997,-4.5997,-4.5997,-4.5997,-4.5997,-4.5997,-4.6075,-4.6115,-4.6142,-4.6651,-4.6912,-4.6963,-4.7819,-4.8435,-3.5218,-3.5507,-3.5501,-3.5502,-3.5502,0.0,0.0,0.0,0.0,0.0,0.0,0.0,0.0,0.0,0.0,0.0,0.0,0.0,0.0,0.0,0.0,0.0,0.0,0.0,0.0,0.0,0.0,0.0,0.0,0.0,-4.9574,-4.9634,-4.975,-4.9968,-4.9993,-5.0116,-5.0363,-5.0363,-5.0214,-4.9942,-5.0016,-5.0016,-5.0016,-5.0087,-5.0134,-5.0111,-5.0045,-5.0021,-5.0021,-4.9923,-4.9784,-4.948,-4.8052,-4.7285,-4.686,-4.5557,-4.5077,-4.5099,-4.5264,-4.5342,-4.5419,-4.5566,-4.5673,-4.569,-4.5637,-4.5657,-4.5693,-4.5637,-4.5673,-4.569,-4.569,-4.5754,-4.5815,-4.5795,-4.5805,-4.58,-4.58,-4.58,-4.58,-4.58,-4.58,-4.58,-4.58,-4.58,-4.58,-4.58,-4.5854,-4.5905,-4.5905,-4.5953,-4.5997,-4.5997,-4.5997,-4.5997,-4.5997,-4.5997,-4.5997,-4.5997,-4.5997,-4.5997,-4.5997,-4.5997,-4.6017,-4.6018,-4.6072,-4.6216,-4.6436,-4.7143,-4.7595,-4.7825,-4.8674,-4.9406,-3.5045,-3.5495,-3.5502,-3.5502,-3.5495,0.0,-3.6524,-3.6742,0.0,-3.8534,0.0,0.0,0.0,0.0,0.0,0.0,0.0,0.0,0.0,0.0,0.0,0.0,0.0,0.0,0.0,0.0,0.0,0.0,0.0,0.0,-4.9803,-5.0012,-5.0252,-5.0547,-5.0547,-5.0644,-5.0839,-5.0839,-5.0587,-5.0092,-5.0342,-5.0425,-5.0363,-5.0701,-5.0829,-5.081,-5.049,-5.0371,-5.035,-5.0021,-4.9461,-4.8718,-4.8034,-4.6973,-4.5803,-4.5687,-4.5648,-4.5648,-4.5648,-4.5665,-4.5665,-4.57,-4.57,-4.57,-4.57,-4.5687,-4.5709,-4.5684,-4.57,-4.57,-4.57,-4.575,-4.5795,-4.5786,-4.58,-4.58,-4.58,-4.58,-4.58,-4.58,-4.58,-4.58,-4.58,-4.58,-4.58,-4.58,-4.586,-4.5899,-4.5905,-4.596,-4.5994,-4.5997,-4.5997,-4.5997,-4.5997,-4.5997,-4.5997,-4.5997,-4.5997,-4.5997,-4.5997,-4.5997,-4.6027,-4.6091,-4.6103,-4.6534,-4.74,-4.7467,-4.7927,-4.8738,-4.9536,-4.9937,-3.5045,-3.5495,-3.5515,-3.556,-3.582,0.0,0.0,-3.7564,-3.8351,-3.8798,-3.9806,0.0,0.0,0.0,0.0,0.0,0.0,0.0,0.0,0.0,0.0,0.0,0.0,0.0,0.0,0.0,0.0,0.0,0.0,0.0,-5.0043,-5.014,-5.032,-5.0587,-5.0587,-5.07,-5.089,-5.0906,-5.0805,-5.0587,-5.0699,-5.0754,-5.0717,-5.0841,-5.0893,-5.0893,-5.0769,-5.0696,-5.0696,-5.0567,-5.0048,-4.9182,-4.7887,-4.6703,-4.5765,-4.5765,-4.5765,-4.5765,-4.5715,-4.5715,-4.5765,-4.5715,-4.5731,-4.5765,-4.5715,-4.5735,-4.5754,-4.5715,-4.5727,-4.5757,-4.5746,-4.5776,-4.5805,-4.58,-4.58,-4.58,-4.58,-4.58,-4.58,-4.58,-4.58,-4.58,-4.58,-4.58,-4.58,-4.58,-4.5854,-4.5893,-4.5905,-4.5953,-4.6005,-4.5997,-4.5997,-4.5997,-4.5997,-4.5997,-4.5997,-4.5997,-4.5997,-4.6008,-4.6052,-4.6052,-4.6325,-4.6899,-4.6954,-4.738,-4.826,-4.8841,-4.9254,-4.9575,-5.0412,-5.0813,-3.5053,-3.5509,-3.5528,-3.5584,0.0,0.0,-3.7237,-3.8224,-3.9144,-3.9363,0.0,0.0,0.0,0.0,0.0,0.0,0.0,0.0,0.0,0.0,0.0,0.0,0.0,0.0,0.0,0.0,0.0,0.0,0.0,0.0,0.0,-5.0385,-5.0508,-5.07,-5.0681,-5.0754,-5.0906,-5.0906,-5.0906,-5.0906,-5.0906,-5.0906,-5.0906,-5.0906,-5.0906,-5.0906,-5.0906,-5.0906,-5.0887,-5.0635,-4.9881,-4.874,-4.725,-4.6327,-4.581,-4.581,-4.581,-4.5776,-4.5761,-4.5761,-4.5776,-4.5761,-4.5761,-4.5776,-4.5746,-4.5761,-4.5781,-4.5746,-4.5757,-4.5766,-4.5791,-4.5805,-4.58,-4.58,-4.58,-4.58,-4.58,-4.58,-4.58,-4.58,-4.58,-4.58,-4.58,-4.58,-4.58,-4.58,-4.5854,-4.5893,-4.5905,-4.5953,-4.5986,-4.5997,-4.5997,-4.5997,-4.5997,-4.5997,-4.6134,-4.6425,-4.6445,-4.6452,-4.6507,-4.6515,-4.6923,-4.7823,-4.787,-4.8298,-4.9134,-4.9772,-5.0186,-5.0424,-5.1028,-5.13,-3.504,-3.5547,-3.5604,0.0,0.0,0.0,-3.815,-3.8628,-3.9369,-4.0578,0.0,0.0,0.0,0.0,0.0,0.0,0.0,0.0,0.0,0.0,0.0,0.0,0.0,0.0,0.0,0.0,0.0,0.0,0.0,0.0,0.0,-5.0789,-5.0906,-5.0906,-5.0906,-5.0906,-5.0906,-5.0906,-5.0906,-5.0906,-5.0906,-5.0906,-5.0906,-5.0906,-5.0906,-5.0906,-5.0906,-5.0906,-5.0848,-5.0016,-4.8662,-4.6999,-4.6129,-4.58,-4.58,-4.58,-4.58,-4.58,-4.58,-4.58,-4.58,-4.58,-4.58,-4.58,-4.58,-4.5805,-4.5795,-4.58,-4.5752,-4.5718,-4.578,-4.58,-4.58,-4.58,-4.58,-4.58,-4.58,-4.58,-4.58,-4.58,-4.58,-4.58,-4.58,-4.58,-4.58,-4.58,-4.586,-4.5887,-4.5905,-4.596,-4.6003,-4.5997,-4.6016,-4.5997,-4.5997,-4.6026,-4.6416,-4.7352,-4.7411,-4.7411,-4.7411,-4.7411,-4.7842,-4.8786,-4.8744,-4.9173,-5.0121,-5.0041,-5.0463,-5.13,-5.13,-5.13,-3.487,-3.543,0.0,0.0,0.0,0.0,0.0,-3.9291,0.0,0.0,0.0,0.0,0.0,0.0,0.0,0.0,0.0,0.0,0.0,0.0,0.0,0.0,0.0,0.0,0.0,0.0,0.0,0.0,0.0,0.0,0.0,-5.0874,-5.0906,-5.0906,-5.0906,-5.0906,-5.0906,-5.0906,-5.0906,-5.0906,-5.0906,-5.0906,-5.0906,-5.0906,-5.0906,-5.0906,-5.0906,-5.0906,-5.079,-4.9378,-4.8121,-4.6999,-4.6129,-4.58,-4.58,-4.58,-4.58,-4.58,-4.58,-4.58,-4.58,-4.58,-4.58,-4.58,-4.58,-4.58,-4.5786,-4.58,-4.58,-4.5766,-4.578,-4.58,-4.58,-4.58,-4.58,-4.58,-4.58,-4.58,-4.58,-4.58,-4.58,-4.58,-4.58,-4.58,-4.58,-4.58,-4.5854,-4.5917,-4.5964,-4.5986,-4.5986,-4.5997,-4.654,-4.6921,-4.6984,-4.7548,-4.8015,-4.8294,-4.8362,-4.8371,-4.8371,-4.8376,-4.8808,-4.9706,-4.9692,-5.0123,-5.1018,-5.0945,-5.1047,-5.13,-5.13,-5.13,-3.4927,0.0,0.0,0.0,0.0,0.0,0.0,0.0,0.0,0.0,0.0,0.0,0.0,0.0,0.0,0.0,0.0,0.0,0.0,0.0,0.0,0.0,0.0,0.0,0.0,0.0,0.0,0.0,0.0,0.0,0.0,-5.0906,-5.0906,-5.0906,-5.0906,-5.0906,-5.0906,-5.0906,-5.0906,-5.0906,-5.0906,-5.0906,-5.0906,-5.0906,-5.0906,-5.0887,-5.0558,-5.0229,-4.9803,-4.845,-4.7366,-4.6535,-4.6013,-4.58,-4.58,-4.58,-4.58,-4.58,-4.58,-4.58,-4.58,-4.58,-4.58,-4.58,-4.58,-4.58,-4.58,-4.58,-4.58,-4.58,-4.58,-4.58,-4.58,-4.58,-4.58,-4.58,-4.58,-4.58,-4.58,-4.58,-4.58,-4.58,-4.58,-4.58,-4.5794,-4.5808,-4.5893,-4.6127,-4.6657,-4.662,-4.6687,-4.7038,-4.754,-4.7871,-4.7917,-4.841,-4.886,-4.9229,-4.9296,-4.9471,-4.9818,-4.9506,-4.9732,-5.0605,-5.0625,-5.0868,-5.1369,-5.1316,-5.13,-5.13,-5.13,-5.13,-3.5039,0.0,0.0,0.0,0.0,0.0,0.0,0.0,0.0,0.0,0.0,0.0,0.0,0.0,0.0,0.0,0.0,0.0,0.0,0.0,0.0,0.0,0.0,0.0,0.0,0.0,0.0,0.0,0.0,0.0,0.0,-5.0906,-5.0906,-5.0906,-5.0906,-5.0867,-5.079,-5.079,-5.0751,-5.0674,-5.0674,-5.0658,-5.0677,-5.0828,-5.0867,-5.0751,-4.9939,-4.9088,-4.8217,-4.7424,-4.6593,-4.58,-4.58,-4.58,-4.58,-4.58,-4.58,-4.58,-4.58,-4.58,-4.58,-4.58,-4.58,-4.58,-4.58,-4.58,-4.58,-4.58,-4.5819,-4.5838,-4.5838,-4.5838,-4.5838,-4.5838,-4.5819,-4.58,-4.58,-4.58,-4.5814,-4.5841,-4.5822,-4.5808,-4.5827,-4.5814,-4.5866,-4.6035,-4.6116,-4.6568,-4.7738,-4.7665,-4.7814,-4.8613,-4.8762,-4.8825,-4.8828,-4.8906,-4.9309,-5.0156,-5.0214,-5.056,-5.1375,-5.0633,-5.059,-5.1381,-5.1405,-5.1369,-5.1317,-5.1296,-5.13,-5.13,-5.13,-5.13,0.0,-3.4977,0.0,0.0,0.0,0.0,0.0,0.0,0.0,0.0,0.0,0.0,0.0,0.0,0.0,0.0,0.0,0.0,0.0,0.0,0.0,0.0,0.0,0.0,0.0,0.0,0.0,0.0,0.0,0.0,-5.0906,-5.0906,-5.0906,-5.0906,-5.0906,-5.0596,-4.9958,-4.9958,-4.961,0.0,-4.8937,-4.8941,-4.8984,-5.031,-5.0558,-4.9919,-4.9049,-4.8198,-4.7366,-4.7173,-4.6593,-4.58,-4.58,-4.58,-4.58,-4.58,-4.58,-4.58,-4.58,-4.58,-4.58,-4.58,-4.58,-4.58,-4.58,-4.58,-4.58,-4.58,-4.5988,-4.6201,-4.6201,-4.6201,-4.6201,-4.6201,-4.5988,-4.58,-4.58,-4.58,-4.5867,-4.6134,-4.5988,-4.589,-4.6143,-4.5956,-4.6312,-4.7855,-4.7698,-4.7681,-4.8415,-4.8454,-4.8498,-4.8673,-4.9306,-4.9748,-4.9784,-5.0428,-5.0917,-5.1115,-5.1112,-5.1206,-5.1394,-5.1219,-5.1219,-5.139,-5.1401,-5.1386,-5.1388,-5.1336,-5.1296,-5.13,-5.13,-5.13,0.0,0.0,0.0,0.0,0.0,0.0,0.0,0.0,0.0,0.0,0.0,0.0,0.0,0.0,0.0,0.0,0.0,0.0,0.0,0.0,0.0,0.0,0.0,0.0,0.0,0.0,0.0,0.0,0.0,-4.9707,-4.9691,-4.9707,-4.9707,-4.9707,-4.9707,-4.9494,-4.9068,-4.9068,-4.8836,-4.8392,-4.8411,-4.8396,-4.8435,-4.9305,-4.9475,-4.903,-4.8159,-4.7521,-4.7076,-4.6651,-4.6206,-4.58,-4.58,-4.58,-4.58,-4.58,-4.58,-4.58,-4.58,-4.58,-4.58,-4.58,-4.58,-4.58,-4.58,-4.58,-4.58,-4.58,-4.593,-4.6065,-4.6065,-4.6065,-4.6104,-4.6259,-4.6171,-4.6034,-4.604,-4.6053,-4.6094,-4.626,-4.615,-4.6038,-4.6057,-4.5966,-4.6804,-4.9478,-4.9672,-4.965,-4.9954,-4.95,-4.935,-4.9935,-5.0409,-5.0683,-5.0715,-5.1144,-5.1394,-5.1394,-5.1394,-5.1394,-5.1394,-5.1394,-5.1394,-5.1394,-5.1406,-5.1391,-5.1394,-5.1323,-5.1303,-5.13,-5.13,-5.13,0.0,0.0,0.0,0.0,0.0,0.0,0.0,0.0,0.0,0.0,0.0,0.0,0.0,0.0,0.0,0.0,0.0,0.0,0.0,0.0,0.0,0.0,0.0,0.0,0.0,0.0,0.0,0.0,0.0,-4.8392,-4.8392,-4.8392,-4.8392,-4.8392,-4.8392,-4.8333,-4.8179,-4.8193,-4.8097,-4.7947,-4.7947,-4.7947,-4.7961,-4.7947,-4.8043,-4.8121,-4.725,-4.6883,-4.6825,-4.609,-4.58,-4.58,-4.58,-4.58,-4.58,-4.58,-4.58,-4.58,-4.58,-4.5819,-4.5819,-4.5819,-4.5838,-4.5838,-4.58,-4.58,-4.5814,-4.5867,-4.5899,-4.5899,-4.5899,-4.588,-4.5949,-4.6216,-4.676,-4.7007,-4.6358,-4.6251,-4.63,-4.6297,-4.6779,-4.709,-4.6802,-4.6872,-4.7911,-5.0793,-5.133,-5.1391,-5.1394,-5.0527,-5.0292,-5.1288,-5.1391,-5.1394,-5.1394,-5.1394,-5.1394,-5.1394,-5.1394,-5.1394,-5.1394,-5.1394,-5.1394,-5.1394,-5.1406,-5.1396,-5.14,-5.1349,-5.131,-5.1308,-5.1308,-5.1308,0.0,0.0,0.0,0.0,0.0,0.0,0.0,0.0,0.0,0.0,0.0,0.0,0.0,0.0,0.0,0.0,0.0,0.0,0.0,0.0,0.0,0.0,0.0,0.0,0.0,0.0,0.0,0.0,-4.8411,-4.8392,-4.8396,-4.8401,-4.8406,-4.8392,-4.8392,-4.8043,-4.727,-4.727,-4.6883,-4.6148,-4.6148,-4.6148,-4.6148,-4.6148,-4.6554,-4.7231,-4.6341,-4.5974,-4.5955,-4.5838,-4.58,-4.58,-4.58,-4.58,-4.58,-4.58,-4.58,-4.58,-4.58,-4.5877,-4.5969,-4.5969,-4.6007,-4.6027,-4.5838,-4.58,-4.5854,-4.6143,-4.6224,-4.6224,-4.6224,-4.6238,-4.6248,-4.6288,-4.8563,-4.984,-4.6582,-4.6098,-4.6306,-4.6301,-4.8689,-5.07,-5.0668,-5.0674,-5.0848,-5.1307,-5.1386,-5.1406,-5.1391,-5.1268,-5.1226,-5.1382,-5.1398,-5.1394,-5.1394,-5.1394,-5.1394,-5.1394,-5.1394,-5.1394,-5.1394,-5.1394,-5.1394,-5.1394,-5.1394,-5.1406,-5.1396,-5.1391,-5.1386,-5.1388,-5.1388,-5.1362,0.0,0.0,0.0,0.0,0.0,0.0,0.0,0.0,0.0,0.0,0.0,0.0,0.0,0.0,0.0,0.0,0.0,0.0,0.0,0.0,0.0,0.0,0.0,0.0,0.0,0.0,0.0,0.0,-4.6941,-4.6941,-4.695,-4.6936,-4.6941,-4.6941,-4.6941,-4.6748,-4.638,-4.6361,-4.6167,-4.58,-4.58,-4.58,-4.58,-4.58,-4.6013,-4.6341,-4.5974,-4.58,-4.58,-4.5877,-4.5858,-4.58,-4.593,-4.5949,-4.593,-4.5949,-4.5969,-4.5969,-4.5969,-4.6007,-4.6073,-4.6053,-4.6075,-4.6212,-4.6805,-4.7241,-4.7572,-4.7722,-4.8424,-4.916,-4.916,-4.9152,-4.9153,-4.9159,-5.0314,-5.0951,-4.9296,-4.9049,-4.9153,-4.9158,-5.0365,-5.1391,-5.1404,-5.1406,-5.1405,-5.1396,-5.1396,-5.1391,-5.1398,-5.1394,-5.1394,-5.1394,-5.1394,-5.1394,-5.1394,-5.1394,-5.1394,-5.1394,-5.1394,-5.1394,-5.1394,-5.1394,-5.1394,-5.1394,-5.1394,-5.141,-5.1396,-5.1396,-5.1391,-5.1394,-5.1394,-5.1369,0.0,0.0,0.0,0.0,0.0,0.0,0.0,0.0,0.0,0.0,0.0,0.0,0.0,0.0,0.0,0.0,0.0,0.0,0.0,0.0,0.0,0.0,0.0,0.0,0.0,0.0,0.0,0.0,-4.58,-4.58,-4.58,-4.58,-4.58,-4.58,-4.58,-4.58,-4.58,-4.5819,-4.5858,-4.5877,-4.5877,-4.5877,-4.5877,-4.5877,-4.5877,-4.5877,-4.5858,-4.5858,-4.5877,-4.5988,-4.597,-4.5886,-4.6035,-4.6067,-4.6034,-4.6092,-4.6111,-4.6111,-4.6111,-4.61,-4.6151,-4.6377,-4.6468,-4.666,-4.7635,-4.8487,-4.9167,-4.9459,-5.045,-5.1406,-5.1406,-5.1406,-5.1404,-5.1406,-5.1398,-5.1404,-5.1404,-5.1404,-5.1401,-5.1402,-5.1402,-5.1405,-5.1394,-5.1394,-5.1394,-5.1394,-5.1394,-5.1394,-5.1394,-5.1394,-5.1394,-5.1394,-5.1394,-5.1394,-5.1394,-5.1394,-5.1394,-5.1394,-5.1394,-5.1394,-5.1394,-5.1394,-5.1394,-5.1394,-5.1394,-5.139,-5.1401,-5.1401,-5.1396,-5.1405,-5.14,-5.14,0.0,0.0,0.0,0.0,0.0,0.0,0.0,0.0,0.0,0.0,0.0,0.0,0.0,0.0,0.0,0.0,0.0,0.0,0.0,0.0,0.0,0.0,0.0,0.0,0.0,0.0,0.0,0.0,-4.58,-4.58,-4.58,-4.58,-4.58,-4.58,-4.58,-4.58,-4.58,-4.593,-4.6027,-4.6085,-4.6085,-4.6085,-4.6085,-4.6085,-4.6085,-4.6085,-4.6027,-4.6027,-4.6085,-4.6085,-4.6088,-4.6096,-4.6111,-4.61,-4.6111,-4.6111,-4.6111,-4.6111,-4.6111,-4.6143,-4.6317,-4.7157,-4.7467,-4.7578,-4.789,-4.8769,-4.9882,-5.0975,-5.1328,-5.1406,-5.1406,-5.1406,-5.1406,-5.1406,-5.1406,-5.1405,-5.1405,-5.1405,-5.1406,-5.1406,-5.1406,-5.1404,-5.1402,-5.1394,-5.1394,-5.1394,-5.1394,-5.1394,-5.1394,-5.1394,-5.1394,-5.1394,-5.1394,-5.1394,-5.1394,-5.1394,-5.1394,-5.1394,-5.1394,-5.1394,-5.1394,-5.1394,-5.1394,-5.1394,-5.1394,-5.1394,-5.1394,-5.1394,-5.1394,-5.139,-5.1401,-5.1396,0.0,0.0,0.0,0.0,0.0,0.0,0.0,0.0,0.0,0.0,0.0,0.0,0.0,0.0,0.0,0.0,0.0,0.0,0.0,0.0,0.0,0.0,0.0,0.0,0.0,0.0,0.0,0.0,0.0,-4.58,-4.58,-4.58,-4.58,-4.58,-4.58,-4.5838,-4.593,-4.6014,-4.6085,-4.6105,-4.6105,-4.6105,-4.6105,-4.6105,-4.613,-4.6162,-4.6143,-4.6118,-4.6095,-4.6151,-4.6139,-4.6105,-4.6181,-4.6193,-4.6161,-4.6221,-4.6237,-4.6237,-4.6237,-4.6612,-4.7153,-4.7465,-4.7952,-4.8555,-4.9219,-4.9707,-5.0215,-5.1133,-5.1406,-5.1406,-5.1406,-5.1406,-5.1406,-5.1406,-5.1406,-5.1406,-5.1406,-5.1406,-5.1406,-5.1406,-5.1406,-5.1406,-5.1394,-5.1402,-5.1394,-5.1394,-5.1394,-5.1394,-5.1394,-5.1394,-5.1394,-5.1394,-5.1394,-5.1394,-5.1394,-5.1394,-5.1394,-5.1394,-5.1394,-5.1394,-5.1394,-5.1406,-5.1406,-5.1406,-5.1396,-5.1401,-5.1394,-5.1394,-5.139,-5.1406,-5.1401,-5.1391,-3.4386,0.0,0.0,0.0,0.0,0.0,0.0,0.0,0.0,0.0,0.0,0.0,0.0,0.0,0.0,0.0,0.0,0.0,0.0,0.0,0.0,0.0,0.0,0.0,0.0,0.0,0.0,0.0,0.0,0.0,-4.58,-4.58,-4.5819,-4.5858,-4.5877,-4.5949,-4.6065,-4.6122,-4.6135,-4.6162,-4.6162,-4.6171,-4.6163,-4.617,-4.6193,-4.6238,-4.6227,-4.6203,-4.6177,-4.6224,-4.6201,-4.6186,-4.6265,-4.6277,-4.6238,-4.6278,-4.6308,-4.6348,-4.6621,-4.7129,-4.7695,-4.8281,-4.8867,-4.9492,-5.0351,-5.0605,-5.0703,-5.125,-5.1406,-5.1406,-5.1406,-5.1406,-5.1406,-5.1406,-5.1406,-5.1406,-5.1406,-5.1406,-5.1406,-5.1406,-5.1406,-5.1406,-5.14,-5.1408,-5.1394,-5.1394,-5.1394,-5.1394,-5.1394,-5.1394,-5.1394,-5.1394,-5.1394,-5.1394,-5.1394,-5.1394,-5.1394,-5.1394,-5.1394,-5.1394,-5.1394,-5.1406,-5.1396,-5.1396,-5.14,-5.1405,-5.1401,-5.1401,-5.1396,-5.1391,-5.1386,-5.1375,0.0,0.0,0.0,0.0,0.0,0.0,0.0,0.0,0.0,0.0,0.0,0.0,0.0,0.0,0.0,0.0,0.0,0.0,0.0,0.0,0.0,0.0,0.0,0.0,0.0,0.0,0.0,0.0,-4.58,-4.58,-4.58,-4.58,-4.5872,-4.6002,-4.6065,-4.6123,-4.6201,-4.6195,-4.624,-4.6308,-4.6308,-4.6305,-4.6303,-4.63,-4.63,-4.6301,-4.6306,-4.6297,-4.6308,-4.6308,-4.6308,-4.6308,-4.6308,-4.6308,-4.6308,-4.6308,-4.6308,-4.6426,-4.7305,-4.7617,-4.793,-4.9648,-5.0215,-5.0371,-5.1152,-5.1406,-5.1406,-5.1406,-5.1406,-5.1406,-5.1406,-5.1406,-5.1406,-5.1406,-5.1406,-5.1406,-5.1406,-5.1406,-5.1406,-5.1406,-5.1406,-5.1406,-5.14,-5.1405,-5.1394,-5.1394,-5.1394,-5.1394,-5.1394,-5.1394,-5.1394,-5.1394,-5.1394,-5.1394,-5.1394,-5.1394,-5.1394,-5.1394,-5.1394,-5.1394,-5.1394,-5.1401,-5.1396,-5.1396,-5.14,-5.1394,-5.1394,-5.1394,-5.1394,-5.1394,-5.1336,-5.1303,-3.4404,0.0,0.0,0.0,0.0,0.0,0.0,0.0,0.0,0.0,0.0,0.0,0.0,0.0,0.0,0.0,0.0,0.0,0.0,0.0,0.0,0.0,0.0,0.0,0.0,0.0,0.0,0.0,-4.58,-4.58,-4.58,-4.5877,-4.5983,-4.6065,-4.615,-4.6181,-4.6201,-4.6247,-4.6273,-4.6308,-4.6301,-4.6309,-4.63,-4.6303,-4.6306,-4.6301,-4.6306,-4.6306,-4.6295,-4.6303,-4.6307,-4.6308,-4.6308,-4.6308,-4.6308,-4.6308,-4.6308,-4.6426,-4.7305,-4.8005,-4.8716,-4.9843,-5.0586,-5.1113,-5.1328,-5.1406,-5.1406,-5.1406,-5.1406,-5.1406,-5.1406,-5.1406,-5.1406,-5.1406,-5.1406,-5.1406,-5.1406,-5.1406,-5.1406,-5.1394,-5.1408,-5.1408,-5.1402,-5.1398,-5.1394,-5.1394,-5.1394,-5.1394,-5.1394,-5.1394,-5.1394,-5.1394,-5.1394,-5.1394,-5.1394,-5.1406,-5.1401,-5.1401,-5.1391,-5.1405,-5.1405,-5.1355,-5.133,-5.133,-5.133,-5.1335,-5.1335,-5.1382,-5.1388,-5.1336,-5.1316,-5.1308,-3.4363,-3.434,0.0,0.0,0.0,0.0,-3.4386,-3.4843,0.0,0.0,0.0,0.0,0.0,0.0,0.0,0.0,0.0,0.0,0.0,0.0,0.0,0.0,0.0,0.0,0.0,-4.4485,-4.4755,-4.4755,-4.4755,-4.4929,-4.533,-4.5471,-4.5725,-4.6124,-4.621,-4.6236,-4.6236,-4.6273,-4.6308,-4.6308,-4.6295,-4.63,-4.63,-4.63,-4.6306,-4.6295,-4.6306,-4.63,-4.63,-4.629,-4.63,-4.6305,-4.6308,-4.6308,-4.6308,-4.6308,-4.6308,-4.6484,-4.7711,-4.8469,-4.9092,-5.0307,-5.1014,-5.1406,-5.1406,-5.1406,-5.1406,-5.1403,-5.14,-5.1402,-5.1404,-5.1405,-5.1405,-5.1405,-5.1405,-5.1405,-5.1406,-5.1406,-5.1402,-5.1402,-5.1394,-5.1394,-5.1394,-5.1394,-5.1394,-5.1394,-5.1394,-5.1394,-5.1394,-5.1394,-5.1394,-5.1394,-5.1394,-5.1394,-5.1394,-5.141,-5.1401,-5.1396,-5.1411,-5.14,-5.1394,-5.1343,-5.1277,-5.1226,-5.1219,-5.122,-5.122,-5.1308,-5.1349,-5.1296,-5.1308,-5.13,-3.4363,-3.434,-3.4293,0.0,0.0,0.0,-3.4404,-3.445,-3.4742,0.0,0.0,0.0,0.0,0.0,0.0,0.0,0.0,0.0,0.0,0.0,0.0,0.0,0.0,0.0,-4.3169,-4.3247,-4.3305,-4.3305,-4.3305,-4.3686,-4.4518,-4.4692,-4.5169,-4.6028,-4.6128,-4.6191,-4.6308,-4.6308,-4.6308,-4.6308,-4.6295,-4.63,-4.63,-4.63,-4.63,-4.63,-4.63,-4.63,-4.63,-4.63,-4.63,-4.6303,-4.6306,-4.6308,-4.6308,-4.6308,-4.6308,-4.6542,-4.8301,-4.8895,-4.9179,-5.0842,-5.1396,-5.1406,-5.1406,-5.1406,-5.1406,-5.1408,-5.1398,-5.1398,-5.1394,-5.1396,-5.1396,-5.1396,-5.1396,-5.1398,-5.1405,-5.1403,-5.1394,-5.1398,-5.1394,-5.1394,-5.1394,-5.1394,-5.1394,-5.1394,-5.1394,-5.1394,-5.1394,-5.1394,-5.1394,-5.1394,-5.1394,-5.1394,-5.1394,-5.139,-5.1406,-5.1396,-5.1391,-5.1386,-5.1388,-5.133,-5.1226,-5.1092,-5.1097,-5.1105,-5.1105,-5.1239,-5.13,-5.13,-5.13,-5.13,0.0,0.0,0.0,0.0,0.0,0.0,-3.4293,-3.4363,-3.4487,0.0,0.0,0.0,0.0,0.0,0.0,0.0,0.0,0.0,0.0,0.0,0.0,0.0,0.0,0.0,-4.2241,-4.2899,-4.3305,-4.3305,-4.3349,-4.349,-4.372,-4.38,-4.4286,-4.5194,-4.5252,-4.5586,-4.6289,-4.6308,-4.6307,-4.629,-4.6303,-4.63,-4.63,-4.63,-4.63,-4.63,-4.63,-4.63,-4.63,-4.63,-4.63,-4.6303,-4.63,-4.6305,-4.6303,-4.6295,-4.6297,-4.6557,-4.8291,-4.8853,-4.9104,-5.0847,-5.1391,-5.1391,-5.1405,-5.1406,-5.1406,-5.1405,-5.1396,-5.1394,-5.1398,-5.1402,-5.1402,-5.1402,-5.1402,-5.1402,-5.1405,-5.1394,-5.1394,-5.1398,-5.1394,-5.1394,-5.1394,-5.1394,-5.1394,-5.1394,-5.1394,-5.1394,-5.1394,-5.1394,-5.1394,-5.1394,-5.1394,-5.1394,-5.1394,-5.1396,-5.14,-5.14,-5.1356,-5.1316,-5.1308,-5.1201,-5.1139,-5.1097,-5.1105,-5.1105,-5.1105,-5.1239,-5.13,-5.13,-5.13,-5.13,0.0,0.0,0.0,-3.434,0.0,0.0,0.0,-3.434,-3.4427,0.0,0.0,0.0,0.0,0.0,0.0,0.0,0.0,0.0,0.0,0.0,0.0,0.0,0.0,0.0,-4.139,-4.1796,-4.2067,-4.2106,-4.2164,-4.2419,-4.2889,-4.2969,-4.3422,-4.4316,-4.4355,-4.4766,-4.5644,-4.5642,-4.5866,-4.63,-4.63,-4.63,-4.63,-4.63,-4.63,-4.63,-4.63,-4.63,-4.63,-4.63,-4.63,-4.63,-4.6309,-4.6297,-4.63,-4.6306,-4.6306,-4.6546,-4.8265,-4.8844,-4.913,-5.0839,-5.1402,-5.1398,-5.1402,-5.1402,-5.14,-5.1403,-5.1394,-5.1394,-5.1394,-5.1394,-5.1394,-5.1394,-5.1394,-5.1394,-5.1394,-5.1402,-5.1405,-5.1394,-5.1394,-5.1394,-5.1394,-5.1394,-5.1394,-5.1394,-5.1394,-5.1394,-5.1394,-5.1394,-5.1394,-5.1394,-5.1394,-5.1394,-5.1394,-5.1401,-5.1391,-5.1405,-5.1269,-5.12,-5.1191,-5.1042,-5.0945,-5.0945,-5.0874,-5.0932,-5.1042,-5.1062,-5.11,-5.1211,-5.1211,-5.1211,0.0,0.0,0.0,0.0,0.0,-3.4269,0.0,0.0,0.0,-3.452,0.0,0.0,0.0,0.0,0.0,0.0,0.0,0.0,0.0,0.0,0.0,0.0,0.0,0.0,0.0,-4.0713,-4.0829,-4.09,-4.0977,-4.1325,-4.2034,-4.2134,-4.2558,-4.3418,-4.3457,-4.3867,-4.4746,-4.4928,-4.5343,-4.6053,-4.6225,-4.63,-4.63,-4.63,-4.63,-4.63,-4.63,-4.63,-4.63,-4.63,-4.63,-4.63,-4.63,-4.6309,-4.6297,-4.6306,-4.63,-4.6515,-4.8037,-4.872,-4.9126,-5.0653,-5.1258,-5.1398,-5.1394,-5.1394,-5.1408,-5.1394,-5.1405,-5.1394,-5.1394,-5.1394,-5.1394,-5.1394,-5.1394,-5.1394,-5.1394,-5.1394,-5.1394,-5.1394,-5.1394,-5.1394,-5.1394,-5.1394,-5.1394,-5.1394,-5.1394,-5.1394,-5.1394,-5.1394,-5.1394,-5.1394,-5.1394,-5.1394,-5.1394,-5.1386,-5.1352,-5.1341,-5.117,-5.1061,-5.1027,-5.085,-5.0745,-5.0692,-5.0643,-5.072,-5.0916,-5.08,-5.0855,-5.103,-5.1074,-5.1093,0.0,0.0,0.0,0.0,-3.4245,0.0,0.0,0.0,-3.4454,-3.4651,0.0,-3.5019,-3.5407,0.0,0.0,0.0,0.0,0.0,0.0,0.0,0.0,0.0,0.0,0.0,0.0,-4.0397,-4.09,-4.09,-4.1016,-4.1132,-4.1228,-4.1296,-4.1719,-4.2519,-4.2558,-4.2969,-4.3848,-4.4616,-4.5057,-4.5167,-4.5935,-4.63,-4.63,-4.63,-4.63,-4.63,-4.63,-4.63,-4.63,-4.63,-4.63,-4.63,-4.63,-4.6303,-4.6303,-4.63,-4.63,-4.6436,-4.7393,-4.8213,-4.8974,-4.993,-5.077,-5.1398,-5.1394,-5.1403,-5.1404,-5.1405,-5.1394,-5.1394,-5.1394,-5.1394,-5.1394,-5.1394,-5.1394,-5.1394,-5.1394,-5.1394,-5.1394,-5.1394,-5.1394,-5.1394,-5.1394,-5.1394,-5.1394,-5.1394,-5.1394,-5.1394,-5.1394,-5.1394,-5.1394,-5.1394,-5.1394,-5.1394,-5.1394,-5.1297,-5.1198,-5.1132,-5.1004,-5.0903,-5.0835,-5.0696,-5.0527,-5.0374,-5.0526,-5.0606,-5.0644,-5.0625,-5.0677,-5.0743,-5.0985,-5.1005,0.0,0.0,0.0,0.0,0.0,0.0,-3.4245,0.0,-3.4609,0.0,0.0,0.0,0.0,0.0,0.0,0.0,-3.5974,0.0,0.0,0.0,0.0,0.0,0.0,0.0,0.0,0.0,0.0,0.0,-4.0281,-4.0586,-4.1134,-4.1182,-4.1348,-4.1699,-4.1676,-4.2062,-4.2941,-4.331,-4.4008,-4.5001,-4.5366,-4.5812,-4.63,-4.63,-4.63,-4.63,-4.63,-4.63,-4.63,-4.63,-4.63,-4.63,-4.63,-4.63,-4.63,-4.63,-4.63,-4.6417,-4.7295,-4.8135,-4.9032,-5.0418,-5.1102,-5.1394,-5.1405,-5.1391,-5.1394,-5.1398,-5.1394,-5.1394,-5.1394,-5.1394,-5.1394,-5.1394,-5.1394,-5.1394,-5.1394,-5.1394,-5.1394,-5.1394,-5.1394,-5.1394,-5.1394,-5.1394,-5.1394,-5.1394,-5.1394,-5.1394,-5.1394,-5.1394,-5.1362,-5.1239,-5.1265,-5.1245,-5.117,-5.1113,-5.107,-5.1039,-5.0835,-5.0659,-5.0528,-5.0464,-5.0442,-5.0464,-5.0442,-5.0523,-5.0721,-5.0523,-5.0445,-5.047,-5.0696,-5.0767,-3.4325,0.0,0.0,0.0,0.0,0.0,0.0,0.0,0.0,0.0,0.0,0.0,0.0,0.0,-3.5704,-3.5704,0.0,-3.5704,0.0,0.0,0.0,0.0,0.0,0.0,0.0,0.0,0.0,0.0,0.0,-4.013,-4.08,-4.1054,-4.117,-4.117,-4.1123,-4.1406,-4.2048,-4.2271,-4.3032,-4.4289,-4.4777,-4.5324,-4.5948,-4.6183,-4.63,-4.63,-4.63,-4.63,-4.63,-4.63,-4.63,-4.63,-4.63,-4.63,-4.63,-4.63,-4.63,-4.6397,-4.7022,-4.7939,-4.9091,-5.0828,-5.1394,-5.1394,-5.1394,-5.1394,-5.1394,-5.1394,-5.1394,-5.1394,-5.1394,-5.1394,-5.1394,-5.1394,-5.1394,-5.1394,-5.1394,-5.1394,-5.1394,-5.1394,-5.1394,-5.1394,-5.1394,-5.1394,-5.1394,-5.1394,-5.1362,-5.1357,-5.1357,-5.1302,-5.1225,-5.1084,-5.1113,-5.1103,-5.1011,-5.0972,-5.0932,-5.0874,-5.0661,-5.0446,-5.0302,-5.0302,-5.0374,-5.0526,-5.0374,-5.0432,-5.0661,-5.0432,-5.0302,-5.0302,-5.0448,-5.0529,0.0,0.0,0.0,-3.425,0.0,0.0,0.0,0.0,-3.4961,0.0,0.0,0.0,0.0,-3.5704,-3.5704,-3.5704,-3.5704,0.0,0.0,0.0,0.0,0.0,0.0,0.0,0.0,0.0,0.0,0.0,0.0,0.0,-3.9941,-4.0674,-4.1091,-4.1091,-4.1101,-4.1103,-4.1147,-4.1986,-4.2435,-4.2494,-4.4192,-4.5012,-4.507,-4.5929,-4.63,-4.63,-4.63,-4.63,-4.63,-4.63,-4.63,-4.63,-4.63,-4.63,-4.63,-4.63,-4.63,-4.63,-4.6339,-4.7412,-4.9091,-5.0828,-5.1394,-5.1394,-5.1394,-5.1394,-5.1394,-5.1394,-5.1394,-5.1394,-5.1394,-5.1394,-5.1394,-5.1394,-5.1394,-5.1394,-5.1394,-5.1394,-5.1394,-5.1394,-5.1394,-5.1394,-5.1394,-5.1394,-5.1394,-5.1394,-5.1291,-5.1203,-5.1203,-5.1084,-5.1008,-5.1011,-5.1016,-5.0996,-5.0998,-5.0942,-5.0789,-5.0523,-5.0393,-5.0302,-5.0302,-5.0302,-5.0302,-5.0302,-5.0302,-5.0302,-5.0302,-5.0302,-5.0302,-5.0302,-5.0314,-5.0312,0.0,0.0,-3.4958,-3.4572,0.0,0.0,0.0,0.0,0.0,0.0,0.0,0.0,0.0,-3.5704,-3.5704,-3.5704,-3.5704,-3.5704,0.0,0.0,0.0,0.0,0.0,0.0,0.0,0.0,0.0,0.0,0.0,0.0,0.0,-4.0166,-4.0542,-4.1088,-4.1094,-4.1094,-4.1108,-4.1381,-4.183,-4.2415,-4.3001,-4.3879,-4.5012,-4.5304,-4.5753,-4.63,-4.63,-4.63,-4.63,-4.63,-4.63,-4.63,-4.63,-4.63,-4.63,-4.63,-4.63,-4.6378,-4.6963,-4.7881,-4.8993,-5.0165,-5.0926,-5.1394,-5.1394,-5.1394,-5.1394,-5.1394,-5.1394,-5.1394,-5.1394,-5.1394,-5.1394,-5.1394,-5.1394,-5.1394,-5.1394,-5.1394,-5.1394,-5.1394,-5.1394,-5.1394,-5.1394,-5.1394,-5.1394,-5.1394,-5.1291,-5.1203,-5.1203,-5.1083,-5.0972,-5.0879,-5.0844,-5.0778,-5.0736,-5.0682,-5.0545,-5.0371,-5.0325,-5.0302,-5.0302,-5.0302,-5.0302,-5.0302,-5.0302,-5.0302,-5.0302,-5.0302,-5.0302,-5.0302,-5.0317,-5.0294,-3.513,-3.5209,0.0,-3.4851,-3.5015,0.0,-3.4925,0.0,0.0,0.0,0.0,0.0,0.0,0.0,-3.5704,-3.5704,-3.5704,-3.5704,0.0,-3.5704,0.0,0.0,0.0,0.0,0.0,0.0,0.0,0.0,0.0,0.0,0.0,0.0,-4.0137,-4.0659,-4.0952,-4.1108,-4.1108,-4.1108,-4.1381,-4.1947,-4.2259,-4.2982,-4.4094,-4.4719,-4.5304,-4.5851,-4.6163,-4.63,-4.63,-4.63,-4.63,-4.63,-4.63,-4.63,-4.63,-4.63,-4.63,-4.6417,-4.7295,-4.8135,-4.8935,-4.9813,-5.0692,-5.1394,-5.1394,-5.1394,-5.1453,-5.1785,-5.1648,-5.1472,-5.1785,-5.1629,-5.1394,-5.1394,-5.1394,-5.1394,-5.1394,-5.1394,-5.1394,-5.1394,-5.1394,-5.1394,-5.1394,-5.1394,-5.1394,-5.1394,-5.1245,-5.1132,-5.1132,-5.0998,-5.0851,-5.0736,-5.0718,-5.0682,-5.0603,-5.0542,-5.0438,-5.0325,-5.0302,-5.0302,-5.0302,-5.0302,-5.0302,-5.0302,-5.0302,-5.0302,-5.0302,-5.0302,-5.0302,-5.0302,-5.0302,-5.0302]}]]